[[{"header":{"parameterUnit":"m.s-1","parameterCategory":1,"la1":30.6,"la2":29.2853,"lo1":-89.7004,"lo2":-87.6739,"dy":0.0162,"dx":0.0183,"nx":112,"ny":82,"refTime":"2024-02-16T06:00:00:Z","depth":0,"parameterNumber":2,"parameterNumberName":"U-component_of_WINDS"},"data":[0.0,0.0,0.0,0.0,0.0,0.0,0.0,0.0,0.0,0.0,0.0,0.0,0.0,0.0,0.0,0.0,0.0,0.0,0.0,0.0,0.0,0.0,0.0,0.0,0.0,0.0,0.0,0.0,0.0,0.0,0.0,0.0,0.0,0.0,0.0,0.0,0.0,0.0,0.0,0.0,0.0,0.0,0.0,0.0,0.0,0.0,0.0,0.0,0.0,0.0,0.0,0.0,0.0,0.0,0.0,0.0,0.0,0.0,0.0,0.0,0.0,0.0,0.0,0.0,0.0,0.0,0.0,0.0,0.0,0.0,0.0,0.0,0.0,0.0,0.0,0.0,0.0,0.0,0.0,0.0,0.0,0.0,0.0,0.0,0.0,0.0,0.0,0.0,0.0,0.0,-3.0316,-3.0468,-3.0526,-3.0526,-3.0526,-3.0526,-3.0526,-3.0526,0.0,0.0,0.0,0.0,0.0,0.0,0.0,0.0,0.0,0.0,0.0,0.0,0.0,0.0,0.0,0.0,0.0,0.0,0.0,0.0,0.0,0.0,0.0,0.0,0.0,0.0,0.0,0.0,0.0,0.0,0.0,0.0,0.0,0.0,0.0,0.0,0.0,0.0,0.0,0.0,0.0,0.0,0.0,0.0,0.0,0.0,0.0,0.0,0.0,0.0,0.0,0.0,0.0,0.0,0.0,0.0,0.0,0.0,0.0,0.0,0.0,0.0,0.0,0.0,0.0,0.0,0.0,0.0,0.0,0.0,0.0,0.0,0.0,0.0,0.0,0.0,0.0,0.0,0.0,0.0,0.0,0.0,0.0,0.0,0.0,0.0,0.0,0.0,0.0,0.0,0.0,0.0,0.0,0.0,0.0,0.0,0.0,0.0,0.0,0.0,0.0,0.0,0.0,0.0,-3.0485,-3.0485,-3.0526,-3.0526,-3.0526,-3.0526,-3.0526,-3.0526,0.0,0.0,0.0,0.0,0.0,0.0,0.0,0.0,0.0,0.0,0.0,0.0,0.0,0.0,0.0,0.0,0.0,0.0,0.0,0.0,0.0,0.0,0.0,0.0,0.0,0.0,0.0,0.0,0.0,0.0,0.0,0.0,0.0,0.0,0.0,0.0,0.0,0.0,0.0,0.0,0.0,0.0,0.0,0.0,0.0,0.0,0.0,0.0,0.0,0.0,0.0,0.0,0.0,0.0,0.0,0.0,0.0,0.0,0.0,0.0,0.0,0.0,0.0,0.0,0.0,0.0,0.0,0.0,0.0,0.0,0.0,0.0,0.0,0.0,0.0,0.0,0.0,0.0,0.0,0.0,0.0,0.0,0.0,0.0,0.0,0.0,0.0,0.0,0.0,0.0,0.0,0.0,0.0,0.0,0.0,0.0,0.0,0.0,0.0,0.0,0.0,0.0,0.0,-3.0426,-3.0526,-3.0526,-3.0526,-3.0526,-3.0526,-3.0526,-3.0526,-3.0526,-3.0241,0.0,0.0,0.0,0.0,0.0,0.0,0.0,0.0,0.0,0.0,0.0,0.0,0.0,0.0,0.0,0.0,0.0,0.0,0.0,0.0,0.0,0.0,0.0,0.0,0.0,0.0,0.0,0.0,0.0,0.0,0.0,0.0,0.0,0.0,0.0,0.0,0.0,0.0,0.0,0.0,0.0,0.0,0.0,0.0,0.0,0.0,0.0,0.0,0.0,0.0,0.0,0.0,0.0,0.0,0.0,0.0,0.0,0.0,0.0,0.0,0.0,0.0,0.0,0.0,0.0,0.0,0.0,0.0,0.0,0.0,0.0,0.0,0.0,0.0,0.0,0.0,0.0,0.0,0.0,0.0,0.0,0.0,0.0,0.0,0.0,0.0,0.0,0.0,0.0,0.0,0.0,0.0,0.0,0.0,0.0,0.0,0.0,0.0,0.0,0.0,0.0,0.0,-3.0526,-3.0526,-3.0526,-3.0384,-3.0342,-3.0342,-3.0342,-3.03,-3.0156,-2.9941,0.0,0.0,0.0,0.0,0.0,0.0,0.0,0.0,0.0,0.0,0.0,0.0,0.0,0.0,0.0,0.0,0.0,0.0,0.0,0.0,0.0,0.0,0.0,0.0,0.0,0.0,0.0,0.0,0.0,0.0,0.0,0.0,0.0,0.0,0.0,0.0,0.0,0.0,0.0,0.0,0.0,0.0,0.0,0.0,0.0,0.0,0.0,0.0,0.0,0.0,0.0,0.0,0.0,0.0,0.0,0.0,0.0,0.0,0.0,0.0,0.0,0.0,0.0,0.0,0.0,0.0,0.0,0.0,0.0,0.0,0.0,0.0,0.0,0.0,0.0,0.0,0.0,0.0,0.0,0.0,0.0,0.0,0.0,0.0,0.0,0.0,0.0,0.0,0.0,0.0,0.0,0.0,0.0,0.0,0.0,0.0,0.0,0.0,0.0,0.0,0.0,0.0,-3.0526,-3.0526,-3.0526,-3.0113,-2.9853,-2.9853,-2.9853,-2.9661,-2.9212,-2.9572,0.0,0.0,0.0,0.0,0.0,0.0,0.0,0.0,0.0,0.0,0.0,0.0,0.0,0.0,0.0,0.0,0.0,0.0,0.0,0.0,0.0,0.0,0.0,0.0,0.0,0.0,0.0,0.0,0.0,0.0,0.0,0.0,0.0,0.0,0.0,0.0,0.0,0.0,0.0,0.0,0.0,0.0,0.0,0.0,0.0,0.0,0.0,0.0,0.0,0.0,0.0,0.0,0.0,0.0,0.0,0.0,0.0,0.0,0.0,0.0,0.0,0.0,0.0,0.0,0.0,0.0,0.0,0.0,0.0,0.0,0.0,0.0,0.0,0.0,0.0,0.0,0.0,0.0,0.0,0.0,0.0,0.0,0.0,0.0,0.0,0.0,0.0,0.0,0.0,0.0,0.0,0.0,0.0,0.0,0.0,0.0,0.0,0.0,0.0,0.0,0.0,0.0,-3.0113,-3.0384,-3.0113,-3.0156,-3.0113,-2.9837,-2.9793,-2.9617,-2.912,0.0,0.0,0.0,0.0,0.0,0.0,0.0,0.0,0.0,0.0,0.0,0.0,0.0,0.0,0.0,0.0,0.0,0.0,0.0,0.0,0.0,0.0,0.0,0.0,0.0,0.0,0.0,0.0,0.0,0.0,0.0,0.0,0.0,0.0,0.0,0.0,0.0,0.0,0.0,0.0,0.0,0.0,0.0,0.0,0.0,0.0,0.0,0.0,0.0,0.0,0.0,0.0,0.0,0.0,0.0,0.0,0.0,0.0,0.0,0.0,0.0,0.0,0.0,0.0,0.0,0.0,0.0,0.0,0.0,0.0,0.0,0.0,0.0,0.0,0.0,0.0,0.0,0.0,0.0,0.0,0.0,0.0,0.0,0.0,0.0,0.0,0.0,0.0,0.0,0.0,0.0,0.0,0.0,0.0,0.0,0.0,0.0,0.0,0.0,0.0,0.0,0.0,-2.912,-2.9661,-2.9941,-2.9617,-2.9689,-2.9689,-2.9332,-2.9316,-2.9104,-2.8654,0.0,0.0,0.0,0.0,0.0,0.0,0.0,0.0,0.0,0.0,0.0,0.0,0.0,0.0,0.0,0.0,0.0,0.0,0.0,0.0,0.0,0.0,0.0,0.0,0.0,0.0,0.0,0.0,0.0,0.0,0.0,0.0,0.0,0.0,0.0,0.0,0.0,0.0,0.0,0.0,0.0,0.0,0.0,0.0,0.0,0.0,0.0,0.0,0.0,0.0,0.0,0.0,0.0,0.0,0.0,0.0,0.0,0.0,0.0,0.0,0.0,0.0,0.0,0.0,0.0,0.0,0.0,0.0,0.0,0.0,0.0,0.0,0.0,0.0,0.0,0.0,0.0,0.0,0.0,0.0,0.0,0.0,0.0,0.0,0.0,0.0,0.0,0.0,0.0,0.0,0.0,0.0,0.0,0.0,0.0,0.0,0.0,0.0,0.0,0.0,0.0,0.0,-2.9074,-2.9074,-2.9074,-2.9074,-2.8638,-2.8304,-2.8288,-2.8288,-2.8125,0.0,0.0,0.0,0.0,0.0,0.0,0.0,0.0,0.0,0.0,0.0,0.0,0.0,0.0,0.0,0.0,0.0,0.0,0.0,0.0,0.0,0.0,0.0,0.0,0.0,0.0,0.0,0.0,0.0,0.0,0.0,0.0,0.0,0.0,0.0,0.0,0.0,0.0,0.0,0.0,0.0,0.0,0.0,0.0,0.0,0.0,0.0,0.0,0.0,0.0,0.0,0.0,0.0,0.0,0.0,0.0,0.0,0.0,0.0,0.0,0.0,0.0,0.0,0.0,0.0,0.0,0.0,0.0,0.0,0.0,0.0,0.0,0.0,0.0,0.0,0.0,0.0,0.0,0.0,0.0,0.0,0.0,0.0,0.0,0.0,0.0,0.0,0.0,0.0,0.0,0.0,0.0,0.0,0.0,0.0,0.0,0.0,0.0,0.0,0.0,0.0,0.0,0.0,-2.8091,-2.8654,-2.8982,-2.8591,-2.8732,-2.8685,-2.8336,-2.8207,-2.7944,-2.7488,0.0,0.0,0.0,0.0,0.0,0.0,0.0,0.0,0.0,0.0,0.0,0.0,0.0,0.0,0.0,0.0,0.0,0.0,0.0,0.0,0.0,0.0,0.0,0.0,0.0,0.0,0.0,0.0,0.0,0.0,0.0,0.0,0.0,0.0,0.0,0.0,0.0,0.0,0.0,0.0,0.0,0.0,0.0,0.0,0.0,0.0,0.0,0.0,0.0,0.0,0.0,0.0,0.0,0.0,0.0,0.0,0.0,0.0,0.0,0.0,0.0,0.0,0.0,0.0,0.0,0.0,0.0,0.0,0.0,0.0,0.0,0.0,0.0,0.0,0.0,0.0,0.0,0.0,0.0,0.0,0.0,0.0,0.0,0.0,0.0,0.0,0.0,0.0,0.0,0.0,0.0,0.0,0.0,0.0,0.0,0.0,0.0,0.0,0.0,0.0,0.0,0.0,-2.7625,-2.814,-2.8367,-2.8076,-2.8319,-2.8367,-2.7978,-2.7845,-2.766,-2.7335,0.0,0.0,0.0,0.0,0.0,0.0,0.0,0.0,0.0,0.0,0.0,0.0,0.0,0.0,0.0,0.0,0.0,0.0,0.0,0.0,0.0,0.0,0.0,0.0,0.0,0.0,0.0,0.0,0.0,0.0,0.0,0.0,0.0,0.0,0.0,0.0,0.0,0.0,0.0,0.0,0.0,0.0,0.0,0.0,0.0,0.0,0.0,0.0,0.0,0.0,0.0,0.0,0.0,0.0,0.0,0.0,0.0,0.0,0.0,0.0,0.0,0.0,0.0,0.0,0.0,0.0,0.0,0.0,0.0,0.0,0.0,0.0,0.0,0.0,0.0,0.0,0.0,0.0,0.0,0.0,0.0,0.0,0.0,0.0,0.0,0.0,0.0,0.0,0.0,0.0,0.0,0.0,0.0,0.0,0.0,0.0,0.0,0.0,0.0,0.0,0.0,0.0,-2.7625,-2.7625,-2.7625,-2.7625,-2.7575,-2.7524,-2.7401,-2.7401,-2.7299,-2.7181,0.0,0.0,0.0,0.0,0.0,0.0,0.0,0.0,0.0,0.0,0.0,0.0,0.0,0.0,0.0,0.0,0.0,0.0,0.0,0.0,0.0,0.0,0.0,0.0,0.0,0.0,0.0,0.0,0.0,0.0,0.0,0.0,0.0,0.0,0.0,0.0,0.0,0.0,0.0,0.0,0.0,0.0,0.0,0.0,0.0,0.0,0.0,0.0,0.0,0.0,0.0,0.0,0.0,0.0,0.0,0.0,0.0,0.0,0.0,0.0,-3.8192,-3.8192,0.0,0.0,0.0,0.0,0.0,0.0,0.0,0.0,0.0,0.0,0.0,0.0,0.0,0.0,0.0,0.0,0.0,0.0,0.0,0.0,0.0,0.0,0.0,0.0,0.0,0.0,0.0,0.0,0.0,0.0,0.0,0.0,0.0,0.0,0.0,0.0,0.0,0.0,0.0,0.0,-2.7625,-2.7625,-2.7625,-2.7625,-2.7488,-2.7437,-2.7401,-2.7196,-2.7055,-2.7041,-2.6899,0.0,0.0,0.0,0.0,0.0,0.0,0.0,0.0,0.0,0.0,0.0,0.0,0.0,0.0,0.0,0.0,0.0,0.0,0.0,0.0,0.0,0.0,0.0,0.0,0.0,0.0,0.0,0.0,0.0,0.0,0.0,0.0,0.0,0.0,0.0,0.0,0.0,0.0,0.0,0.0,0.0,0.0,0.0,0.0,0.0,0.0,0.0,0.0,0.0,0.0,0.0,0.0,0.0,0.0,0.0,0.0,0.0,0.0,0.0,-3.8192,-3.8192,0.0,0.0,0.0,0.0,0.0,0.0,0.0,0.0,0.0,0.0,0.0,0.0,0.0,0.0,0.0,0.0,0.0,0.0,0.0,0.0,0.0,0.0,0.0,0.0,0.0,0.0,0.0,0.0,0.0,0.0,0.0,0.0,0.0,0.0,0.0,0.0,0.0,0.0,0.0,0.0,-2.7625,-2.7625,-2.7575,-2.7539,-2.7437,-2.735,-2.7211,-2.7107,-2.6951,-2.6899,-2.6846,0.0,0.0,0.0,0.0,0.0,0.0,0.0,0.0,0.0,0.0,0.0,0.0,0.0,0.0,0.0,0.0,0.0,0.0,0.0,0.0,0.0,0.0,0.0,0.0,0.0,0.0,0.0,0.0,0.0,0.0,0.0,0.0,0.0,0.0,0.0,0.0,0.0,0.0,0.0,0.0,0.0,0.0,0.0,0.0,0.0,0.0,0.0,0.0,0.0,0.0,0.0,0.0,0.0,-3.8234,-3.8307,-3.8274,-3.8225,-3.8192,-3.8192,-3.8192,-3.8101,-3.7975,-3.7975,0.0,0.0,0.0,0.0,0.0,0.0,0.0,0.0,0.0,0.0,0.0,0.0,0.0,0.0,0.0,0.0,0.0,0.0,0.0,0.0,0.0,0.0,-3.0468,-3.0384,-3.0384,-3.0342,-3.0241,0.0,0.0,0.0,0.0,0.0,0.0,0.0,0.0,0.0,0.0,0.0,-2.7524,-2.7524,-2.7473,-2.7401,-2.735,-2.7248,-2.7003,-2.7003,-2.6899,-2.6779,-2.6779,-2.6779,0.0,0.0,0.0,0.0,0.0,0.0,0.0,0.0,0.0,0.0,0.0,0.0,0.0,0.0,0.0,0.0,0.0,0.0,0.0,0.0,0.0,0.0,0.0,0.0,0.0,0.0,0.0,0.0,0.0,0.0,0.0,0.0,-3.8658,-3.867,0.0,0.0,0.0,0.0,0.0,0.0,0.0,0.0,0.0,0.0,0.0,0.0,0.0,-3.6204,-3.6204,-3.6971,-3.7317,-3.7271,-3.798,-3.8274,-3.8225,-3.8192,-3.8192,-3.8192,-3.8192,0.0,-3.7142,-3.7142,0.0,0.0,0.0,0.0,0.0,0.0,0.0,0.0,0.0,0.0,0.0,0.0,0.0,0.0,0.0,0.0,0.0,0.0,0.0,0.0,0.0,0.0,-3.0384,-2.9984,-2.9897,-2.9766,-2.9212,-2.9136,-2.909,-2.8951,-2.8204,-2.759,0.0,0.0,0.0,0.0,0.0,0.0,-2.7284,-2.7269,-2.7233,-2.7233,-2.7144,-2.7055,-2.7003,-2.6899,-2.6832,-2.6779,-2.6779,-2.6779,-2.6779,-2.5701,0.0,0.0,0.0,0.0,0.0,0.0,0.0,0.0,0.0,0.0,0.0,0.0,0.0,0.0,0.0,0.0,0.0,0.0,0.0,0.0,0.0,0.0,0.0,0.0,0.0,0.0,0.0,0.0,0.0,-3.7933,-3.7599,-3.7673,-3.7645,-3.7424,0.0,0.0,0.0,0.0,0.0,0.0,0.0,0.0,0.0,-3.6625,-3.6643,-3.6843,-3.7298,-3.7721,-3.7904,-3.784,-3.8172,-3.8322,-3.8241,-3.8225,-3.8192,-3.8192,-3.8192,-3.7721,-3.7047,-3.7468,-3.7196,-3.6353,0.0,0.0,0.0,0.0,-3.2131,-3.2023,-3.1678,-3.1439,-3.1224,-3.0849,0.0,0.0,0.0,0.0,0.0,0.0,0.0,-3.0526,-3.0526,-3.0526,-3.0426,-3.0241,-2.9924,-2.9645,-2.9438,-2.8764,-2.824,-2.8304,-2.8027,-2.766,-2.7335,-2.7335,0.0,0.0,0.0,-2.7284,-2.7233,-2.7181,-2.7181,-2.7093,-2.7055,-2.6951,-2.6899,-2.6832,-2.6779,-2.6779,-2.65,-2.6286,-2.6286,-2.5147,-2.4509,0.0,0.0,0.0,0.0,0.0,0.0,0.0,0.0,0.0,0.0,0.0,0.0,0.0,0.0,0.0,0.0,0.0,0.0,0.0,0.0,0.0,0.0,0.0,0.0,0.0,0.0,0.0,0.0,-3.7154,-3.6858,-3.6907,-3.6839,-3.6645,0.0,0.0,0.0,0.0,0.0,0.0,-3.5702,-3.5903,-3.6286,-3.69,-3.7137,-3.7539,-3.8154,-3.8619,-3.8789,-3.8692,-3.8911,-3.8955,-3.8873,-3.8805,-3.879,-3.879,-3.879,-3.8337,-3.7612,-3.7812,-3.7413,-3.6552,-3.5208,-3.4198,-3.3336,-3.2,-3.136,-3.119,-3.1151,-3.1032,-3.0912,-3.0871,-3.0692,-3.0526,-3.0526,0.0,0.0,0.0,0.0,-3.0526,-3.0526,-3.0526,-3.0426,-3.0199,-2.9793,-2.9406,-2.918,-2.8336,-2.7665,-2.7849,-2.7879,-2.771,-2.7233,-2.7181,0.0,-2.713,-2.7144,-2.713,-2.7078,-2.7078,-2.7041,-2.6951,-2.6951,-2.6899,-2.6779,-2.6779,-2.6779,-2.6779,-2.6233,-2.5893,-2.5893,-2.4751,-2.4073,-2.4002,0.0,0.0,0.0,0.0,0.0,0.0,0.0,0.0,0.0,0.0,0.0,0.0,0.0,0.0,0.0,0.0,0.0,0.0,0.0,0.0,0.0,0.0,0.0,0.0,0.0,0.0,0.0,0.0,0.0,-3.698,-3.7052,0.0,0.0,0.0,0.0,-3.3731,-3.4696,-3.5227,-3.4971,-3.5692,-3.6113,-3.615,-3.6955,-3.7424,-3.7461,-3.9025,-3.9713,-3.9549,-4.0315,-4.0577,-4.0401,-4.0401,-4.0401,-4.0401,-4.0401,-3.9967,-3.9152,-3.7649,-3.658,-3.5792,-3.4925,-3.4126,-3.3406,-3.2564,-3.1782,-3.119,-3.1055,-3.0935,-3.0871,-3.0733,-3.0609,-3.0526,-3.0526,-3.0526,0.0,0.0,-3.0526,-3.0526,-3.0526,-3.0526,-3.03,-2.9393,-2.9166,-2.8795,-2.761,-2.7386,-2.7524,-2.7815,-2.7458,-2.7055,-2.7003,0.0,-2.7181,-2.7055,-2.7003,-2.6951,-2.6846,-2.6832,-2.6832,-2.6779,-2.6779,-2.6779,-2.6779,-2.6779,-2.6779,-2.6779,-2.6233,-2.5893,-2.5893,-2.4751,-2.4002,-2.38,-2.3245,0.0,0.0,0.0,0.0,0.0,0.0,0.0,0.0,0.0,0.0,0.0,0.0,0.0,0.0,0.0,0.0,0.0,0.0,0.0,0.0,0.0,0.0,0.0,0.0,0.0,0.0,0.0,0.0,-3.5439,-3.5352,0.0,-3.5698,-3.5581,-3.5529,-3.5625,-3.5903,-3.6223,-3.6578,-3.6842,-3.7484,-3.8511,-3.886,-3.9263,-3.9795,-4.0364,-4.0606,-4.0507,-4.08,-4.0826,-4.0634,-4.0634,-4.0599,-4.051,-4.051,-4.0365,-4.0057,-3.9496,-3.8192,-3.6479,-3.5704,-3.4881,-3.4123,-3.3294,-3.2848,-3.2628,-3.257,-3.2446,-3.2269,-3.2064,-3.1961,-3.1918,-3.1918,-3.1918,-3.1918,-3.1918,-3.1918,-3.1918,-3.1918,-3.1637,-3.1261,-3.0813,-2.9846,-2.8851,-2.8393,-2.7617,-2.7078,-2.7269,-2.7144,-2.6951,-2.6899,-2.6884,-2.6937,-2.6899,-2.6899,-2.6846,-2.6779,-2.6779,-2.6779,-2.6779,-2.6779,-2.6779,-2.6779,-2.6779,-2.6621,-2.6233,-2.5646,-2.5077,-2.4553,-2.3767,-2.3258,-2.3078,-2.2848,-2.2665,0.0,0.0,0.0,0.0,0.0,0.0,0.0,0.0,0.0,0.0,0.0,0.0,0.0,0.0,0.0,0.0,0.0,0.0,0.0,0.0,0.0,0.0,0.0,0.0,0.0,0.0,-3.463,-3.4996,-3.4929,-3.527,-3.623,-3.622,-3.6405,-3.7056,-3.7348,-3.7728,-3.8279,-3.856,-3.9203,-4.0267,-4.0561,-4.0965,-4.1515,-4.1772,-4.1886,-4.1803,-4.1803,-4.1681,-4.1505,-4.1505,-4.1451,-4.1307,-4.1307,-4.1162,-4.0908,-4.0908,-3.984,-3.8104,-3.7146,-3.6227,-3.5317,-3.4369,-3.3735,-3.3406,-3.3339,-3.3211,-3.3054,-3.2785,-3.268,-3.268,-3.268,-3.268,-3.268,-3.268,-3.268,-3.268,-3.268,-3.2364,-3.1931,-3.1454,-3.0354,-2.9352,-2.8982,-2.8001,-2.7205,-2.7219,-2.7045,-2.6899,-2.6832,-2.6779,-2.6779,-2.6779,-2.6779,-2.6779,-2.6779,-2.6779,-2.6779,-2.6779,-2.6621,-2.65,-2.65,-2.6326,-2.6042,-2.5591,-2.4964,-2.4381,-2.38,-2.3185,-2.2739,-2.2616,-2.2555,-2.2494,-2.2297,0.0,0.0,0.0,0.0,0.0,0.0,0.0,0.0,0.0,0.0,0.0,0.0,0.0,0.0,0.0,0.0,0.0,0.0,0.0,0.0,0.0,0.0,0.0,-3.4495,-3.4514,-3.4873,-3.5784,-3.6007,-3.6349,-3.7019,-3.7484,-3.7764,-3.7838,-3.885,-3.961,-3.995,-4.0708,-4.1167,-4.1185,-4.1937,-4.2341,-4.2341,-4.3112,-4.3463,-4.3394,-4.3394,-4.3287,-4.3104,-4.3104,-4.3049,-4.2882,-4.2882,-4.2466,-4.1759,-4.1759,-4.1289,-4.0456,-3.919,-3.8028,-3.6921,-3.5729,-3.4538,-3.3465,-3.3268,-3.3182,-3.3121,-3.2851,-3.2746,-3.2746,-3.2746,-3.2746,-3.2746,-3.2746,-3.2746,-3.2762,-3.2762,-3.2566,-3.2136,-3.1176,-3.0725,-3.0225,-2.9142,-2.8422,-2.79,-2.7752,-2.7244,-2.6808,-2.6779,-2.6779,-2.6779,-2.6779,-2.6779,0.0,-2.6779,-2.6779,-2.6779,-2.6779,-2.6233,-2.5893,-2.5893,-2.5314,-2.5007,-2.4951,-2.4208,-2.38,-2.3741,-2.3078,-2.2616,-2.242,-2.2247,-2.2197,-2.2197,0.0,0.0,0.0,0.0,0.0,0.0,0.0,0.0,0.0,0.0,0.0,0.0,0.0,0.0,0.0,0.0,0.0,0.0,0.0,0.0,0.0,-3.4607,-3.4561,-3.4517,-3.5102,-3.5638,-3.5953,-3.7052,-3.8175,-3.9155,-3.9905,-4.0463,-4.0739,-4.1267,-4.1597,-4.1654,-4.2031,-4.2437,-4.2818,-4.3039,-4.3167,-4.3167,-4.3387,-4.3497,-4.3463,-4.3463,-4.3358,-4.3178,-4.3178,-4.305,-4.2882,-4.2882,-4.2755,-4.2574,-4.2574,-4.2429,-4.2011,-3.9882,-3.8866,-3.8467,-3.7494,-3.6622,-3.5774,-3.4964,-3.4688,-3.4643,-3.4379,-3.4286,-3.4286,-3.4286,-3.4286,-3.4286,-3.4286,-3.4286,-3.4239,-3.405,-3.3649,-3.3086,-3.2157,-3.1197,-3.0278,-2.9592,-2.8911,-2.8461,-2.8419,-2.7911,-2.7316,-2.6866,-2.6779,-2.6779,-2.6779,-2.6779,-2.6779,-2.6779,-2.6779,-2.6621,-2.6179,-2.6002,-2.5715,-2.53,-2.4937,-2.4584,-2.415,-2.38,-2.3399,-2.2823,-2.2604,-2.2432,-2.2247,-2.2185,-2.2197,0.0,0.0,0.0,0.0,0.0,0.0,0.0,0.0,0.0,0.0,0.0,0.0,0.0,0.0,0.0,0.0,0.0,0.0,0.0,0.0,0.0,0.0,-3.5035,-3.5195,-3.5105,-3.5556,-3.6318,-3.7467,-3.8477,-3.9646,-4.1011,-4.1663,-4.2148,-4.258,-4.2796,-4.2982,-4.3175,-4.3212,-4.3373,-4.3697,-4.3582,-4.3644,-4.3993,-4.3993,-4.4176,-4.4507,-4.4507,-4.4198,-4.3707,-4.3707,-4.3396,-4.2882,-4.2882,-4.2882,-4.2882,-4.2882,-4.2882,-4.2718,0.0,0.0,0.0,0.0,-3.757,-3.7084,-3.6458,-3.6164,-3.6019,-3.551,-3.5363,-3.5297,-3.4982,-3.4899,-3.4899,-3.4899,-3.4899,-3.4851,-3.4546,-3.4034,-3.3387,-3.2501,-3.1561,-3.0698,-3.0134,-2.9523,-2.9073,-2.9073,-2.8565,0.0,-2.7636,-2.7142,-2.6779,-2.6779,-2.6779,-2.6779,-2.6779,-2.6779,-2.6568,-2.5948,-2.5591,-2.5119,-2.4553,-2.4092,0.0,0.0,0.0,-2.2884,-2.2359,-2.2309,0.0,0.0,0.0,-2.2197,-2.2197,-2.2197,0.0,0.0,-2.0996,-2.0344,0.0,0.0,0.0,0.0,0.0,0.0,0.0,0.0,0.0,0.0,0.0,0.0,0.0,0.0,0.0,0.0,-3.5627,-3.6135,-3.6167,-3.6276,-3.7186,-3.9528,-4.0132,-4.0984,-4.2612,-4.2943,-4.3245,-4.3706,-4.3763,-4.3988,-4.4373,-4.4255,0.0,0.0,0.0,-4.4103,-4.4837,-4.4856,-4.5186,-4.5902,-4.5902,-4.5407,-4.4527,-4.4527,-4.3978,-4.3027,-4.3027,-4.2973,-4.2882,-4.2882,-4.2882,-4.2828,-4.1991,-4.1163,-4.0263,-3.864,-3.7928,-3.7814,-3.7567,0.0,0.0,-3.639,-3.6125,-3.6009,-3.5346,-3.5148,-3.5131,-3.5048,-3.5015,-3.4903,-3.4513,-3.3885,-3.3166,-3.2376,-3.1751,-3.1161,-3.0687,-3.0132,-2.9726,-2.9726,-2.9218,-2.8782,-2.8782,-2.7795,-2.6968,-2.6895,-2.6895,-2.6866,-2.6794,-2.6779,-2.65,-2.5825,-2.5119,0.0,-2.3741,-2.3078,-2.2678,-2.2678,-2.2482,-2.2309,-2.2197,-2.2197,-2.2197,-2.2197,-2.2197,-2.2197,-2.2197,-2.2197,-2.1474,-2.0096,-2.0741,-2.0215,0.0,0.0,0.0,0.0,0.0,0.0,0.0,0.0,0.0,0.0,0.0,0.0,0.0,0.0,0.0,-3.5999,-3.6084,-3.6553,-3.7804,-3.8595,-3.9245,-3.981,-4.18,-4.3297,-4.3689,-4.4378,-4.4753,-4.4597,-4.4817,-4.4805,-4.4411,-4.4983,-4.5182,-4.4971,-4.5287,-4.5516,-4.5663,-4.5663,-4.5755,-4.5902,-4.5902,0.0,-4.5366,-4.5366,-4.4815,-4.386,-4.386,-4.3498,-4.2882,-4.2882,-4.2882,-4.2826,-4.1896,-4.1182,-4.0585,-3.9265,-3.8687,-3.8454,-3.7751,-3.7402,-3.7236,-3.7003,-3.6887,-3.687,-3.6721,-3.6671,0.0,-3.5959,-3.5794,-3.5432,-3.3979,-3.3495,-3.3077,-3.1807,-3.1394,-3.1161,-3.0687,-3.048,-3.0393,-3.0393,-2.9871,-2.945,-2.945,-2.8811,-2.8144,-2.7621,-2.7549,-2.736,-2.6852,-2.6539,-2.6014,-2.505,-2.461,-2.4002,-2.303,-2.2604,-2.2482,-2.2482,-2.2309,-2.2247,-2.2197,-2.2197,-2.2197,-2.2197,-2.2197,-2.2197,-2.2197,-2.2197,-2.1474,-2.0096,-2.0226,-1.9507,0.0,0.0,0.0,0.0,0.0,0.0,0.0,0.0,0.0,0.0,0.0,-3.5528,-3.5596,0.0,-3.6246,-3.6511,-3.7154,-3.8004,-3.9142,-4.0409,-4.1225,-4.125,-4.2816,-4.41,-4.4588,-4.5029,-4.5235,-4.5045,-4.5213,-4.5344,-4.545,-4.5696,-4.5914,-4.6053,-4.6131,-4.6282,-4.6507,-4.6507,-4.6709,-4.7095,-4.7095,-4.6818,-4.6282,-4.6243,-4.569,-4.479,-4.4732,-4.424,-4.3462,-4.3063,-4.2768,-4.2498,-4.1785,-4.1366,-4.1013,-3.9895,-3.9345,-3.9194,-3.8672,-3.8385,-3.8233,-3.7781,-3.7665,-3.7599,-3.7218,-3.7102,-3.7036,-3.6655,-3.629,-3.5696,-3.429,-3.3488,-3.2741,-3.161,-3.1102,-3.0866,-3.0628,-3.0568,-3.0568,-3.0568,-3.0321,-3.0103,-3.0103,-2.9842,-2.9305,-2.8347,-2.8202,-2.8086,-2.7781,-2.7023,-2.6176,-2.5327,-2.4437,-2.359,-2.2604,-2.2432,-2.2309,-2.2309,-2.2247,-2.2197,-2.2197,-2.2197,-2.2197,-2.2197,-2.2197,-2.2197,-2.2197,-2.1862,-2.1135,-2.0107,-1.9704,-1.8988,0.0,0.0,0.0,0.0,0.0,0.0,0.0,0.0,-3.5407,-3.5489,-3.5515,-3.5598,-3.5801,-3.6443,-3.696,-3.7153,-3.827,-3.9348,-4.0043,-4.1568,-4.2612,-4.2652,-4.3547,-4.4486,-4.5239,-4.5297,-4.5297,-4.5297,-4.5297,-4.564,-4.6462,-4.6388,-4.6566,-4.7135,-4.6967,-4.703,-4.7333,-4.7352,-4.7682,-4.8306,-4.8306,-4.7937,-4.7218,-4.7122,-4.6585,-4.5721,-4.5421,-4.4838,-4.4041,-4.3389,-4.2817,-4.2279,-4.1717,-4.1481,-4.1348,-4.0303,-3.9849,-3.9677,-3.9554,-3.9379,-3.9172,-3.8609,-3.8411,-3.8311,-3.7715,-3.7533,-3.75,-3.7367,-3.6836,-3.6056,-3.4856,-3.3677,-3.2561,-3.1558,-3.0954,-3.0568,-3.0568,-3.0568,-3.0568,-3.0568,-3.0568,-3.0568,-3.0568,-3.0568,-3.019,-2.9044,-2.8855,-2.8755,-2.8497,-2.7485,-2.6475,-2.5654,-2.4468,-2.345,-2.259,-2.2308,-2.2197,-2.2197,-2.2197,-2.2197,-2.2197,-2.2197,-2.2197,-2.2197,-2.2197,-2.2123,-2.1987,-2.14,-2.0677,-1.9835,-1.9404,-1.8785,-3.5747,-3.5728,-3.5635,-3.5514,-3.5418,-3.5364,0.0,0.0,-3.5407,-3.5489,-3.5547,-3.5835,-3.6605,-3.6822,-3.7351,-3.8695,-3.9004,-3.9385,-4.0173,-4.1627,-4.2633,-4.2774,-4.4168,-4.5182,-4.5277,-4.5297,-4.5297,-4.5297,-4.5297,-4.564,-4.6462,-4.6915,-4.7408,-4.7969,-4.8334,-4.8418,-4.8177,-4.8177,-4.8214,-4.8306,-4.8306,-4.8231,-4.8059,-4.8059,-4.7503,-4.6521,-4.5657,-4.4838,-4.4077,-4.3987,-4.3534,-4.2711,-4.1828,-4.1481,-4.1348,-4.0303,-3.9849,-3.9677,-3.9554,-3.9379,-3.9309,-3.9172,-3.9156,-3.9139,-3.9056,-3.9023,-3.8907,-3.8261,-3.7788,-3.7085,-3.5228,-3.4063,-3.3001,-3.1748,-3.1049,-3.0568,-3.0568,-3.0568,-3.0568,-3.0568,-3.0568,-3.0568,-3.0568,-3.0568,-3.0335,-2.9624,-2.9523,-2.9001,-2.7689,-2.7152,-2.6425,-2.5128,-2.4619,-2.4023,-2.2995,-2.2462,-2.2197,-2.2197,-2.2197,-2.2197,-2.2197,-2.2197,-2.2197,-2.2197,-2.2197,-2.1862,-2.1198,-2.1123,-2.0409,-1.9121,-1.9468,-1.9251,-3.5708,-3.5728,-3.5657,0.0,-3.5451,-3.5443,-3.536,-3.5412,-3.5474,-3.5502,-3.556,-3.5874,-3.674,-3.7305,-3.8044,0.0,-3.9772,-4.0308,-4.1123,-4.2122,-4.2967,-4.3443,-4.4551,-4.5297,-4.5297,-4.5297,-4.5297,-4.5297,-4.5297,-4.587,-4.7188,-4.7457,-4.8049,-4.9042,-4.9102,-4.8934,-4.8586,-4.8402,-4.8306,-4.8306,-4.8306,-4.8286,-4.8247,-4.813,-4.7532,-4.6531,-4.5204,-4.4403,-4.4059,-4.3588,-4.3057,-4.2418,-4.1743,-4.1303,-4.1019,-4.0104,-3.9729,-3.9677,-3.9484,-3.9325,-3.9272,-3.9272,-3.9272,-3.9272,-3.9272,-3.9272,-3.9206,-3.8677,-3.8159,-3.7286,-3.5587,-3.4268,-3.3066,-3.1804,-3.1032,-3.0568,-3.0568,-3.0568,-3.0568,-3.0568,-3.0568,-3.0568,-3.0568,-3.0462,-3.0194,-2.9935,-2.9892,-2.9462,-2.8374,-2.7461,-2.6238,-2.4524,-2.421,-2.3928,-2.3525,-2.3244,-2.2979,-2.2678,-2.2654,-2.2522,-2.2209,-2.2197,-2.2197,-2.2197,-2.1788,-2.1551,-2.1506,-2.071,-2.0048,-1.9563,-1.9414,-1.9223,-3.5698,0.0,0.0,-3.5531,-3.5514,-3.5509,-3.5443,-3.5468,-3.5515,-3.5515,-3.5572,-3.5867,-3.6752,-3.7626,-3.8523,-3.945,-4.0215,-4.0913,-4.1456,-4.2332,-4.3116,-4.3617,-4.465,-4.5319,-4.5319,-4.5338,-4.5317,-4.5317,-4.5528,-4.6292,-4.7764,-4.8028,-4.8658,-4.9792,-4.9257,-4.884,-4.8617,-4.7978,-4.7665,-4.7776,-4.7683,-4.7645,-4.7645,-4.7453,-4.6946,-4.6164,-4.4928,-4.4313,-4.4041,-4.3462,-4.291,-4.232,-4.1743,-4.1276,-4.0832,-4.0003,-3.9677,-3.9677,-3.9379,-3.9272,-3.9272,-3.9272,-3.9272,-3.9272,-3.9272,-3.9272,-3.9272,-3.904,-3.8357,-3.7318,-3.5892,-3.4447,-3.3076,-3.1787,-3.1032,-3.0568,-3.0568,-3.0568,-3.0568,-3.0568,-3.0568,-3.0568,-3.0568,-3.0341,-3.005,-2.9988,-2.9727,-2.9324,-2.8532,-2.7301,-2.5902,-2.4487,-2.4128,-2.3977,-2.3977,-2.3845,-2.3604,-2.3232,-2.3195,-2.3027,-2.2642,-2.263,-2.2555,-2.2289,-2.1818,-2.1459,-2.1284,-2.026,-1.9737,-1.963,-1.9267,-1.9201,0.0,0.0,-3.5782,-3.5706,-3.564,-3.5577,-3.5504,-3.5495,-3.5515,-3.5591,-3.5596,-3.5863,-3.6737,-3.7661,-3.8584,-3.945,-4.0219,-4.0688,-4.064,-4.1998,-4.2958,-4.2852,-4.4346,-4.54,0.0,-4.54,-4.5398,-4.5398,-4.6125,-4.6967,-4.7846,-4.8624,-4.9286,-4.9765,-4.871,-4.8119,-4.8127,-4.6681,-4.6136,-4.6446,-4.6136,-4.5975,-4.5975,-4.5734,-4.5638,-4.5521,-4.533,-4.482,-4.4095,-4.4059,-4.3607,-4.2806,-4.1871,-4.1393,-4.1168,-4.0087,-3.9677,-3.9677,-3.9379,-3.9272,-3.9272,-3.9272,-3.9272,-3.9272,-3.9272,-3.9272,-3.9272,-3.9272,-3.8479,-3.734,-3.6178,-3.4621,-3.2968,-3.1795,-3.1032,-3.0568,-3.0568,-3.0568,-3.0568,-3.0568,-3.0568,-3.0568,-3.0568,-3.0341,-2.9988,-2.9665,-2.8881,-2.8157,-2.7617,-2.6239,-2.5346,-2.5264,-2.4807,-2.4494,-2.4494,-2.4049,-2.3761,-2.3749,-2.3749,-2.3737,-2.3725,-2.3725,-2.3368,-2.2593,-2.2604,-2.176,-2.0022,-2.0022,-1.9548,-1.8739,-1.9127,-1.9317,-3.5773,0.0,-3.5791,-3.5763,-3.5745,-3.5689,-3.5588,-3.5574,-3.557,-3.554,-3.5572,-3.5879,-3.6733,-3.7669,-3.8584,-3.945,-4.0283,-4.0781,-4.0615,-4.2024,-4.3008,-4.2814,-4.4346,0.0,0.0,0.0,0.0,-4.54,-4.6205,-4.7047,-4.7867,-4.8668,-4.9156,-4.9325,-4.8522,-4.7937,-4.755,-4.6465,-4.6063,-4.6405,-4.6063,-4.5865,-4.5791,-4.5131,-4.4781,-4.4667,-4.3989,-4.3534,-4.3299,-4.3299,-4.3136,-4.2806,-4.1888,-4.1437,-4.1168,-4.0087,-3.9625,-3.9537,-3.9379,-3.9272,-3.9272,-3.9272,-3.9272,-3.9272,-3.9272,-3.9272,-3.9272,-3.904,-3.8225,-3.7142,-3.5907,-3.4315,-3.2811,-3.1754,-3.1032,-3.0568,-3.0568,-3.0568,-3.0568,-3.0568,-3.0568,-3.0568,-3.0568,-3.0158,-2.9338,-2.8091,-2.763,-2.7229,-2.6688,-2.5861,-2.5312,-2.5312,-2.5155,-2.5035,-2.5035,-2.4891,-2.4638,-2.429,-2.4266,-2.4109,-2.3785,-2.3282,-2.2786,-2.2434,-2.1387,-2.0678,-2.0186,-1.9772,-1.9487,-1.9313,-1.9453,-1.9431,-3.5773,-3.581,-3.5799,-3.583,-3.5815,-3.5763,-3.566,-3.562,-3.5596,-3.5553,-3.5572,-3.5782,-3.6366,-3.7215,-3.8111,-3.8984,-3.9888,-4.0497,-4.061,-4.2088,-4.3108,-4.2907,-4.4403,-4.5458,0.0,0.0,0.0,-4.5438,-4.6493,-4.7375,-4.791,-4.8692,-4.9089,-4.9105,-4.7984,-4.7265,-4.7029,-4.583,-4.5266,-4.5367,-4.5145,-4.5022,-4.4913,-4.4254,-4.3943,-4.3831,-4.3155,-4.2882,-4.2882,-4.2882,-4.2882,-4.2806,-4.1888,-4.1437,-4.1168,-4.0087,-3.9642,-3.9501,-3.9325,-3.9272,-3.9272,-3.9272,-3.9272,-3.9272,-3.9272,-3.9272,-3.9218,-3.8914,-3.7936,-3.675,-3.5431,-3.392,-3.2466,-3.1404,-3.0872,-3.0568,-3.0568,-3.0568,-3.0568,-3.0568,-3.0522,-3.0401,-3.0401,-2.9713,-2.861,-2.6973,-2.6701,-2.6496,-2.5943,-2.5523,-2.5312,-2.5312,-2.5312,-2.5312,-2.5312,-2.5312,-2.5168,-2.4819,-2.4807,-2.4513,-2.3904,-2.3317,-2.2677,-2.204,-2.0949,-2.0292,-2.0061,-1.9621,-1.9453,-1.9478,-1.9478,-1.939,-3.5775,-3.5801,-3.5815,-3.5872,-3.5859,-3.5779,-3.5721,-3.565,-3.56,-3.5608,-3.5608,-3.5623,0.0,0.0,-3.7279,-3.8151,-3.9093,-3.9927,-4.061,-4.2157,-4.3163,0.0,0.0,0.0,0.0,0.0,0.0,-4.5513,-4.705,-4.7991,-4.7934,-4.8677,-4.9073,-4.8977,-4.712,-4.6216,-4.6402,-4.4815,-4.3846,-4.3497,-4.3497,-4.3463,-4.3394,-4.3251,-4.316,-4.3104,-4.2938,-4.2882,-4.2882,-4.2882,-4.2882,-4.2806,-4.1888,-4.1437,-4.1168,-4.0087,-3.9642,-3.9501,-3.9325,-3.9272,-3.9272,-3.9272,-3.9272,-3.9272,-3.9272,-3.9272,-3.9218,-3.8914,-3.7737,-3.6267,-3.4829,-3.3334,-3.193,-3.0833,-3.0568,-3.0568,-3.0568,-3.0568,-3.0568,-3.0568,-3.0341,-3.005,-2.9988,-2.9071,-2.7829,-2.6427,-2.6151,-2.5943,-2.5382,-2.5312,-2.5312,-2.5312,-2.5312,-2.5312,-2.5312,-2.5312,-2.5312,-2.5312,-2.5241,-2.4933,-2.412,-2.3818,-2.301,-2.1461,-2.1145,-2.0537,-1.9566,-1.9566,-1.9478,-1.9301,-1.9301,-1.9301,-3.5801,-3.5791,-3.5826,-3.5885,-3.5898,-3.5859,-3.5794,-3.5807,-3.5794,-3.5699,-3.5669,-3.5669,0.0,0.0,0.0,-3.8151,-3.9101,0.0,-4.061,-4.1629,0.0,-4.2936,0.0,-4.4897,-4.5528,-4.5586,0.0,0.0,-4.7125,-4.7799,-4.7146,-4.847,-4.864,-4.7274,-4.6534,-4.5865,-4.5238,-4.4401,-4.3846,-4.3497,-4.3497,-4.3497,-4.3463,-4.3286,-4.3178,-4.3178,-4.2975,-4.2882,-4.2882,-4.2882,-4.2882,-4.2806,-4.1888,-4.1437,-4.1168,-4.0087,-3.9642,-3.9501,-3.9325,-3.9272,-3.9272,-3.9272,-3.9272,-3.9272,-3.9272,-3.9272,-3.9218,-3.8914,-3.7633,-3.6069,-3.4836,-3.3218,-3.1747,-3.0836,-3.0568,-3.0568,-3.0568,-3.0568,-3.0568,-3.0568,-3.0341,-2.9789,-2.8944,-2.8143,-2.7351,-2.6358,-2.5804,-2.5441,-2.5312,-2.5312,-2.5312,-2.5312,-2.5312,-2.5312,-2.5312,-2.5312,-2.5182,-2.4921,-2.4921,-2.4467,-2.3537,-2.2872,-2.2048,-2.0991,-2.0313,-1.9775,-1.9381,-1.9381,-1.9381,-1.9301,-1.9301,-1.9301,-3.5747,-3.5773,-3.5815,-3.5872,-3.5897,-3.5878,-3.5787,-3.5801,-3.5787,-3.5679,-3.5667,0.0,0.0,0.0,0.0,0.0,0.0,0.0,-4.0075,-4.1221,-4.2247,0.0,-4.3782,0.0,-4.5509,-4.5586,-4.5759,0.0,-4.7048,-4.7356,-4.6876,-4.7703,-4.7722,-4.6683,-4.6135,-4.5456,-4.4624,-4.4336,-4.3936,-4.3497,-4.3497,-4.3497,-4.3497,-4.3358,-4.3251,-4.3196,-4.3068,-4.2938,-4.2882,-4.2882,-4.2768,-4.2498,-4.1803,-4.1303,-4.0955,-4.0054,-3.9625,-3.9537,-3.9379,-3.9272,-3.9272,-3.9272,-3.9272,-3.9272,-3.9272,-3.9272,-3.9152,-3.8357,-3.7118,-3.5639,-3.4187,-3.2768,-3.1437,-3.0747,-3.0568,-3.0568,-3.0568,-3.0568,-3.0507,-3.0219,-2.9837,-2.9135,-2.796,-2.7297,-2.6676,-2.5943,-2.5523,-2.5312,-2.5312,-2.5312,-2.5312,-2.5312,-2.5312,-2.5312,-2.5312,-2.5182,-2.4981,-2.479,-2.4406,-2.3717,-2.2809,-2.1983,-2.1145,-2.0313,-1.9706,-1.939,-1.9301,-1.9301,-1.9301,-1.9301,-1.9301,-1.9301,-3.5678,-3.5737,-3.5799,-3.5853,-3.5872,-3.584,-3.5729,-3.5693,-3.5687,-3.5631,0.0,-3.5631,-3.5687,-3.5708,-3.5999,-3.693,0.0,-3.8644,-3.9359,-4.0827,-4.2099,-4.2848,-4.3643,-4.447,-4.5336,-4.5643,-4.6086,-4.6836,-4.6913,-4.6913,-4.6913,-4.6839,-4.6705,-4.6531,-4.5742,-4.5023,-4.443,-4.4355,-4.4053,-4.3497,-4.3497,-4.3497,-4.3497,-4.3411,-4.3305,-4.3214,-4.3123,-4.3012,-4.2882,-4.2882,-4.2634,-4.2157,-4.1656,-4.123,-4.0707,-3.9952,-3.9677,-3.9677,-3.9379,-3.9272,-3.9272,-3.9272,-3.9272,-3.9272,-3.9272,-3.9272,-3.8945,-3.7633,-3.6467,-3.5126,-3.3437,-3.2163,-3.1161,-3.0687,-3.0568,-3.0568,-3.0568,-3.0568,-3.0387,-2.9665,-2.9135,-2.8403,-2.7095,-2.6496,-2.6013,-2.5382,-2.5312,-2.5312,-2.5312,-2.5312,-2.5312,-2.5312,-2.5312,-2.5312,-2.5241,-2.4992,-2.4718,-2.4502,-2.3717,-2.2809,-2.1907,-2.1145,-2.0391,-1.9557,-1.939,-1.9301,-1.9301,-1.9301,-1.9301,-1.9301,-1.9301,-1.9222,-3.5667,-3.5718,-3.5718,-3.5736,-3.5771,-3.5807,-3.5717,-3.5713,0.0,0.0,-3.5679,-3.5699,-3.5706,-3.5698,-3.5979,-3.6806,0.0,0.0,0.0,0.0,-4.1196,0.0,0.0,0.0,0.0,0.0,0.0,0.0,-4.6913,-4.6913,-4.6913,-4.6839,-4.6436,-4.5648,-4.5211,-4.4819,-4.4383,-4.4162,-4.3892,-4.3497,-4.3497,-4.3497,-4.3479,-4.3322,-4.3214,-4.3196,-4.3013,-4.2938,-4.2882,-4.2882,-4.2634,-4.2157,-4.1656,-4.123,-4.0707,-3.9952,-3.9677,-3.9677,-3.9379,-3.9272,-3.9272,-3.9272,-3.9272,-3.9272,-3.9272,-3.9094,-3.8641,-3.7595,-3.6318,-3.4892,-3.341,-3.2163,-3.1161,-3.0687,-3.0568,-3.0568,-3.0568,-3.0568,-3.0251,-2.9121,-2.8853,-2.8274,-2.6633,-2.6233,-2.6013,-2.5382,-2.5312,-2.5312,-2.5312,-2.5312,-2.5312,-2.5312,-2.5312,-2.5182,-2.4921,-2.4861,-2.4273,-2.315,-2.2927,-2.2155,-2.0615,-2.0391,-2.0001,-1.9381,-1.9301,-1.9301,-1.9301,-1.9301,-1.9301,-1.9301,-1.9301,-1.8895,-3.5528,-3.5601,-3.5657,-3.5659,-3.5698,-3.5727,-3.5659,0.0,0.0,0.0,-3.5657,-3.5667,-3.5687,0.0,0.0,0.0,0.0,0.0,0.0,0.0,0.0,0.0,0.0,0.0,0.0,0.0,-4.6123,-4.7432,-4.6721,-4.6413,-4.6894,-4.6378,-4.588,-4.54,-4.5218,-4.4887,-4.4383,-4.426,-4.3968,-4.3497,-4.3497,-4.3497,-4.3497,-4.3393,-4.3322,-4.3196,-4.3087,-4.3013,-4.2882,-4.2882,-4.2634,-4.2157,-4.1656,-4.123,-4.0707,-3.9952,-3.9677,-3.9677,-3.9379,-3.9272,-3.9272,-3.9272,-3.9272,-3.9272,-3.9272,-3.883,-3.803,-3.6793,-3.5355,-3.3934,-3.2488,-3.15,-3.0866,-3.0628,-3.0568,-3.0568,-3.0568,-3.0462,-3.0021,-2.8994,-2.8403,-2.7736,-2.6427,-2.5943,-2.5664,-2.5312,-2.5312,-2.5312,-2.5312,-2.5312,-2.5312,-2.5312,-2.5312,-2.5182,-2.4861,-2.4334,-2.3655,-2.2777,-2.1852,-2.1011,-2.0235,-1.9932,-1.9618,-1.9301,-1.9301,-1.9301,-1.9301,-1.9301,-1.9301,-1.9301,-1.8807,-1.8407,-3.5398,-3.5476,-3.5558,-3.5577,-3.5609,-3.5629,-3.5604,-3.5581,0.0,0.0,-3.5591,-3.5628,-3.5697,0.0,0.0,0.0,0.0,0.0,0.0,0.0,0.0,0.0,0.0,0.0,0.0,0.0,0.0,-4.7663,-4.6778,-4.6278,-4.6587,-4.586,-4.5419,-4.54,-4.536,-4.5023,-4.443,-4.4383,-4.4114,-4.3497,-4.3497,-4.3497,-4.3497,-4.3497,-4.3393,-4.3214,-4.3178,-4.305,-4.2882,-4.2882,-4.2634,-4.2157,-4.1656,-4.123,-4.0707,-3.9952,-3.9677,-3.9677,-3.9379,-3.9272,-3.9255,-3.9106,-3.9156,-3.9239,-3.909,-3.8414,-3.7383,-3.5937,-3.4446,-3.3043,-3.179,-3.1043,-3.0568,-3.0568,-3.0568,-3.0568,-3.0522,-3.0294,-2.9789,-2.8739,-2.7947,-2.7149,-2.6151,-2.5594,-2.5312,-2.5312,-2.5312,-2.5312,-2.5312,-2.5312,-2.5241,-2.5182,-2.5182,-2.5052,-2.4718,-2.3728,-2.2968,-2.2392,-2.1011,-2.0157,-2.0001,-1.9539,-1.9301,-1.9301,-1.9301,-1.9301,-1.9301,-1.9301,-1.9301,-1.9301,-1.8407,-1.7917,-3.5383,-3.5412,-3.5422,-3.5483,-3.5509,-3.5515,-3.5515,0.0,0.0,-3.5579,-3.5591,-3.5628,-3.5697,-3.5646,0.0,0.0,0.0,0.0,0.0,0.0,0.0,0.0,0.0,0.0,0.0,0.0,-4.512,-4.6874,-4.7548,-4.7202,-4.5705,-4.5607,-4.5533,-4.5399,-4.54,-4.5074,-4.443,-4.4383,-4.4114,-4.3497,-4.3497,-4.3497,-4.3497,-4.3446,-4.334,-4.3214,-4.3123,-4.3049,-4.2882,-4.2882,-4.2634,-4.2157,-4.1656,-4.123,-4.0707,-3.9952,-3.9677,-3.9677,-3.9379,-3.9272,-3.9172,-3.8526,-3.8742,-3.9156,-3.851,-3.7843,-3.7053,-3.5639,-3.4156,-3.2844,-3.2046,-3.1263,-3.0568,-3.0568,-3.0568,-3.0522,-3.0233,-3.0111,-2.9588,-2.7934,-2.7537,-2.7069,-2.5652,-2.5312,-2.5312,-2.5312,-2.5312,-2.5312,-2.5312,-2.5312,-2.5182,-2.4861,-2.4861,-2.4718,-2.4273,-2.3298,-2.2317,-2.1395,-2.0624,-1.9932,-1.9381,-1.9301,-1.9301,-1.9301,-1.9301,-1.9301,-1.9301,-1.9301,-1.9301,-1.9301,-1.8407,-1.7594,-3.5324,-3.5369,-3.5412,-3.5374,-3.5435,-3.5501,-3.5507,0.0,-3.552,-3.5579,-3.5591,-3.5604,-3.562,-3.5631,-3.5581,0.0,0.0,0.0,0.0,0.0,0.0,0.0,0.0,0.0,0.0,0.0,-4.3574,-4.5201,-4.6124,-4.6297,-4.5607,-4.555,-4.5514,-4.54,-4.54,-4.509,-4.443,-4.4383,-4.4114,-4.3497,-4.3497,-4.3497,-4.3497,-4.3463,-4.3411,-4.3305,-4.3233,-4.3123,-4.2994,-4.2938,-4.2634,-4.2157,-4.1656,-4.123,-4.0707,-3.9952,-3.9677,-3.961,-3.888,-3.8642,-3.8526,-3.7781,-3.7748,-3.7914,-3.7632,-3.6842,-3.5829,-3.5021,-3.3576,-3.2213,-3.1685,-3.1102,-3.0568,-3.0568,-3.0462,-3.0294,-3.0111,-2.9526,-2.8739,-2.7683,-2.7082,-2.6414,-2.5441,-2.5312,-2.5312,-2.5312,-2.5312,-2.5241,-2.5052,-2.4981,-2.4849,-2.449,-2.4646,-2.4418,-2.3372,-2.2521,-2.168,-2.0624,-2.0001,-1.9539,-1.9301,-1.9301,-1.9301,-1.9301,-1.9301,-1.9301,-1.9301,-1.9301,-1.9054,-1.8487,-1.7585,-1.669,-3.5312,-3.5339,-3.5364,-3.535,-3.5412,-3.5493,0.0,0.0,-3.5515,-3.5579,-3.5566,-3.5547,-3.5584,-3.5528,-3.5477,0.0,0.0,-3.5977,0.0,0.0,0.0,0.0,0.0,-4.081,0.0,-4.1921,-4.263,-4.3489,-4.4816,-4.549,-4.522,-4.5323,-4.5419,-4.54,-4.532,-4.5,-4.443,-4.4318,-4.4011,-4.3497,-4.3497,-4.3497,-4.3497,-4.3497,-4.3463,-4.3394,-4.3251,-4.3142,-4.3104,-4.2956,-4.2634,-4.2157,-4.1656,-4.1091,-4.038,-3.9632,-3.9225,-3.8957,-3.8166,-3.788,-3.7765,-3.7019,-3.6771,-3.6738,-3.6422,-3.5773,-3.5017,-3.4271,-3.2927,-3.161,-3.1219,-3.0866,-3.0568,-3.0568,-3.0341,-3.005,-2.9789,-2.9008,-2.8091,-2.7284,-2.662,-2.6013,-2.5382,-2.5312,-2.5312,-2.5312,-2.5312,-2.5182,-2.4861,-2.479,-2.4574,-2.4043,-2.4273,-2.397,-2.2777,-2.1983,-2.1145,-2.0235,-1.9608,-1.9301,-1.9301,-1.9301,-1.9301,-1.9301,-1.9301,-1.9301,-1.9301,-1.9301,-1.8816,-1.7997,-1.7107,-1.5959,-3.5312,-3.5304,-3.5315,-3.5379,-3.5412,-3.5412,0.0,0.0,-3.5515,-3.5591,-3.5495,-3.5435,-3.5577,-3.5388,-3.5254,-3.5378,0.0,0.0,0.0,0.0,0.0,0.0,0.0,0.0,-4.0523,-4.2066,-4.2739,-4.1893,-4.4162,-4.522,-4.4355,-4.4882,-4.5263,-4.54,-4.514,-4.48,-4.4383,-4.4151,-4.3828,-4.3497,-4.3497,-4.3497,-4.3497,-4.3497,-4.3463,-4.3394,-4.3251,-4.3142,-4.3104,-4.2956,-4.2634,-4.2157,-4.1656,-4.0777,-3.9623,-3.8889,-3.8137,-3.7452,-3.7219,-3.7119,-3.7003,-3.6257,-3.6009,-3.5827,-3.4841,-3.4821,-3.4904,-3.3419,-3.2201,-3.1234,-3.0747,-3.0568,-3.0568,-3.0568,-3.0341,-2.9851,-2.8994,-2.8546,-2.7894,-2.6496,-2.6233,-2.6013,-2.5382,-2.5312,-2.5312,-2.5312,-2.5312,-2.5182,-2.4861,-2.479,-2.449,-2.3677,-2.3593,-2.3372,-2.2777,-2.1776,-2.0934,-2.0235,-1.9608,-1.9301,-1.9301,-1.9301,-1.9301,-1.9301,-1.9301,-1.9301,-1.9301,-1.9301,-1.8816,-1.7997,-1.7107,-1.5628,-3.5088,-3.5239,-3.5364,-3.5379,-3.5427,-3.546,-3.5493,0.0,-3.5364,-3.5393,-3.5285,-3.5223,-3.5315,-3.5254,-3.5207,-3.527,-3.5266,0.0,0.0,0.0,0.0,0.0,0.0,-4.0534,0.0,0.0,-4.145,-4.1777,-4.237,-4.2871,-4.3197,-4.3266,-4.3869,-4.5163,-4.4872,-4.4565,-4.4192,-4.4079,-4.3846,-4.3497,-4.3497,-4.3497,-4.3497,-4.3497,-4.3497,-4.3463,-4.3376,-4.294,-4.2358,-4.225,-4.1555,-4.0495,-4.0087,-3.9478,-3.8786,-3.8113,-3.7685,-3.7417,-3.6622,-3.6357,-3.6224,-3.5479,-3.5247,-3.5101,-3.4415,-3.4313,-3.4121,-3.2633,-3.1766,-3.1161,-3.0687,-3.0568,-3.0568,-3.0568,-3.0158,-2.9602,-2.8931,-2.8091,-2.7162,-2.6358,-2.5873,-2.5523,-2.53,-2.5312,-2.5312,-2.5312,-2.5123,-2.4849,-2.4418,-2.4116,-2.3751,-2.3224,-2.2852,-2.2317,-2.17,-2.1395,-2.0779,-1.9608,-1.9381,-1.9301,-1.9301,-1.9301,-1.9301,-1.9301,-1.9301,-1.9301,-1.9301,-1.9301,-1.8479,-1.6854,-1.5206,-1.4055,0.0,-3.5051,-3.5207,-3.5207,-3.5242,0.0,0.0,0.0,-3.519,-3.5219,-3.5122,-3.5053,-3.5193,-3.5141,-3.5107,-3.5193,-3.5254,0.0,0.0,0.0,0.0,0.0,0.0,0.0,0.0,-4.0372,-4.0496,-4.1159,-4.1246,-4.1509,-4.2082,-4.2189,-4.2782,-4.3881,-4.3957,-4.3849,-4.3644,-4.3743,-4.3716,-4.3497,-4.3497,-4.3497,-4.3479,-4.3185,-4.3039,-4.302,-4.2589,-4.2099,0.0,-4.1414,-4.0744,-3.9747,-3.9347,-3.8729,-3.7933,-3.732,-3.6898,-3.6484,-3.5841,-3.5578,-3.5512,-3.5048,-3.4739,-3.4497,-3.4101,-3.361,-3.3071,-3.2145,-3.1495,-3.0984,-3.0687,-3.0568,-3.0582,-3.0462,-2.9974,-2.9338,-2.8468,-2.7617,-2.6756,-2.6013,-2.5594,-2.5312,-2.5312,-2.5312,-2.5312,-2.5312,-2.4981,-2.4646,-2.4273,-2.3824,-2.3446,-2.3075,-2.2478,-2.1873,-2.1242,-2.0934,-2.0391,-1.9381,-1.9301,-1.9301,-1.9301,-1.9301,-1.9301,-1.9301,-1.9301,-1.9134,-1.8816,-1.8069,-1.7009,-1.5696,-1.4139,-1.3313,0.0,-3.4831,-3.4889,-3.4908,-3.4889,-3.4908,0.0,0.0,0.0,0.0,-3.4963,-3.4945,-3.5141,-3.5037,-3.4964,-3.5176,-3.5254,0.0,0.0,0.0,0.0,0.0,-4.0358,0.0,-4.0543,-4.0101,-3.9882,-4.0158,-4.0682,-4.0988,-4.0988,-4.1512,-4.1792,-4.1792,-4.238,-4.2733,-4.2776,-4.3162,-4.3314,-4.3314,-4.3314,-4.3314,-4.3296,-4.2561,-4.2213,-4.2176,-4.1204,-4.0789,-4.07,-4.0508,-4.0148,-3.9626,-3.9188,-3.8293,-3.7127,-3.6544,-3.5813,-3.5088,-3.4947,-3.4899,-3.4899,-3.4899,-3.4497,-3.405,-3.3745,-3.2819,-3.1879,-3.1879,-3.1248,-3.0568,-3.0568,-3.0568,-3.0522,-3.0172,-2.9865,-2.9212,-2.7802,-2.7229,-2.6688,-2.5511,-2.5312,-2.5312,-2.5312,-2.5312,-2.5312,-2.5312,-2.4981,-2.4646,-2.4273,-2.3824,-2.3446,-2.3075,-2.2402,-2.1787,-2.1242,-2.0624,-1.9923,-1.9301,-1.9301,-1.9301,-1.9301,-1.9301,-1.9301,-1.9301,-1.9222,-1.8807,-1.7917,-1.5944,-1.4873,-1.4622,-1.3802,-1.3307,-3.4298,0.0,-3.4831,-3.4908,-3.4889,-3.4907,0.0,0.0,0.0,0.0,0.0,-3.473,-3.4926,-3.4926,-3.4964,-3.5176,-3.5254,-3.5541,0.0,0.0,0.0,0.0,-4.0321,-4.0233,-4.0286,-3.9983,-3.9819,-3.9901,-3.9872,-3.9881,-3.9881,-3.9818,-3.9769,-3.9769,-4.0428,-4.1063,-4.1662,-4.1682,-4.1662,-4.1662,-4.1662,-4.1662,-4.1662,-4.1479,-4.1387,-4.1354,-4.1071,-4.0547,-3.9878,-3.9795,-3.9295,-3.8491,-3.7718,-3.7241,-3.6841,-3.5921,-3.5442,-3.5198,-3.4994,-3.4899,-3.4851,-3.4643,-3.4349,-3.3984,-3.3335,-3.2571,-3.1879,-3.1879,-3.1248,-3.0568,-3.0568,-3.0568,-3.0522,-3.0172,-2.9865,-2.9212,-2.7802,-2.7229,-2.6688,-2.5511,-2.5312,-2.5312,-2.5312,-2.5312,-2.5312,-2.5312,-2.4754,-2.4345,-2.42,-2.3593,-2.3075,-2.3001,-2.209,-2.1318,-2.1242,-2.0624,-1.9923,-1.9301,-1.9301,-1.9301,-1.9301,-1.9301,-1.9301,-1.9301,-1.8479,-1.7827,-1.7196,-1.5613,-1.4699,-1.4448,-1.3548,-1.3052,-3.4148,-3.4367,-3.4545,-3.4567,-3.4591,-3.4634,0.0,0.0,0.0,0.0,0.0,0.0,-3.487,0.0,0.0,-3.5176,-3.5515,0.0,0.0,0.0,0.0,0.0,-4.0002,-3.992,0.0,-3.9687,-3.9519,-3.966,-3.9458,-3.9324,-3.9324,-3.9165,-3.9101,-3.9101,-3.9433,-3.9974,-4.0738,-4.0974,-4.1111,-4.1111,-4.1111,-4.1111,-4.1093,-4.0726,-4.0561,-4.0524,-4.001,-3.9524,-3.9039,-3.8925,-3.8502,-3.781,-3.715,-3.6741,-3.6416,-3.5622,-3.5245,-3.5198,-3.4994,-3.4899,-3.4851,-3.4448,-3.4201,-3.3933,-3.3055,-3.2367,-3.1879,-3.1667,-3.1146,-3.0568,-3.0568,-3.0568,-3.0462,-2.9988,-2.9526,-2.8867,-2.755,-2.696,-2.6358,-2.5441,-2.5312,-2.5312,-2.5312,-2.5182,-2.5052,-2.5052,-2.4406,-2.3897,-2.3897,-2.315,-2.2553,-2.2553,-2.1471,-2.0702,-2.0702,-2.0157,-1.9618,-1.9301,-1.9301,-1.9301,-1.9301,-1.9152,-1.8745,-1.8247,-1.7261,-1.6437,-1.5779,-1.4538,-1.388,-1.362,-1.3124,-1.2881,-3.4005,-3.4099,-3.4124,-3.4197,-3.4269,-3.434,0.0,0.0,0.0,0.0,0.0,0.0,0.0,0.0,0.0,0.0,0.0,0.0,0.0,0.0,0.0,-3.9819,-3.9632,0.0,-3.975,-3.9364,-3.9192,-3.9408,-3.9219,-3.9101,-3.9101,-3.9101,-3.9101,-3.9101,-3.9036,-3.9283,-3.9907,-4.0473,-4.0744,-4.0744,-4.0744,-4.0744,-4.0726,-4.0029,-3.9717,-3.968,-3.8789,-3.8382,-3.8382,-3.8274,-3.7915,-3.7469,-3.7055,-3.658,-3.6071,-3.5549,-3.5245,-3.5105,-3.4947,-3.4899,-3.4787,-3.425,-3.4101,-3.3882,-3.2803,-3.2201,-3.1823,-3.1336,-3.0925,-3.0568,-3.0568,-3.0582,-3.0401,-2.9727,-2.9135,-2.8403,-2.7229,-2.6564,-2.6013,-2.5453,-2.5312,-2.5312,-2.5241,-2.4992,-2.479,-2.4718,-2.4043,-2.3593,-2.3446,-2.2703,-2.2025,-2.1949,-2.0944,-2.0167,-2.0167,-1.9618,-1.9301,-1.9301,-1.9301,-1.9301,-1.9222,-1.8763,-1.8031,-1.696,-1.5951,-1.5115,-1.4287,-1.3464,-1.2875,-1.2705,-1.2705,-1.2705,-3.3437,-3.355,-3.3807,-3.4197,-3.4381,-3.4473,0.0,0.0,0.0,0.0,0.0,0.0,0.0,0.0,0.0,0.0,0.0,0.0,0.0,0.0,-3.9656,-3.9775,0.0,-3.9508,-3.9556,-3.9272,-3.9129,-3.9156,-3.9129,-3.9101,-3.9101,-3.9101,-3.9101,-3.9101,-3.9036,-3.9024,-3.9076,-3.9135,-3.9118,-3.9074,-3.9074,-3.9074,-3.9074,-3.8946,-3.8891,-3.8872,-3.8551,-3.8382,-3.8382,-3.8274,-3.7915,-3.7469,-3.7055,-3.6638,-3.6216,-3.5656,-3.5383,-3.5245,-3.4994,-3.4899,-3.4787,-3.425,-3.4101,-3.3832,-3.2422,-3.1936,-3.1709,-3.0911,-3.0642,-3.0568,-3.0568,-3.0401,-3.0111,-2.9665,-2.8944,-2.8091,-2.7175,-2.6564,-2.6013,-2.5453,-2.5312,-2.5182,-2.4921,-2.4861,-2.4646,-2.4345,-2.3897,-2.3446,-2.2927,-2.2402,-2.1873,-2.1395,-2.0624,-2.0167,-2.0167,-1.9618,-1.9301,-1.9301,-1.9301,-1.9152,-1.8772,-1.8175,-1.7432,-1.6468,-1.5289,-1.4378,-1.3815,-1.313,-1.2705,-1.2705,-1.2705,-1.2705,-3.3243,-3.3484,-3.3698,-3.3921,-3.4148,0.0,0.0,0.0,0.0,0.0,0.0,0.0,0.0,0.0,0.0,0.0,0.0,-3.7432,-3.8652,-3.9208,-3.9483,0.0,0.0,-3.9272,-3.9272,-3.9165,-3.9101,-3.9101,-3.9101,-3.9101,-3.9101,-3.9101,-3.9101,-3.9101,-3.9073,-3.9036,-3.895,-3.8881,-3.8792,-3.8707,-3.8707,-3.8707,-3.8707,-3.8707,-3.8707,-3.8707,-3.8528,-3.8446,-3.8382,-3.8289,-3.7845,-3.717,-3.6978,-3.6516,-3.5871,-3.5503,-3.5245,-3.5041,-3.4947,-3.4804,-3.4594,-3.425,-3.4,-3.3626,-3.2312,-3.1879,-3.1709,-3.0866,-3.0568,-3.0582,-3.0401,-3.0233,-2.9927,-2.9085,-2.8352,-2.7617,-2.6769,-2.6151,-2.5664,-2.5382,-2.5312,-2.5241,-2.5123,-2.4778,-2.4418,-2.42,-2.3666,-2.3075,-2.2478,-2.1939,-2.1395,-2.0702,-2.0079,-1.9696,-1.9696,-1.946,-1.9222,-1.9002,-1.9002,-1.8514,-1.7465,-1.7123,-1.6378,-1.4977,-1.4307,-1.3717,-1.313,-1.2875,-1.2705,-1.2705,-1.2705,-1.2705,-3.3019,-3.3309,-3.3512,-3.3569,0.0,0.0,0.0,0.0,0.0,0.0,0.0,0.0,0.0,0.0,0.0,0.0,-3.7007,-3.7716,-3.8832,-3.9219,-3.9324,-3.911,-3.9101,-3.9101,-3.9101,-3.9101,-3.9101,-3.9101,-3.9101,-3.9101,-3.9101,-3.9101,-3.9101,-3.9101,-3.9101,-3.9073,-3.8979,-3.8921,-3.8851,-3.8719,-3.8707,-3.8707,-3.8707,-3.8707,-3.8707,-3.8707,-3.8559,-3.8478,-3.8382,-3.8322,-3.7756,-3.69,-3.69,-3.635,-3.5532,-3.5383,-3.5152,-3.4947,-3.4899,-3.4756,-3.4546,-3.4201,-3.3949,-3.3575,-3.2256,-3.1879,-3.1709,-3.0866,-3.0522,-3.0401,-3.0172,-2.9988,-2.9665,-2.8688,-2.7894,-2.7217,-2.6564,-2.5804,-2.5312,-2.5312,-2.5312,-2.5312,-2.5182,-2.4622,-2.42,-2.4043,-2.3298,-2.2553,-2.1949,-2.1318,-2.0702,-2.0089,-1.9618,-1.9301,-1.9301,-1.9301,-1.9073,-1.8531,-1.862,-1.804,-1.6476,-1.6229,-1.5394,-1.3737,-1.3568,-1.3222,-1.2705,-1.2705,-1.2705,-1.2705,-1.2705,-1.2705,-3.2457,-3.2707,-3.2993,-3.3202,0.0,0.0,0.0,0.0,0.0,0.0,0.0,0.0,0.0,0.0,0.0,0.0,-3.7119,-3.797,-3.8868,0.0,-3.9129,-3.9101,-3.9101,-3.9101,-3.9101,-3.9101,-3.9101,-3.9101,-3.9101,-3.9101,-3.9101,-3.9101,-3.9101,-3.9101,-3.9101,-3.9073,-3.8979,-3.8921,-3.8862,-3.8792,-3.8719,-3.8707,-3.8707,-3.8707,-3.8707,-3.8707,-3.8559,-3.8478,-3.8382,-3.8322,-3.7756,-3.69,-3.69,-3.6308,-3.5492,-3.5337,-3.5198,-3.5041,-3.4947,-3.4899,-3.4804,-3.425,-3.4101,-3.3781,-3.2367,-3.1879,-3.1709,-3.0866,-3.0401,-3.0111,-3.0111,-2.9665,-2.9162,-2.9035,-2.8026,-2.704,-2.6973,-2.607,-2.5312,-2.5312,-2.5312,-2.5182,-2.4861,-2.449,-2.4043,-2.3666,-2.2777,-2.1949,-2.1318,-2.0702,-2.001,-1.946,-1.9301,-1.9301,-1.9301,-1.9301,-1.8904,-1.8121,-1.8451,-1.804,-1.6476,-1.5809,-1.4894,-1.3737,-1.313,-1.279,-1.2705,-1.2705,-1.2705,-1.2705,-1.2705,-1.2705,-3.2489,-3.2722,-3.2948,-3.3099,0.0,0.0,0.0,0.0,0.0,0.0,0.0,0.0,0.0,0.0,0.0,-3.6857,-3.7393,-3.7929,-3.8828,-3.9007,-3.9045,-3.9101,-3.9101,-3.9101,-3.9101,-3.9101,-3.9101,-3.9101,-3.9101,-3.9101,-3.9101,-3.9101,-3.9101,-3.9101,-3.9101,-3.9073,-3.9045,-3.9007,-3.8921,-3.8881,-3.875,-3.8707,-3.8707,-3.8707,-3.8707,-3.8707,-3.8658,-3.8528,-3.8382,-3.8368,-3.7774,-3.686,-3.6291,-3.5783,-3.5354,-3.5291,-3.5152,-3.4947,-3.4899,-3.4691,-3.4349,-3.4151,-3.3662,-3.3018,-3.2145,-3.1724,-3.1379,-3.0747,-3.0219,-2.9803,-2.9803,-2.9477,-2.8894,-2.8026,-2.7377,-2.6837,-2.607,-2.5581,-2.5312,-2.5312,-2.5312,-2.5182,-2.4861,-2.449,-2.4043,-2.3677,-2.2777,-2.1873,-2.1242,-2.0624,-2.001,-1.9381,-1.9301,-1.9231,-1.8922,-1.8922,-1.8353,-1.7049,-1.7375,-1.696,-1.5401,-1.4734,-1.3977,-1.313,-1.279,-1.2705,-1.2705,-1.2705,-1.2705,-1.2705,-1.2705,-1.2357,-3.2639,-3.2834,-3.2979,0.0,0.0,0.0,0.0,0.0,0.0,0.0,0.0,0.0,0.0,0.0,0.0,0.0,-3.7787,-3.8195,-3.8818,-3.8968,-3.9036,-3.9101,-3.9101,-3.9101,-3.9101,-3.9101,-3.9101,-3.9101,-3.9101,-3.9101,-3.9101,-3.9101,-3.9101,-3.9101,-3.9101,-3.9101,-3.9101,-3.9036,-3.8968,-3.891,-3.878,-3.8719,-3.8707,-3.8707,-3.8707,-3.8707,-3.8658,-3.8465,-3.8201,-3.8186,-3.7614,-3.6638,-3.5898,-3.5458,-3.5291,-3.5291,-3.5135,-3.4899,-3.4899,-3.4594,-3.4201,-3.4151,-3.3507,-3.2641,-3.2104,-3.161,-3.1161,-3.0568,-3.0036,-2.9602,-2.9477,-2.9162,-2.8638,-2.751,-2.7108,-2.6769,-2.5804,-2.5453,-2.5241,-2.5182,-2.5111,-2.5052,-2.4634,-2.4273,-2.3897,-2.3666,-2.2542,-2.1634,-2.1242,-2.0469,-1.9775,-1.9301,-1.9152,-1.9002,-1.8692,-1.8371,-1.7627,-1.6476,-1.6296,-1.5628,-1.4398,-1.3899,-1.3392,-1.2705,-1.2705,-1.2705,-1.2705,-1.2705,-1.2705,-1.2705,-1.2363,-1.1929,-3.287,-3.3011,0.0,0.0,0.0,0.0,0.0,0.0,0.0,0.0,0.0,0.0,0.0,0.0,0.0,-3.7526,-3.8247,-3.8822,-3.891,-3.8968,-3.9036,-3.9101,-3.9101,-3.9101,-3.9101,-3.9101,-3.9101,-3.9101,-3.9082,-3.9082,-3.9082,-3.9082,-3.9082,-3.9082,-3.9082,-3.9082,-3.9064,-3.9017,-3.8931,-3.8873,-3.8785,-3.8762,-3.8707,-3.8707,-3.8707,-3.8707,-3.8559,-3.8216,-3.7791,-3.7721,-3.715,-3.6259,-3.5783,-3.5458,-3.5291,-3.5291,-3.5135,-3.4899,-3.4899,-3.4691,-3.4448,-3.4201,-3.3594,-3.2826,-3.2145,-3.161,-3.1102,-3.0355,-2.9865,-2.954,-2.9162,-2.8844,-2.8457,-2.7908,-2.7377,-2.6837,-2.6289,-2.5734,-2.5182,-2.4861,-2.479,-2.4646,-2.4273,-2.3897,-2.3593,-2.3593,-2.2231,-2.1165,-2.1165,-2.0079,-1.9301,-1.9301,-1.8922,-1.87,-1.87,-1.7619,-1.6796,-1.6394,-1.5123,-1.421,-1.3737,-1.3652,-1.3392,-1.2705,-1.2705,-1.2705,-1.2705,-1.2705,-1.2705,-1.2619,-1.1757,-1.1322,-3.3621,-3.3373,0.0,0.0,0.0,0.0,0.0,0.0,0.0,0.0,0.0,0.0,0.0,0.0,0.0,-3.8248,-3.8573,-3.875,-3.8822,-3.8881,-3.8921,-3.895,-3.9007,-3.9036,-3.9036,-3.9036,-3.9064,-3.9101,-3.8581,-3.8265,-3.8265,-3.7708,-3.7411,-3.7411,-3.7411,-3.7312,-3.7063,-3.6996,-3.6927,-3.6868,-3.6778,-3.743,-3.8707,-3.8707,-3.8564,-3.8285,-3.8252,-3.7895,-3.7323,-3.6917,-3.6533,-3.6259,-3.5783,-3.5458,-3.5291,-3.5291,-3.5135,-3.4899,-3.4899,-3.4594,-3.4201,-3.4151,-3.323,-3.2201,-3.1992,-3.1379,-3.0702,-3.0233,-2.9865,-2.954,-2.9162,-2.8844,-2.8392,-2.7443,-2.7108,-2.6769,-2.5791,-2.5453,-2.5182,-2.4861,-2.479,-2.4574,-2.3897,-2.3677,-2.3519,-2.3224,-2.208,-2.0857,-2.0001,-1.9529,-1.9222,-1.8922,-1.8772,-1.8451,-1.7806,-1.7049,-1.6139,-1.5235,-1.4391,-1.3808,-1.3737,-1.3222,-1.2875,-1.2705,-1.2705,-1.2705,-1.2705,-1.2705,-1.2357,-1.1671,-1.1311,-1.0356,-3.3749,0.0,0.0,0.0,0.0,0.0,0.0,0.0,0.0,0.0,0.0,0.0,-3.7826,-3.7973,0.0,-3.8615,-3.8707,-3.8719,-3.8792,-3.8851,-3.8881,-3.891,-3.8939,-3.895,-3.895,-3.8979,-3.8877,-3.86,-3.8145,-3.7764,-3.7429,-3.6946,-3.6686,-3.6686,-3.6535,-3.6362,-3.6146,-3.5951,-3.5817,-3.5774,-3.5711,-3.6268,-3.7289,-3.7434,-3.7321,-3.6924,-3.6753,-3.6594,-3.6387,-3.5877,-3.5788,-3.6002,-3.5694,-3.5458,-3.5291,-3.5291,-3.5135,-3.4899,-3.4804,-3.4333,-3.3799,-3.3713,-3.2734,-3.1667,-3.1667,-3.1146,-3.0507,-3.0036,-2.9741,-2.9477,-2.9035,-2.8587,-2.8052,-2.7175,-2.6973,-2.6701,-2.5523,-2.5182,-2.4981,-2.4634,-2.4418,-2.4116,-2.3446,-2.3372,-2.3224,-2.2703,-2.1624,-2.0391,-1.9231,-1.9073,-1.8922,-1.8451,-1.829,-1.7968,-1.7473,-1.6394,-1.5401,-1.4734,-1.3808,-1.3307,-1.3307,-1.2875,-1.2705,-1.2705,-1.2705,-1.2705,-1.2705,-1.2705,-1.2186,-1.1144,-1.0702,-0.957,0.0,0.0,0.0,0.0,0.0,0.0,0.0,0.0,0.0,0.0,0.0,0.0,-3.853,-3.8707,-3.8707,-3.8707,-3.8707,-3.8719,-3.8792,-3.8792,-3.8822,-3.8881,-3.8881,-3.891,-3.891,-3.8968,-3.8645,-3.785,-3.7784,-3.7429,-3.663,-3.6519,-3.6463,-3.6437,-3.6057,-3.5857,-3.578,-3.5426,-3.5202,-3.5106,-3.5106,-3.5055,-3.497,-3.5425,-3.5465,-3.5098,-3.4619,-3.4718,-3.514,-3.4721,-3.4914,-3.5436,-3.5442,-3.5357,-3.5207,-3.5274,-3.5105,-3.4851,-3.4594,-3.4002,-3.3339,-3.3093,-3.2241,-3.1278,-3.1278,-3.0925,-3.0387,-2.9789,-2.9602,-2.9415,-2.8716,-2.8183,-2.7643,-2.704,-2.6905,-2.662,-2.5523,-2.5052,-2.4646,-2.4273,-2.3897,-2.3446,-2.3075,-2.2927,-2.2703,-2.2025,-2.0944,-1.9775,-1.8851,-1.87,-1.8451,-1.7959,-1.7635,-1.7392,-1.7229,-1.565,-1.465,-1.465,-1.3379,-1.2705,-1.2705,-1.2705,-1.2705,-1.2705,-1.2705,-1.2705,-1.2619,-1.2528,-1.1918,-1.0783,-0.9836,-0.8794,0.0,0.0,0.0,0.0,0.0,0.0,0.0,0.0,0.0,0.0,0.0,-3.8456,-3.867,-3.8707,-3.8707,-3.8707,-3.8707,-3.8707,-3.8719,-3.878,-3.8792,-3.875,-3.8792,-3.8822,-3.8822,-3.8851,-3.853,-3.785,-3.7229,-3.656,-3.5795,-3.5107,-3.4574,-3.4293,-3.4284,-3.3975,-3.338,-3.3283,-3.3166,-3.3048,-3.2998,-3.2948,-3.2983,-3.4579,-3.5064,-3.4637,-3.4125,-3.3928,-3.3936,-3.3786,-3.3744,-3.3947,-3.4401,-3.4538,-3.4476,-3.4981,-3.5041,-3.4851,-3.4594,-3.4002,-3.3339,-3.3093,-3.2241,-3.1278,-3.1278,-3.0821,-3.0111,-2.9727,-2.9415,-2.9035,-2.8183,-2.7908,-2.7577,-2.6633,-2.6358,-2.6151,-2.5453,-2.5052,-2.4646,-2.4273,-2.3897,-2.3446,-2.3075,-2.2628,-2.1939,-2.0779,-2.0079,-1.946,-1.8772,-1.8371,-1.7959,-1.7554,-1.7473,-1.7066,-1.6147,-1.5235,-1.4489,-1.3984,-1.313,-1.2705,-1.2705,-1.2705,-1.2705,-1.2705,-1.2705,-1.2528,-1.2186,-1.1655,-1.0702,-0.9323,-0.836,-0.7401,0.0,0.0,0.0,0.0,0.0,0.0,0.0,0.0,0.0,0.0,-3.8191,-3.8578,-3.8609,-3.8658,-3.8707,-3.8707,-3.8707,-3.8707,-3.8707,-3.8719,-3.875,-3.8707,-3.8719,-3.875,-3.875,-3.8412,-3.7919,-3.7193,-3.6435,-3.5681,-3.4853,-3.4245,-3.3813,-3.3607,-3.3361,-3.297,-3.2504,-3.2352,-3.2214,-3.2109,-3.2091,-3.2055,-3.2073,-3.3108,-3.344,-3.3202,-3.2823,-3.2866,-3.3128,-3.3022,-3.3143,-3.344,-3.37,-3.3755,-3.369,-3.3951,-3.421,-3.4322,-3.3924,-3.346,-3.3008,-3.261,-3.1807,-3.0984,-3.0984,-3.0582,-3.005,-2.9665,-2.9352,-2.8908,-2.8039,-2.7577,-2.7162,-2.6139,-2.5931,-2.5721,-2.5182,-2.4622,-2.4189,-2.397,-2.3604,-2.315,-2.2628,-2.1787,-2.0934,-2.0079,-1.946,-1.8913,-1.821,-1.7878,-1.7554,-1.7147,-1.6812,-1.6312,-1.5733,-1.4817,-1.4068,-1.3737,-1.3045,-1.2705,-1.2705,-1.2443,-1.2448,-1.2705,-1.2443,-1.2272,-1.2015,-1.1402,-1.0269,-0.8707,-0.8181,-0.7221,0.0,0.0,0.0,0.0,0.0,0.0,0.0,0.0,0.0,0.0,-3.8245,-3.8415,-3.8478,-3.859,-3.8658,-3.8707,-3.8707,-3.8707,-3.8707,-3.8707,-3.8707,-3.8707,-3.8707,-3.8652,-3.8505,-3.7941,-3.7208,-3.627,-3.5615,-3.4884,-3.4035,-3.368,-3.3449,-3.3411,-3.2876,-3.2521,-3.23,-3.202,-3.1875,-3.18,-3.18,-3.18,-3.18,-3.18,-3.18,-3.1746,-3.1634,-3.1863,-3.2383,-3.2281,-3.2574,-3.3051,-3.3077,-3.3,-3.2887,-3.2779,-3.3077,-3.336,-3.2773,-3.2475,-3.2284,-3.1794,-3.1159,-3.0568,-3.0568,-3.0341,-2.9988,-2.9665,-2.9289,-2.8766,-2.7908,-2.7297,-2.6688,-2.5709,-2.5358,-2.5158,-2.4778,-2.4116,-2.3593,-2.3593,-2.3224,-2.2628,-2.1939,-2.0857,-1.9923,-1.9362,-1.8834,-1.821,-1.7473,-1.731,-1.7147,-1.673,-1.6064,-1.565,-1.5567,-1.4405,-1.3646,-1.3561,-1.296,-1.2613,-1.2613,-1.21,-1.21,-1.2443,-1.21,-1.1843,-1.1757,-1.1144,-1.0009,-0.8348,-0.8086,-0.7217,0.0,0.0,0.0,0.0,0.0,0.0,0.0,0.0,0.0,0.0,-3.7831,-3.8415,-3.8478,-3.851,-3.8559,-3.8658,-3.8707,-3.8707,-3.8707,-3.8707,-3.8707,-3.8707,-3.8707,-3.8432,-3.7716,-3.7581,-3.6912,-3.5478,-3.4942,-3.4371,-3.3606,-3.3248,-3.2916,-3.2568,-3.2588,-3.237,-3.1893,-3.1912,-3.1875,-3.18,-3.18,-3.18,-3.18,-3.18,-3.1763,-3.1617,-3.1538,-3.1513,-3.1448,-3.1404,-3.141,-3.1546,-3.2042,-3.2211,-3.2168,-3.2192,-3.215,-3.1966,-3.1205,-3.0926,-3.09,-3.0597,-3.0557,-3.0568,-3.0568,-3.0144,-2.9665,-2.9602,-2.9162,-2.8457,-2.7377,-2.6812,-2.6183,-2.5194,-2.4406,-2.3959,-2.4189,-2.3897,-2.3593,-2.3593,-2.2852,-2.1928,-2.0894,-2.0129,-1.9371,-1.8353,-1.7878,-1.7554,-1.7392,-1.7066,-1.6738,-1.6738,-1.6064,-1.5484,-1.4901,-1.4153,-1.3476,-1.2875,-1.2357,-1.21,-1.21,-1.1666,-1.1408,-1.1499,-1.1408,-1.1149,-1.0809,-0.9488,-0.8528,-0.783,-0.6609,-0.5908,0.0,0.0,0.0,0.0,0.0,0.0,0.0,0.0,0.0,-3.6236,-3.6662,-3.7235,-3.8204,-3.8446,-3.851,-3.859,-3.8658,-3.8707,-3.8707,-3.8707,-3.8707,-3.8707,-3.8303,-3.7881,-3.7544,-3.6652,-3.575,-3.4856,-3.4258,-3.3706,-3.3196,-3.284,-3.2583,-3.2419,-3.2266,-3.2091,-3.18,-3.1875,-3.1875,-3.18,-3.18,-3.18,-3.18,-3.18,-3.1709,-3.1579,-3.1538,-3.1406,-3.1257,-3.0942,-3.0958,-3.1185,-3.1099,-3.099,-3.0938,-3.0826,-3.0838,-3.0816,-3.0185,-3.013,-3.0235,-2.9899,-2.9675,-2.9508,-2.9319,-2.8907,-2.8489,-2.8368,-2.7755,-2.7003,-2.6233,-2.5924,-2.5543,-2.4343,-2.3994,-2.3824,-2.3604,-2.3372,-2.3298,-2.3298,-2.2392,-2.1471,-2.0991,-1.9923,-1.8834,-1.8112,-1.7635,-1.731,-1.7066,-1.682,-1.6566,-1.6154,-1.5567,-1.4901,-1.4237,-1.33,-1.2619,-1.2357,-1.1843,-1.1585,-1.1585,-1.1154,-1.0895,-1.0895,-1.0895,-1.0631,-1.0019,-0.9144,-0.8181,-0.7217,-0.6605,-0.6083,0.0,0.0,0.0,0.0,0.0,0.0,0.0,0.0,-3.4546,0.0,-3.5593,-3.6049,-3.7424,-3.7767,-3.7857,-3.7888,-3.7955,-3.8022,-3.8034,-3.8034,-3.8034,-3.8022,-3.7521,-3.7063,-3.6735,-3.5601,-3.4634,-3.4099,-3.3478,-3.3014,-3.2745,-3.2419,-3.2266,-3.2266,-3.2002,-3.1839,-3.18,-3.1839,-3.1839,-3.18,-3.1671,-3.1671,-3.18,-3.1579,-3.1466,-3.1372,-3.1329,-3.1235,-3.1083,-3.0543,-3.0535,-3.0797,-3.0258,-2.9984,-2.9908,-2.9556,-2.9529,-2.9562,-2.9107,-2.9134,-2.9357,-2.908,-2.8759,-2.8553,-2.8269,-2.7909,-2.7544,-2.7189,-2.6661,-2.5936,-2.5167,-2.4953,-2.4621,-2.3537,-2.3515,-2.3604,-2.3128,-2.3001,-2.3001,-2.3001,-2.1918,-2.1001,-2.0924,-1.946,-1.821,-1.7708,-1.7392,-1.7066,-1.6738,-1.6566,-1.6237,-1.5733,-1.4985,-1.4237,-1.3561,-1.2619,-1.1929,-1.1843,-1.1413,-1.1149,-1.1149,-1.0722,-1.0376,-1.0197,-1.0197,-0.9937,-0.941,-0.8711,-0.7834,-0.6779,-0.6605,-0.6257,0.0,0.0,0.0,0.0,0.0,0.0,0.0,0.0,0.0,-3.4519,-3.4968,-3.5357,-3.5847,-3.6004,-3.6061,-3.6193,-3.6182,-3.6152,-3.6241,-3.6241,-3.6193,-3.6152,-3.6271,-3.5882,-3.4684,-3.4552,-3.4081,-3.2983,-3.2555,-3.2352,-3.2352,-3.202,-3.1819,-3.1819,-3.1819,-3.18,-3.18,-3.18,-3.18,-3.18,-3.1334,-3.1372,-3.1763,-3.0925,-3.0683,-3.0828,-3.0845,-3.0747,-3.0584,-3.0054,-2.9837,-2.9837,-2.9673,-2.954,-2.9361,-2.8779,-2.8334,-2.7959,-2.7452,-2.7548,-2.7835,-2.7781,-2.8006,-2.8197,-2.8197,-2.7778,-2.7248,-2.6769,-2.6356,-2.5798,-2.4524,-2.3869,-2.3479,-2.3013,-2.2673,-2.255,-2.2903,-2.3001,-2.3001,-2.3001,-2.1669,-2.043,-2.0051,-1.8567,-1.731,-1.682,-1.6738,-1.6738,-1.673,-1.6154,-1.5733,-1.5733,-1.4566,-1.3561,-1.3045,-1.2357,-1.1843,-1.1322,-1.0895,-1.0636,-1.0636,-1.0207,-0.9685,-0.8978,-0.8978,-0.8978,-0.889,-0.757,-0.6868,-0.6776,-0.6083,-0.5733,0.0,0.0,0.0,0.0,0.0,0.0,0.0,0.0,-3.279,-3.3077,-3.3407,-3.3684,-3.3849,-3.4979,-3.5921,-3.5964,-3.5994,-3.6024,-3.6024,-3.6054,-3.6024,-3.5994,-3.5597,-3.5159,-3.4761,-3.4045,-3.3368,-3.2844,-3.247,-3.2144,-3.2001,-3.1873,-3.18,-3.18,-3.18,-3.18,-3.18,-3.18,-3.18,-3.18,-3.1334,-3.1145,-3.1206,-3.0625,-3.0335,-3.0218,-2.9919,-2.9892,-3.0038,-2.9572,-2.9483,-2.9645,-2.918,-2.8966,-2.8779,-2.8496,-2.8027,-2.756,-2.7284,-2.7239,-2.7234,-2.7181,-2.7043,-2.6969,-2.6776,-2.6188,-2.5544,-2.5207,-2.4421,-2.3629,-2.3144,-2.275,-2.2564,-2.2863,-2.2811,-2.2657,-2.2446,-2.2703,-2.2767,-2.2134,-2.1201,-2.0265,-1.9432,-1.8256,-1.731,-1.7147,-1.6902,-1.6566,-1.6147,-1.5816,-1.5401,-1.4489,-1.3724,-1.3045,-1.2443,-1.1585,-1.1068,-1.0895,-1.0463,-1.0207,-1.0207,-0.9593,-0.9157,-0.889,-0.8009,-0.757,-0.757,-0.7041,-0.6517,-0.6083,-0.5822,-0.5733,0.0,0.0,0.0,0.0,0.0,0.0,0.0,0.0,-3.2003,-3.2248,-3.2468,-3.2666,-3.2763,-3.4055,-3.506,-3.509,-3.5102,-3.515,-3.5162,-3.5162,-3.5162,-3.5132,-3.4582,-3.4177,-3.4051,-3.3257,-3.2651,-3.2385,-3.2109,-3.1912,-3.1746,-3.1726,-3.1688,-3.1688,-3.1726,-3.1671,-3.1542,-3.1504,-3.1428,-3.1295,-3.0788,-3.0551,-3.0616,-3.0038,-2.9733,-2.9657,-2.9196,-2.9212,-2.9528,-2.9044,-2.8997,-2.9104,-2.8654,-2.8383,-2.8238,-2.8125,-2.7745,-2.7335,-2.7233,-2.7093,-2.6899,-2.6712,-2.6418,-2.6082,-2.5646,-2.5077,-2.4452,-2.3943,-2.316,-2.231,-2.2075,-2.1888,-2.1913,-2.238,-2.2448,-2.2381,-2.1928,-2.2155,-2.2209,-2.1278,-2.0343,-1.9562,-1.8868,-1.7853,-1.7147,-1.7147,-1.673,-1.6237,-1.5733,-1.5144,-1.4475,-1.3561,-1.2875,-1.2186,-1.1585,-1.0982,-1.0549,-1.0376,-1.012,-0.9864,-0.9598,-0.9157,-0.8715,-0.8185,-0.7305,-0.6691,-0.6432,-0.6432,-0.6169,-0.5733,-0.5733,-0.5733,0.0,0.0,0.0,0.0,0.0,0.0,-3.162,0.0,-3.1406,-3.2109,-3.2283,-3.2419,-3.2699,-3.3099,-3.3393,-3.3481,-3.3422,-3.3422,-3.3481,-3.3509,-3.3452,-3.3393,-3.3208,-3.2908,-3.2453,-3.2144,-3.1841,-3.1555,-3.1517,-3.1538,-3.1579,-3.1538,-3.1517,-3.1517,-3.1559,-3.1372,-3.1021,-3.0845,-3.0625,-3.0293,-2.9673,-2.9613,-3.0031,-2.9198,-2.8936,-2.915,-2.8732,-2.8795,-2.9044,-2.8573,-2.8299,-2.8186,-2.8054,-2.7905,-2.779,-2.7625,-2.7423,-2.7181,-2.7181,-2.7026,-2.6727,-2.6404,-2.6096,-2.5729,-2.4908,-2.4452,-2.406,-2.3138,-2.2641,-2.2187,-2.1411,-2.1386,-2.1581,-2.1581,-2.1471,-2.1364,-2.1364,-2.1278,-2.1125,-2.0575,-1.9246,-1.8301,-1.8301,-1.7359,-1.673,-1.673,-1.6147,-1.5733,-1.565,-1.4139,-1.3045,-1.296,-1.1929,-1.1068,-1.0636,-1.0549,-1.0376,-1.0038,-0.9951,-0.9685,-0.889,-0.889,-0.8185,-0.6864,-0.6779,-0.6432,-0.5733,-0.5733,-0.5733,-0.5733,-0.5733,-0.5733,-3.1647,0.0,0.0,0.0,0.0,0.0,-3.1329,-3.1269,-3.1269,-3.1466,-3.1949,-3.2248,-3.2056,-3.2535,-3.2876,-3.2684,-3.3068,-3.3411,-3.3422,-3.316,-3.2988,-3.2988,-3.2716,-3.2486,-3.2419,-3.2039,-3.1787,-3.1841,-3.1562,-3.1406,-3.15,-3.1517,-3.1517,-3.1517,-3.1196,-3.0965,-3.0845,-3.0485,-3.026,-3.0133,-2.9613,-2.9406,-2.9451,-2.8873,-2.8621,-2.8621,-2.8493,-2.8493,-2.8573,-2.8444,-2.825,-2.8054,-2.8005,-2.7855,-2.7625,-2.7488,-2.7335,-2.7181,-2.7093,-2.6937,-2.6674,-2.6014,-2.5632,-2.5245,-2.4439,-2.3754,-2.3258,-2.2969,-2.2211,-2.1336,-2.0582,-2.0995,-2.1371,-2.0634,-2.0946,-2.1048,-1.9894,-1.9413,-1.9088,-1.893,-1.8612,-1.806,-1.7286,-1.6894,-1.673,-1.673,-1.6394,-1.5899,-1.5068,-1.4132,-1.3203,-1.2357,-1.1408,-1.0722,-1.0636,-1.0294,-1.0125,-1.0038,-0.9506,-0.9152,-0.889,-0.7921,-0.7217,-0.6779,-0.6254,-0.5908,-0.5733,-0.5733,-0.5733,-0.5733,-0.5733,-0.5733,0.0,0.0,0.0,0.0,0.0,0.0,-3.119,-3.119,-3.119,-3.119,-3.1657,-3.1967,-3.175,-3.2196,-3.2535,-3.2351,-3.2669,-3.2943,-3.2943,-3.2749,-3.2601,-3.2601,-3.2265,-3.2074,-3.2092,-3.1731,-3.1524,-3.1674,-3.1411,-3.1291,-3.1346,-3.144,-3.1479,-3.1402,-3.0942,-3.0625,-3.0477,-2.9935,-2.9629,-2.9451,-2.9166,-2.8951,-2.8858,-2.8621,-2.8493,-2.8411,-2.8122,-2.8008,-2.8008,-2.771,-2.761,-2.7625,-2.756,-2.724,-2.6759,-2.6669,-2.651,-2.6336,-2.6258,-2.615,-2.592,-2.53,-2.4951,-2.4667,-2.3813,-2.3245,-2.2848,-2.2469,-2.1714,-2.0884,-2.0512,-2.0945,-2.1274,-2.0494,-2.0472,-2.0275,-1.9027,-1.8158,-1.7674,-1.7925,-1.7755,-1.744,-1.6812,-1.673,-1.673,-1.673,-1.6147,-1.5394,-1.4559,-1.3366,-1.2345,-1.1499,-1.0809,-1.0381,-1.0381,-1.0125,-0.9859,-0.9598,-0.9157,-0.8627,-0.8009,-0.7217,-0.6691,-0.6343,-0.5908,-0.5733,-0.5733,-0.5733,-0.5733,-0.5733,-0.5463,-0.5397,0.0,0.0,0.0,0.0,-3.119,0.0,-3.119,-3.119,-3.119,-3.119,-3.1449,-3.1694,-3.1657,-3.1967,-3.2214,-3.2162,-3.2179,-3.2179,-3.2283,-3.2248,-3.2231,-3.2231,-3.1896,-3.164,-3.164,-3.1351,-3.119,-3.119,-3.1151,-3.1151,-3.1151,-3.1308,-3.1269,-3.1095,-3.0642,-3.0251,-2.9881,-2.9303,-2.8873,-2.8589,-2.8444,-2.8411,-2.8411,-2.8411,-2.8348,-2.8235,-2.773,-2.7399,-2.7297,-2.6707,-2.6654,-2.7019,-2.6849,-2.6308,-2.5618,-2.5563,-2.5398,-2.5175,-2.5175,-2.5063,-2.4894,-2.4394,-2.4234,-2.4002,-2.3078,-2.2787,-2.2592,-2.1776,-2.1083,-2.0629,-2.0863,-2.1015,-2.1055,-2.0655,-1.9966,-1.9195,-1.831,-1.7359,-1.682,-1.7229,-1.6984,-1.673,-1.673,-1.6648,-1.6566,-1.6566,-1.5484,-1.4391,-1.3964,-1.2345,-1.1149,-1.0636,-1.0207,-1.0038,-1.0038,-1.0038,-0.9685,-0.8978,-0.8803,-0.8185,-0.6868,-0.6691,-0.6343,-0.5733,-0.5657,-0.5662,-0.5662,-0.5652,-0.5652,-0.5662,-0.5208,-0.4994,0.0,0.0,0.0,0.0,-3.119,0.0,-3.119,-3.119,-3.119,-3.119,-3.1449,-3.162,-3.1368,-3.1524,-3.162,-3.1295,-3.1257,-3.1507,-3.2214,-3.2039,-3.1823,-3.1823,-3.1524,-3.1291,-3.1291,-3.1134,-3.1015,-3.1015,-3.0992,-3.0952,-3.0952,-3.0699,-3.0477,-3.0309,-2.9601,-2.9212,-2.9136,-2.8637,-2.8381,-2.8444,-2.8396,-2.8411,-2.8411,-2.8411,-2.8073,-2.7515,-2.7399,-2.6975,-2.6453,-2.6187,-2.6254,-2.6443,-2.624,-2.5918,-2.5563,-2.5453,-2.5342,-2.5175,-2.5063,-2.4937,-2.4641,-2.3975,-2.3623,-2.3327,-2.2592,-2.2173,-2.1776,-2.1019,-2.07,-2.0629,-2.0863,-2.0578,-2.0164,-1.9616,-1.904,-1.831,-1.7204,-1.6812,-1.6738,-1.682,-1.673,-1.673,-1.673,-1.6237,-1.5899,-1.5899,-1.472,-1.3711,-1.3294,-1.2095,-1.1149,-1.0636,-1.0207,-1.0038,-1.0038,-1.0038,-0.9685,-0.8978,-0.836,-0.7658,-0.6864,-0.6257,-0.5819,-0.5733,-0.537,-0.523,-0.523,-0.5507,-0.551,-0.523,-0.5139,-0.4543,0.0,0.0,0.0,-3.119,-3.119,0.0,0.0,-3.119,-3.119,-3.119,-3.1274,-3.1295,-3.1134,-3.1157,-3.1196,-3.0975,-3.0952,-3.1117,-3.1545,-3.1507,-3.1428,-3.1372,-3.1252,-3.1151,-3.1072,-3.1015,-3.0975,-3.0935,-3.0912,-3.0773,-3.051,-3.0309,-3.0081,-2.9761,-2.915,-2.8795,-2.8795,-2.8317,-2.8152,-2.8217,-2.8217,-2.8217,-2.8201,-2.7875,-2.7545,-2.7159,-2.6611,-2.6133,-2.5769,-2.5287,-2.5133,-2.5203,-2.5329,-2.4993,-2.4509,-2.4452,-2.4279,-2.4163,-2.3989,-2.3872,-2.3682,-2.3173,-2.2932,-2.275,-2.2099,-2.16,-2.1083,-2.07,-2.0413,-2.032,-2.0726,-2.0267,-1.9678,-1.918,-1.8637,-1.7917,-1.6886,-1.673,-1.673,-1.673,-1.6229,-1.6057,-1.6566,-1.5974,-1.5387,-1.5387,-1.4041,-1.2857,-1.2431,-1.1488,-1.0809,-1.0381,-1.0125,-1.0038,-1.0038,-0.9685,-0.9157,-0.836,-0.7658,-0.6956,-0.6254,-0.5908,-0.5581,-0.5365,-0.4961,-0.471,-0.471,-0.4521,-0.4365,-0.4215,-0.3935,-0.3297,0.0,0.0,0.0,0.0,-3.119,-3.119,0.0,0.0,0.0,-3.1151,0.0,0.0,0.0,0.0,0.0,-3.0871,0.0,0.0,0.0,-3.1032,0.0,-3.0975,-3.1072,-3.1072,-3.0912,-3.0895,-3.0855,-3.079,-3.0733,-3.0468,-2.9951,-2.9865,-2.9629,-2.9118,-2.8685,-2.8463,-2.8463,-2.8122,-2.7955,-2.7955,-2.7855,-2.784,-2.779,-2.7174,-2.6849,-2.6692,-2.5783,-2.53,-2.5077,-2.4332,-2.3995,-2.3995,-2.435,-2.4015,-2.3403,-2.3403,-2.3271,-2.3078,-2.2969,-2.2848,-2.2787,-2.2482,-2.2359,-2.2161,-2.1726,-2.1146,-2.0571,-2.0366,-2.0124,-1.999,-2.0286,-1.9855,-1.9154,-1.8946,-1.8318,-1.7521,-1.6812,-1.6648,-1.6648,-1.6648,-1.5718,-1.5213,-1.6221,-1.5296,-1.4455,-1.4455,-1.3021,-1.1837,-1.1563,-1.0885,-1.0381,-1.0038,-1.0038,-0.9951,-0.9777,-0.9244,-0.854,-0.7658,-0.7129,-0.6428,-0.5733,-0.5644,-0.5325,-0.4954,-0.4518,-0.4158,-0.4066,-0.3281,-0.3033,-0.312,-0.2649,-0.1992,0.0,0.0,0.0,0.0,-3.119,-3.119,-3.119,0.0,-3.1151,-3.1072,0.0,0.0,0.0,0.0,0.0,0.0,0.0,0.0,-3.0733,-3.0814,-3.0912,-3.0912,-3.0912,-3.0912,-3.0912,-3.0576,-3.0368,-3.0274,-3.0087,-2.975,-2.9316,-2.9012,-2.8622,-2.8094,-2.771,-2.7539,-2.7539,-2.7625,-2.7725,-2.784,-2.7408,-2.7174,-2.7174,-2.6573,-2.5972,-2.5398,-2.5287,-2.4808,-2.4054,-2.3949,-2.3772,-2.3522,-2.3675,-2.3569,-2.3403,-2.3403,-2.3271,-2.3078,-2.2969,-2.28,-2.2678,-2.2482,-2.2099,-2.1714,-2.1348,-2.0967,-2.0442,-1.9639,-1.9645,-1.9841,-1.9481,-1.8873,-1.8366,-1.8364,-1.7594,-1.6812,-1.673,-1.6566,-1.6394,-1.6394,-1.5545,-1.4789,-1.5123,-1.3782,-1.2607,-1.2607,-1.1574,-1.0809,-1.0717,-1.0376,-1.0038,-1.0038,-1.0038,-0.9772,-0.9069,-0.8978,-0.836,-0.7041,-0.6864,-0.6428,-0.5733,-0.5282,-0.4837,-0.4403,-0.403,-0.3421,-0.2772,-0.2346,-0.2348,-0.2688,-0.1946,-0.103,0.0,0.0,0.0,0.0,-3.1015,-3.119,-3.119,-3.1151,-3.1072,-3.1015,0.0,0.0,0.0,0.0,0.0,0.0,-3.0551,-3.0551,0.0,0.0,-3.0568,-3.0773,0.0,0.0,-3.0535,-3.0368,-3.0215,-3.0189,-2.9941,-2.9528,-2.8826,-2.8654,-2.8271,-2.7494,-2.7372,-2.7284,-2.7284,-2.7335,-2.7386,-2.7437,-2.6878,-2.6654,-2.6587,-2.5659,-2.505,-2.4794,-2.4408,-2.4073,-2.37,-2.3641,-2.3522,-2.3403,-2.3318,-2.3271,-2.321,-2.321,-2.3138,-2.2969,-2.286,-2.2678,-2.2494,-2.2099,-2.1726,-2.1348,-2.0967,-2.0366,-1.977,-1.9375,-1.914,-1.8951,-1.8762,-1.8235,-1.7738,-1.773,-1.7212,-1.673,-1.673,-1.6139,-1.5545,-1.5545,-1.4189,-1.3002,-1.3087,-1.2504,-1.1912,-1.1912,-1.0977,-1.0207,-1.0207,-1.0125,-1.0038,-1.0038,-0.9414,-0.8798,-0.8532,-0.7478,-0.6596,-0.6068,-0.5628,-0.5186,-0.4926,-0.4441,-0.4197,-0.3924,-0.3131,-0.2499,-0.222,-0.1105,-0.0733,-0.0818,-0.0558,0.0094,-2.9661,0.0,0.0,-3.0309,-3.0576,-3.0838,-3.0918,-3.0878,-3.0838,-3.0895,-3.0814,0.0,0.0,0.0,0.0,0.0,0.0,-3.0468,0.0,-3.0274,0.0,-3.0526,-3.0426,0.0,0.0,-2.9984,-2.987,-3.0017,-2.9677,-2.9104,-2.8367,-2.8367,-2.7929,-2.713,-2.7078,-2.7078,-2.7078,-2.713,-2.7078,-2.6893,-2.6336,-2.596,-2.5783,-2.4738,-2.4234,-2.4234,-2.3793,-2.3569,-2.3509,-2.3463,-2.3403,-2.333,-2.3138,-2.3078,-2.3078,-2.3078,-2.2969,-2.2848,-2.2678,-2.2494,-2.2297,-2.1839,-2.1463,-2.1094,-2.0571,-1.9835,-1.9233,-1.8967,-1.8584,-1.823,-1.7933,-1.7614,-1.7392,-1.7229,-1.6984,-1.6648,-1.6312,-1.5545,-1.4789,-1.4531,-1.2923,-1.1563,-1.1563,-1.1397,-1.1225,-1.1225,-1.0544,-0.9951,-0.9864,-0.9685,-0.9506,-0.9419,-0.8356,-0.765,-0.7474,-0.6154,-0.5272,-0.5095,-0.4565,-0.421,-0.4121,-0.3638,-0.3302,-0.3211,-0.211,-0.1468,-0.1284,-0.0181,0.0538,0.0628,0.0648,0.0931,0.0,-2.9483,-2.9837,-2.9837,-2.9837,-2.9924,-3.0251,-3.0351,-3.0393,-3.0651,-3.0692,-3.0651,-3.051,0.0,0.0,0.0,0.0,0.0,0.0,0.0,0.0,-3.0189,-3.0,0.0,0.0,-2.9319,-2.909,0.0,-2.8889,-2.8367,-2.7947,-2.7898,-2.758,-2.6832,-2.6832,-2.6832,-2.6832,-2.6951,-2.6712,-2.6122,-2.5673,-2.5119,-2.4509,-2.3897,-2.3628,-2.3628,-2.3628,-2.3509,-2.3403,-2.3403,-2.3271,-2.3138,-2.3078,-2.3078,-2.3078,-2.2969,-2.2909,-2.2848,-2.2543,-2.2309,-2.2123,-2.1788,-2.1463,-2.1031,-2.0107,-1.9573,-1.91,-1.8037,-1.8029,-1.8091,-1.7119,-1.7153,-1.731,-1.6812,-1.6738,-1.6394,-1.5296,-1.4873,-1.4364,-1.3269,-1.2083,-1.1322,-1.1322,-1.0636,-1.0038,-1.0038,-1.0038,-0.9864,-0.9602,-0.8803,-0.8181,-0.7921,-0.7034,-0.6239,-0.5536,-0.5447,-0.5095,-0.4389,-0.43,-0.4121,-0.3676,-0.2959,-0.2332,-0.1887,-0.1077,-0.0359,0.0359,0.0359,0.0718,0.1345,0.1348,0.1348,-2.9044,-2.9438,-2.9793,-2.9793,-2.9968,-3.0166,-3.0251,-2.9919,-2.9789,-3.0551,-3.0384,-3.0215,-3.0426,0.0,0.0,0.0,0.0,0.0,0.0,0.0,-2.8966,-2.9074,0.0,0.0,0.0,0.0,0.0,0.0,-2.8606,0.0,-2.761,-2.7575,-2.7321,-2.6832,-2.6779,-2.6779,-2.6779,-2.6447,-2.6165,-2.5934,-2.5021,-2.4452,-2.4234,-2.3543,-2.3258,-2.3258,-2.3258,-2.3258,-2.3198,-2.3198,-2.3138,-2.3078,-2.3078,-2.3078,-2.2969,-2.2909,-2.286,-2.2739,-2.2371,-2.2247,-2.2061,-2.106,-2.0666,-2.0409,-1.9299,-1.8633,-1.8104,-1.7491,-1.7124,-1.6872,-1.6548,-1.6509,-1.6525,-1.6101,-1.5809,-1.5379,-1.4545,-1.3522,-1.2577,-1.2242,-1.123,-1.0467,-1.0467,-1.0038,-0.9777,-0.9951,-0.9864,-0.951,-0.8803,-0.8273,-0.7654,-0.6946,-0.5885,-0.509,-0.4914,-0.4206,-0.3674,-0.3409,-0.3409,-0.305,-0.2422,-0.2153,-0.1704,-0.1076,-0.0359,0.0179,0.0359,0.0807,0.1166,0.1436,0.1436,0.1436,-2.8997,-2.9438,-2.9793,-2.9793,-2.9968,-3.0097,-2.9995,-2.9761,-2.9717,-3.0284,-3.0199,-3.0156,-3.0426,0.0,0.0,0.0,0.0,0.0,0.0,-2.856,-2.8207,-2.8271,0.0,0.0,0.0,0.0,0.0,0.0,0.0,0.0,0.0,-2.7181,-2.6959,-2.6645,-2.6553,-2.65,-2.65,-2.5934,-2.5536,-2.5314,-2.4394,-2.3884,-2.3662,-2.3245,-2.3078,-2.3078,-2.3078,-2.3078,-2.3078,-2.3078,-2.3078,-2.3078,-2.2811,-2.2823,-2.2909,-2.2848,-2.2543,-2.2037,-2.16,-2.14,-2.1187,-2.0268,-1.9879,-1.9617,-1.8566,-1.7901,-1.7354,-1.695,-1.6465,-1.6127,-1.6295,-1.6108,-1.5805,-1.5479,-1.5047,-1.4371,-1.336,-1.2419,-1.1563,-1.1139,-1.0463,-0.9951,-0.9864,-0.9689,-0.9689,-0.9864,-0.9336,-0.8719,-0.8009,-0.7214,-0.6416,-0.5711,-0.465,-0.403,-0.403,-0.332,-0.2875,-0.2875,-0.2694,-0.2334,-0.1794,-0.1256,-0.0807,-0.0359,0.0359,0.0718,0.0718,0.1166,0.1525,0.1705,0.1705,0.1794]},{"header":{"parameterUnit":"m.s-1","parameterCategory":1,"la1":30.6,"la2":29.2853,"lo1":-89.7004,"lo2":-87.6739,"dy":0.0162,"dx":0.0183,"nx":112,"ny":82,"refTime":"2024-02-16T06:00:00:Z","depth":0,"parameterNumber":3,"parameterNumberName":"V-component_of_WINDS"},"data":[0.0,0.0,0.0,0.0,0.0,0.0,0.0,0.0,0.0,0.0,0.0,0.0,0.0,0.0,0.0,0.0,0.0,0.0,0.0,0.0,0.0,0.0,0.0,0.0,0.0,0.0,0.0,0.0,0.0,0.0,0.0,0.0,0.0,0.0,0.0,0.0,0.0,0.0,0.0,0.0,0.0,0.0,0.0,0.0,0.0,0.0,0.0,0.0,0.0,0.0,0.0,0.0,0.0,0.0,0.0,0.0,0.0,0.0,0.0,0.0,0.0,0.0,0.0,0.0,0.0,0.0,0.0,0.0,0.0,0.0,0.0,0.0,0.0,0.0,0.0,0.0,0.0,0.0,0.0,0.0,0.0,0.0,0.0,0.0,0.0,0.0,0.0,0.0,0.0,0.0,-1.9407,-1.9131,-1.9075,-1.9075,-1.9075,-1.9075,-1.9075,-1.9075,0.0,0.0,0.0,0.0,0.0,0.0,0.0,0.0,0.0,0.0,0.0,0.0,0.0,0.0,0.0,0.0,0.0,0.0,0.0,0.0,0.0,0.0,0.0,0.0,0.0,0.0,0.0,0.0,0.0,0.0,0.0,0.0,0.0,0.0,0.0,0.0,0.0,0.0,0.0,0.0,0.0,0.0,0.0,0.0,0.0,0.0,0.0,0.0,0.0,0.0,0.0,0.0,0.0,0.0,0.0,0.0,0.0,0.0,0.0,0.0,0.0,0.0,0.0,0.0,0.0,0.0,0.0,0.0,0.0,0.0,0.0,0.0,0.0,0.0,0.0,0.0,0.0,0.0,0.0,0.0,0.0,0.0,0.0,0.0,0.0,0.0,0.0,0.0,0.0,0.0,0.0,0.0,0.0,0.0,0.0,0.0,0.0,0.0,0.0,0.0,0.0,0.0,0.0,0.0,-1.9142,-1.9142,-1.9075,-1.9075,-1.9075,-1.9075,-1.9075,-1.9075,0.0,0.0,0.0,0.0,0.0,0.0,0.0,0.0,0.0,0.0,0.0,0.0,0.0,0.0,0.0,0.0,0.0,0.0,0.0,0.0,0.0,0.0,0.0,0.0,0.0,0.0,0.0,0.0,0.0,0.0,0.0,0.0,0.0,0.0,0.0,0.0,0.0,0.0,0.0,0.0,0.0,0.0,0.0,0.0,0.0,0.0,0.0,0.0,0.0,0.0,0.0,0.0,0.0,0.0,0.0,0.0,0.0,0.0,0.0,0.0,0.0,0.0,0.0,0.0,0.0,0.0,0.0,0.0,0.0,0.0,0.0,0.0,0.0,0.0,0.0,0.0,0.0,0.0,0.0,0.0,0.0,0.0,0.0,0.0,0.0,0.0,0.0,0.0,0.0,0.0,0.0,0.0,0.0,0.0,0.0,0.0,0.0,0.0,0.0,0.0,0.0,0.0,0.0,-1.9198,-1.9075,-1.9075,-1.9075,-1.9075,-1.9075,-1.9075,-1.9075,-1.9075,-1.9452,0.0,0.0,0.0,0.0,0.0,0.0,0.0,0.0,0.0,0.0,0.0,0.0,0.0,0.0,0.0,0.0,0.0,0.0,0.0,0.0,0.0,0.0,0.0,0.0,0.0,0.0,0.0,0.0,0.0,0.0,0.0,0.0,0.0,0.0,0.0,0.0,0.0,0.0,0.0,0.0,0.0,0.0,0.0,0.0,0.0,0.0,0.0,0.0,0.0,0.0,0.0,0.0,0.0,0.0,0.0,0.0,0.0,0.0,0.0,0.0,0.0,0.0,0.0,0.0,0.0,0.0,0.0,0.0,0.0,0.0,0.0,0.0,0.0,0.0,0.0,0.0,0.0,0.0,0.0,0.0,0.0,0.0,0.0,0.0,0.0,0.0,0.0,0.0,0.0,0.0,0.0,0.0,0.0,0.0,0.0,0.0,0.0,0.0,0.0,0.0,0.0,0.0,-1.9075,-1.9075,-1.9075,-1.9264,-1.933,-1.933,-1.933,-1.9396,-1.9584,-1.9911,0.0,0.0,0.0,0.0,0.0,0.0,0.0,0.0,0.0,0.0,0.0,0.0,0.0,0.0,0.0,0.0,0.0,0.0,0.0,0.0,0.0,0.0,0.0,0.0,0.0,0.0,0.0,0.0,0.0,0.0,0.0,0.0,0.0,0.0,0.0,0.0,0.0,0.0,0.0,0.0,0.0,0.0,0.0,0.0,0.0,0.0,0.0,0.0,0.0,0.0,0.0,0.0,0.0,0.0,0.0,0.0,0.0,0.0,0.0,0.0,0.0,0.0,0.0,0.0,0.0,0.0,0.0,0.0,0.0,0.0,0.0,0.0,0.0,0.0,0.0,0.0,0.0,0.0,0.0,0.0,0.0,0.0,0.0,0.0,0.0,0.0,0.0,0.0,0.0,0.0,0.0,0.0,0.0,0.0,0.0,0.0,0.0,0.0,0.0,0.0,0.0,0.0,-1.9075,-1.9075,-1.9075,-1.9649,-2.0042,-2.0042,-2.0042,-2.0291,-2.0933,-2.042,0.0,0.0,0.0,0.0,0.0,0.0,0.0,0.0,0.0,0.0,0.0,0.0,0.0,0.0,0.0,0.0,0.0,0.0,0.0,0.0,0.0,0.0,0.0,0.0,0.0,0.0,0.0,0.0,0.0,0.0,0.0,0.0,0.0,0.0,0.0,0.0,0.0,0.0,0.0,0.0,0.0,0.0,0.0,0.0,0.0,0.0,0.0,0.0,0.0,0.0,0.0,0.0,0.0,0.0,0.0,0.0,0.0,0.0,0.0,0.0,0.0,0.0,0.0,0.0,0.0,0.0,0.0,0.0,0.0,0.0,0.0,0.0,0.0,0.0,0.0,0.0,0.0,0.0,0.0,0.0,0.0,0.0,0.0,0.0,0.0,0.0,0.0,0.0,0.0,0.0,0.0,0.0,0.0,0.0,0.0,0.0,0.0,0.0,0.0,0.0,0.0,0.0,-1.9649,-1.9264,-1.9649,-1.9584,-1.9649,-2.0031,-2.0096,-2.0355,-2.106,0.0,0.0,0.0,0.0,0.0,0.0,0.0,0.0,0.0,0.0,0.0,0.0,0.0,0.0,0.0,0.0,0.0,0.0,0.0,0.0,0.0,0.0,0.0,0.0,0.0,0.0,0.0,0.0,0.0,0.0,0.0,0.0,0.0,0.0,0.0,0.0,0.0,0.0,0.0,0.0,0.0,0.0,0.0,0.0,0.0,0.0,0.0,0.0,0.0,0.0,0.0,0.0,0.0,0.0,0.0,0.0,0.0,0.0,0.0,0.0,0.0,0.0,0.0,0.0,0.0,0.0,0.0,0.0,0.0,0.0,0.0,0.0,0.0,0.0,0.0,0.0,0.0,0.0,0.0,0.0,0.0,0.0,0.0,0.0,0.0,0.0,0.0,0.0,0.0,0.0,0.0,0.0,0.0,0.0,0.0,0.0,0.0,0.0,0.0,0.0,0.0,0.0,-2.106,-2.0291,-1.9911,-2.0355,-2.0215,-2.0215,-2.073,-2.0719,-2.1049,-2.169,0.0,0.0,0.0,0.0,0.0,0.0,0.0,0.0,0.0,0.0,0.0,0.0,0.0,0.0,0.0,0.0,0.0,0.0,0.0,0.0,0.0,0.0,0.0,0.0,0.0,0.0,0.0,0.0,0.0,0.0,0.0,0.0,0.0,0.0,0.0,0.0,0.0,0.0,0.0,0.0,0.0,0.0,0.0,0.0,0.0,0.0,0.0,0.0,0.0,0.0,0.0,0.0,0.0,0.0,0.0,0.0,0.0,0.0,0.0,0.0,0.0,0.0,0.0,0.0,0.0,0.0,0.0,0.0,0.0,0.0,0.0,0.0,0.0,0.0,0.0,0.0,0.0,0.0,0.0,0.0,0.0,0.0,0.0,0.0,0.0,0.0,0.0,0.0,0.0,0.0,0.0,0.0,0.0,0.0,0.0,0.0,0.0,0.0,0.0,0.0,0.0,0.0,-2.1123,-2.1123,-2.1123,-2.1123,-2.1678,-2.2113,-2.2101,-2.2101,-2.2372,0.0,0.0,0.0,0.0,0.0,0.0,0.0,0.0,0.0,0.0,0.0,0.0,0.0,0.0,0.0,0.0,0.0,0.0,0.0,0.0,0.0,0.0,0.0,0.0,0.0,0.0,0.0,0.0,0.0,0.0,0.0,0.0,0.0,0.0,0.0,0.0,0.0,0.0,0.0,0.0,0.0,0.0,0.0,0.0,0.0,0.0,0.0,0.0,0.0,0.0,0.0,0.0,0.0,0.0,0.0,0.0,0.0,0.0,0.0,0.0,0.0,0.0,0.0,0.0,0.0,0.0,0.0,0.0,0.0,0.0,0.0,0.0,0.0,0.0,0.0,0.0,0.0,0.0,0.0,0.0,0.0,0.0,0.0,0.0,0.0,0.0,0.0,0.0,0.0,0.0,0.0,0.0,0.0,0.0,0.0,0.0,0.0,0.0,0.0,0.0,0.0,0.0,0.0,-2.2445,-2.169,-2.125,-2.1741,-2.1553,-2.1616,-2.2039,-2.2237,-2.2628,-2.3271,0.0,0.0,0.0,0.0,0.0,0.0,0.0,0.0,0.0,0.0,0.0,0.0,0.0,0.0,0.0,0.0,0.0,0.0,0.0,0.0,0.0,0.0,0.0,0.0,0.0,0.0,0.0,0.0,0.0,0.0,0.0,0.0,0.0,0.0,0.0,0.0,0.0,0.0,0.0,0.0,0.0,0.0,0.0,0.0,0.0,0.0,0.0,0.0,0.0,0.0,0.0,0.0,0.0,0.0,0.0,0.0,0.0,0.0,0.0,0.0,0.0,0.0,0.0,0.0,0.0,0.0,0.0,0.0,0.0,0.0,0.0,0.0,0.0,0.0,0.0,0.0,0.0,0.0,0.0,0.0,0.0,0.0,0.0,0.0,0.0,0.0,0.0,0.0,0.0,0.0,0.0,0.0,0.0,0.0,0.0,0.0,0.0,0.0,0.0,0.0,0.0,0.0,-2.3078,-2.2384,-2.2063,-2.2433,-2.2125,-2.2063,-2.2555,-2.275,-2.3005,-2.345,0.0,0.0,0.0,0.0,0.0,0.0,0.0,0.0,0.0,0.0,0.0,0.0,0.0,0.0,0.0,0.0,0.0,0.0,0.0,0.0,0.0,0.0,0.0,0.0,0.0,0.0,0.0,0.0,0.0,0.0,0.0,0.0,0.0,0.0,0.0,0.0,0.0,0.0,0.0,0.0,0.0,0.0,0.0,0.0,0.0,0.0,0.0,0.0,0.0,0.0,0.0,0.0,0.0,0.0,0.0,0.0,0.0,0.0,0.0,0.0,0.0,0.0,0.0,0.0,0.0,0.0,0.0,0.0,0.0,0.0,0.0,0.0,0.0,0.0,0.0,0.0,0.0,0.0,0.0,0.0,0.0,0.0,0.0,0.0,0.0,0.0,0.0,0.0,0.0,0.0,0.0,0.0,0.0,0.0,0.0,0.0,0.0,0.0,0.0,0.0,0.0,0.0,-2.3078,-2.3078,-2.3078,-2.3078,-2.3138,-2.3198,-2.3403,-2.3403,-2.3522,-2.3628,0.0,0.0,0.0,0.0,0.0,0.0,0.0,0.0,0.0,0.0,0.0,0.0,0.0,0.0,0.0,0.0,0.0,0.0,0.0,0.0,0.0,0.0,0.0,0.0,0.0,0.0,0.0,0.0,0.0,0.0,0.0,0.0,0.0,0.0,0.0,0.0,0.0,0.0,0.0,0.0,0.0,0.0,0.0,0.0,0.0,0.0,0.0,0.0,0.0,0.0,0.0,0.0,0.0,0.0,0.0,0.0,0.0,0.0,0.0,0.0,-1.5431,-1.5431,0.0,0.0,0.0,0.0,0.0,0.0,0.0,0.0,0.0,0.0,0.0,0.0,0.0,0.0,0.0,0.0,0.0,0.0,0.0,0.0,0.0,0.0,0.0,0.0,0.0,0.0,0.0,0.0,0.0,0.0,0.0,0.0,0.0,0.0,0.0,0.0,0.0,0.0,0.0,0.0,-2.3078,-2.3078,-2.3078,-2.3078,-2.3271,-2.333,-2.3403,-2.3641,-2.3832,-2.3819,-2.4008,0.0,0.0,0.0,0.0,0.0,0.0,0.0,0.0,0.0,0.0,0.0,0.0,0.0,0.0,0.0,0.0,0.0,0.0,0.0,0.0,0.0,0.0,0.0,0.0,0.0,0.0,0.0,0.0,0.0,0.0,0.0,0.0,0.0,0.0,0.0,0.0,0.0,0.0,0.0,0.0,0.0,0.0,0.0,0.0,0.0,0.0,0.0,0.0,0.0,0.0,0.0,0.0,0.0,0.0,0.0,0.0,0.0,0.0,0.0,-1.5431,-1.5431,0.0,0.0,0.0,0.0,0.0,0.0,0.0,0.0,0.0,0.0,0.0,0.0,0.0,0.0,0.0,0.0,0.0,0.0,0.0,0.0,0.0,0.0,0.0,0.0,0.0,0.0,0.0,0.0,0.0,0.0,0.0,0.0,0.0,0.0,0.0,0.0,0.0,0.0,0.0,0.0,-2.3078,-2.3078,-2.3138,-2.321,-2.333,-2.3463,-2.3654,-2.3772,-2.3949,-2.4008,-2.4067,0.0,0.0,0.0,0.0,0.0,0.0,0.0,0.0,0.0,0.0,0.0,0.0,0.0,0.0,0.0,0.0,0.0,0.0,0.0,0.0,0.0,0.0,0.0,0.0,0.0,0.0,0.0,0.0,0.0,0.0,0.0,0.0,0.0,0.0,0.0,0.0,0.0,0.0,0.0,0.0,0.0,0.0,0.0,0.0,0.0,0.0,0.0,0.0,0.0,0.0,0.0,0.0,0.0,-1.5061,-1.509,-1.5173,-1.5347,-1.5431,-1.5431,-1.5431,-1.5394,-1.5343,-1.5343,0.0,0.0,0.0,0.0,0.0,0.0,0.0,0.0,0.0,0.0,0.0,0.0,0.0,0.0,0.0,0.0,0.0,0.0,0.0,0.0,0.0,0.0,-1.9131,-1.9264,-1.9264,-1.933,-1.9452,0.0,0.0,0.0,0.0,0.0,0.0,0.0,0.0,0.0,0.0,0.0,-2.3198,-2.3198,-2.3258,-2.3403,-2.3463,-2.3582,-2.3891,-2.3891,-2.4008,-2.4112,-2.4112,-2.4112,0.0,0.0,0.0,0.0,0.0,0.0,0.0,0.0,0.0,0.0,0.0,0.0,0.0,0.0,0.0,0.0,0.0,0.0,0.0,0.0,0.0,0.0,0.0,0.0,0.0,0.0,0.0,0.0,0.0,0.0,0.0,0.0,-1.388,-1.3789,0.0,0.0,0.0,0.0,0.0,0.0,0.0,0.0,0.0,0.0,0.0,0.0,0.0,-1.4352,-1.4352,-1.4377,-1.4512,-1.4681,-1.4961,-1.5173,-1.5347,-1.5431,-1.5431,-1.5431,-1.5431,0.0,-1.5006,-1.5006,0.0,0.0,0.0,0.0,0.0,0.0,0.0,0.0,0.0,0.0,0.0,0.0,0.0,0.0,0.0,0.0,0.0,0.0,0.0,0.0,0.0,0.0,-1.9264,-1.9846,-1.9977,-2.0172,-2.0933,-2.1071,-2.1135,-2.1325,-2.2334,-2.315,0.0,0.0,0.0,0.0,0.0,0.0,-2.3509,-2.3497,-2.3569,-2.3569,-2.37,-2.3832,-2.3891,-2.4008,-2.4054,-2.4112,-2.4112,-2.4112,-2.4112,-2.5147,0.0,0.0,0.0,0.0,0.0,0.0,0.0,0.0,0.0,0.0,0.0,0.0,0.0,0.0,0.0,0.0,0.0,0.0,0.0,0.0,0.0,0.0,0.0,0.0,0.0,0.0,0.0,0.0,0.0,-1.2692,-1.2581,-1.2423,-1.2505,-1.2613,0.0,0.0,0.0,0.0,0.0,0.0,0.0,0.0,0.0,-1.4243,-1.425,-1.4328,-1.4505,-1.4385,-1.4455,-1.462,-1.4844,-1.4999,-1.5257,-1.5347,-1.5431,-1.5431,-1.5431,-1.524,-1.4874,-1.5138,-1.5028,-1.4872,0.0,0.0,0.0,0.0,-1.8644,-1.8675,-1.8567,-1.8704,-1.8947,-1.8812,0.0,0.0,0.0,0.0,0.0,0.0,0.0,-1.9075,-1.9075,-1.9075,-1.9198,-1.9452,-1.9901,-2.0279,-2.0613,-2.1479,-2.2163,-2.2113,-2.2494,-2.3005,-2.345,-2.345,0.0,0.0,0.0,-2.3509,-2.3569,-2.3628,-2.3628,-2.376,-2.3832,-2.3949,-2.4008,-2.4054,-2.4112,-2.4112,-2.439,-2.462,-2.462,-2.5701,-2.6283,0.0,0.0,0.0,0.0,0.0,0.0,0.0,0.0,0.0,0.0,0.0,0.0,0.0,0.0,0.0,0.0,0.0,0.0,0.0,0.0,0.0,0.0,0.0,0.0,0.0,0.0,0.0,0.0,-1.1804,-1.1445,-1.1284,-1.1439,-1.173,0.0,0.0,0.0,0.0,0.0,0.0,-1.3705,-1.3782,-1.3929,-1.4072,-1.4163,-1.4316,-1.4455,-1.4439,-1.4599,-1.4853,-1.4937,-1.5149,-1.5411,-1.558,-1.5672,-1.5672,-1.5672,-1.5489,-1.5196,-1.5277,-1.5116,-1.4954,-1.6231,-1.6495,-1.6349,-1.7647,-1.8105,-1.8008,-1.8076,-1.8279,-1.8482,-1.8549,-1.8808,-1.9075,-1.9075,0.0,0.0,0.0,0.0,-1.9075,-1.9075,-1.9075,-1.9198,-1.9518,-2.0096,-2.059,-2.091,-2.2039,-2.2907,-2.2652,-2.2677,-2.2944,-2.3569,-2.3628,0.0,-2.3688,-2.37,-2.3688,-2.3747,-2.3747,-2.3819,-2.3949,-2.3949,-2.4008,-2.4112,-2.4112,-2.4112,-2.4112,-2.4677,-2.5005,-2.5005,-2.6082,-2.6736,-2.6774,0.0,0.0,0.0,0.0,0.0,0.0,0.0,0.0,0.0,0.0,0.0,0.0,0.0,0.0,0.0,0.0,0.0,0.0,0.0,0.0,0.0,0.0,0.0,0.0,0.0,0.0,0.0,0.0,0.0,-1.1042,-1.08,0.0,0.0,0.0,0.0,-1.3117,-1.2372,-1.2216,-1.2988,-1.3345,-1.3502,-1.3516,-1.3817,-1.3899,-1.3913,-1.43,-1.4749,-1.5182,-1.5476,-1.5881,-1.6323,-1.6323,-1.6323,-1.6323,-1.6323,-1.6148,-1.5818,-1.5211,-1.4779,-1.4643,-1.6286,-1.6644,-1.6383,-1.7958,-1.835,-1.8008,-1.8202,-1.8405,-1.8549,-1.8741,-1.8942,-1.9075,-1.9075,-1.9075,0.0,0.0,-1.9075,-1.9075,-1.9075,-1.9075,-1.9396,-2.0677,-2.0996,-2.1502,-2.3065,-2.339,-2.3198,-2.2725,-2.3245,-2.3832,-2.3891,0.0,-2.3628,-2.3832,-2.3891,-2.3949,-2.4067,-2.4054,-2.4054,-2.4112,-2.4112,-2.4112,-2.4112,-2.4112,-2.4112,-2.4112,-2.4677,-2.5005,-2.5005,-2.6082,-2.6774,-2.6901,-2.7458,0.0,0.0,0.0,0.0,0.0,0.0,0.0,0.0,0.0,0.0,0.0,0.0,0.0,0.0,0.0,0.0,0.0,0.0,0.0,0.0,0.0,0.0,0.0,0.0,0.0,0.0,0.0,0.0,-1.033,-1.0556,0.0,-1.0489,-1.0878,-1.1373,-1.1834,-1.1926,-1.2384,-1.3313,-1.3501,-1.3736,-1.4112,-1.424,-1.4388,-1.4583,-1.4791,-1.498,-1.5246,-1.5356,-1.5672,-1.6109,-1.6109,-1.6197,-1.6367,-1.6367,-1.6309,-1.6184,-1.5957,-1.5431,-1.4924,-1.6554,-1.7013,-1.6828,-1.8455,-1.8965,-1.8838,-1.8899,-1.9112,-1.9485,-1.9745,-1.9875,-1.9944,-1.9944,-1.9944,-1.9944,-1.9944,-1.9944,-1.9944,-1.9944,-2.035,-2.0888,-2.1476,-2.2085,-2.2744,-2.3406,-2.3692,-2.3747,-2.3497,-2.37,-2.3949,-2.4008,-2.3995,-2.3936,-2.4008,-2.4008,-2.4067,-2.4112,-2.4112,-2.4112,-2.4112,-2.4112,-2.4112,-2.4112,-2.4112,-2.4287,-2.4677,-2.5203,-2.5742,-2.6215,-2.6982,-2.7473,-2.7625,-2.784,-2.7989,0.0,0.0,0.0,0.0,0.0,0.0,0.0,0.0,0.0,0.0,0.0,0.0,0.0,0.0,0.0,0.0,0.0,0.0,0.0,0.0,0.0,0.0,0.0,0.0,0.0,0.0,-1.0176,-1.0035,-1.0264,-1.028,-1.0048,-1.03,-1.0784,-1.1595,-1.1776,-1.2441,-1.3838,-1.4035,-1.4269,-1.4656,-1.4763,-1.491,-1.511,-1.5204,-1.5349,-1.5629,-1.5629,-1.5896,-1.6349,-1.6349,-1.6433,-1.6689,-1.6689,-1.663,-1.6528,-1.6528,-1.6096,-1.5492,-1.6831,-1.7279,-1.7321,-1.8564,-1.9184,-1.9287,-1.9442,-1.966,-1.9959,-2.0288,-2.042,-2.042,-2.042,-2.042,-2.042,-2.042,-2.042,-2.042,-2.042,-2.0917,-2.1538,-2.2127,-2.2874,-2.3558,-2.4104,-2.4234,-2.4281,-2.4294,-2.4138,-2.4008,-2.4054,-2.4112,-2.4112,-2.4112,-2.4112,-2.4112,-2.4112,-2.4112,-2.4112,-2.4112,-2.4287,-2.439,-2.439,-2.4549,-2.4821,-2.5258,-2.5851,-2.6375,-2.6901,-2.7509,-2.7955,-2.8054,-2.8103,-2.8152,-2.8284,0.0,0.0,0.0,0.0,0.0,0.0,0.0,0.0,0.0,0.0,0.0,0.0,0.0,0.0,0.0,0.0,0.0,0.0,0.0,0.0,0.0,0.0,0.0,-1.0218,-1.0223,-1.0247,-1.0261,-0.9901,-0.991,-1.0702,-0.9433,-0.9679,-1.2294,-1.1878,-1.2394,-1.4442,-1.4816,-1.4983,-1.499,-1.5264,-1.5411,-1.5411,-1.5691,-1.5927,-1.6224,-1.6224,-1.6508,-1.6979,-1.6979,-1.7066,-1.7326,-1.7326,-1.7157,-1.6872,-1.6872,-1.6682,-1.6448,-1.704,-1.7531,-1.7908,-1.85,-1.8948,-1.9419,-1.9793,-1.9938,-2.0,-2.0329,-2.0462,-2.0462,-2.0462,-2.0462,-2.0462,-2.0462,-2.0462,-2.0472,-2.0472,-2.0747,-2.1371,-2.265,-2.3258,-2.3935,-2.5333,-2.5146,-2.4793,-2.4988,-2.453,-2.4138,-2.4112,-2.4112,-2.4112,-2.4112,-2.4112,0.0,-2.4112,-2.4112,-2.4112,-2.4112,-2.4677,-2.5005,-2.5005,-2.5536,-2.5783,-2.5837,-2.6534,-2.6901,-2.6953,-2.7625,-2.8054,-2.8186,-2.8348,-2.8411,-2.8411,0.0,0.0,0.0,0.0,0.0,0.0,0.0,0.0,0.0,0.0,0.0,0.0,0.0,0.0,0.0,0.0,0.0,0.0,0.0,0.0,0.0,-0.976,-0.9992,-1.0143,-1.0231,-1.0135,-0.9802,-0.9928,-0.9962,-0.9672,-0.9396,-0.9995,-1.1971,-1.1251,-1.2026,-1.4955,-1.4472,-1.4612,-1.5585,-1.5665,-1.5712,-1.5712,-1.5792,-1.5832,-1.5927,-1.5927,-1.6211,-1.6683,-1.6683,-1.6958,-1.7326,-1.7326,-1.7274,-1.7201,-1.7201,-1.7143,-1.7187,-1.8175,-1.8642,-1.897,-2.0464,-2.0825,-2.0654,-2.0801,-2.0843,-2.0919,-2.1275,-2.1424,-2.1424,-2.1424,-2.1424,-2.1424,-2.1424,-2.1424,-2.1499,-2.1797,-2.2377,-2.3167,-2.4343,-2.4815,-2.5294,-2.6181,-2.5918,-2.5514,-2.5589,-2.5132,-2.4596,-2.4191,-2.4112,-2.4112,-2.4112,-2.4112,-2.4112,-2.4112,-2.4112,-2.4287,-2.4734,-2.4892,-2.516,-2.5522,-2.5823,-2.6133,-2.6587,-2.6901,-2.7276,-2.781,-2.8039,-2.8201,-2.8348,-2.8396,-2.8411,0.0,0.0,0.0,0.0,0.0,0.0,0.0,0.0,0.0,0.0,0.0,0.0,0.0,0.0,0.0,0.0,0.0,0.0,0.0,0.0,0.0,0.0,-0.9306,-0.976,-1.0149,-1.0279,-1.0243,-1.0039,-1.004,-0.9885,-0.9468,-0.9332,-0.9925,-1.1409,-1.0968,-1.1718,-1.4133,-1.4145,-1.4407,-1.5153,-1.554,-1.5885,-1.6012,-1.6012,-1.6079,-1.6199,-1.6199,-1.6415,-1.6777,-1.6777,-1.6985,-1.7326,-1.7326,-1.7326,-1.7326,-1.7326,-1.7326,-1.7368,0.0,0.0,0.0,0.0,-2.1801,-2.1627,-2.169,-2.1837,-2.1964,-2.2082,-2.2097,-2.2056,-2.1859,-2.1807,-2.1807,-2.1807,-2.1807,-2.1883,-2.2327,-2.3065,-2.3925,-2.5052,-2.5672,-2.6219,-2.6895,-2.6582,-2.6177,-2.6177,-2.572,0.0,-2.4883,-2.4439,-2.4112,-2.4112,-2.4112,-2.4112,-2.4112,-2.4112,-2.4345,-2.4948,-2.5258,-2.5673,-2.6215,-2.664,0.0,0.0,0.0,-2.776,-2.8235,-2.8299,0.0,0.0,0.0,-2.8411,-2.8411,-2.8411,0.0,0.0,-2.9166,-2.9601,0.0,0.0,0.0,0.0,0.0,0.0,0.0,0.0,0.0,0.0,0.0,0.0,0.0,0.0,0.0,0.0,-0.8966,-0.9345,-1.02,-1.0316,-1.04,-1.0499,-1.0192,-0.9839,-0.974,-0.9422,-0.9686,-1.0796,-1.081,-1.1274,-1.2619,-1.3636,0.0,0.0,0.0,-1.6052,-1.6319,-1.6326,-1.6446,-1.6707,-1.6707,-1.6864,-1.7092,-1.7092,-1.7213,-1.7384,-1.7384,-1.7362,-1.7326,-1.7326,-1.7326,-1.7304,-1.7286,-1.8327,-1.9965,-2.1419,-2.2119,-2.2274,-2.2461,0.0,0.0,-2.2628,-2.2573,-2.2501,-2.2087,-2.1963,-2.1952,-2.1901,-2.188,-2.2022,-2.2413,-2.318,-2.4097,-2.5181,-2.6057,-2.685,-2.739,-2.7131,-2.6765,-2.6765,-2.6308,-2.5916,-2.5916,-2.5027,-2.4282,-2.4217,-2.4217,-2.4191,-2.4125,-2.4112,-2.439,-2.5048,-2.5673,0.0,-2.6953,-2.7625,-2.8005,-2.8005,-2.8137,-2.8299,-2.8411,-2.8411,-2.8411,-2.8411,-2.8411,-2.8411,-2.8411,-2.8411,-2.8889,-2.9793,-2.9348,-2.9689,0.0,0.0,0.0,0.0,0.0,0.0,0.0,0.0,0.0,0.0,0.0,0.0,0.0,0.0,0.0,-0.7898,-0.8663,-0.9368,-1.0218,-1.0432,-1.0424,-1.0111,-1.0035,-0.9897,-0.9486,-0.9534,-0.9922,-1.1016,-1.0347,-1.0654,-1.263,-1.3111,-1.3813,-1.4612,-1.5815,-1.6567,-1.662,-1.662,-1.6653,-1.6707,-1.6707,0.0,-1.7414,-1.7414,-1.754,-1.7721,-1.7721,-1.7574,-1.7326,-1.7326,-1.7326,-1.7412,-1.8983,-2.0309,-2.1353,-2.2102,-2.2562,-2.2765,-2.2571,-2.2696,-2.293,-2.301,-2.3049,-2.3039,-2.2946,-2.2915,0.0,-2.247,-2.2366,-2.2573,-2.3353,-2.3672,-2.4253,-2.5988,-2.6577,-2.685,-2.739,-2.7445,-2.7366,-2.7366,-2.6896,-2.6517,-2.6517,-2.5942,-2.5341,-2.487,-2.4805,-2.4635,-2.4178,-2.4319,-2.4794,-2.5714,-2.6162,-2.6774,-2.769,-2.8039,-2.8137,-2.8137,-2.8299,-2.8348,-2.8411,-2.8411,-2.8411,-2.8411,-2.8411,-2.8411,-2.8411,-2.8411,-2.8889,-2.9793,-2.9705,-3.0182,0.0,0.0,0.0,0.0,0.0,0.0,0.0,0.0,0.0,0.0,0.0,-0.5786,-0.5479,0.0,-0.6228,-0.6849,-0.7728,-0.8687,-0.9397,-0.9888,-1.0088,-0.9903,-0.9983,-0.9979,-0.9579,-0.9571,-0.9821,-1.04,-0.992,-1.0053,-1.1227,-1.1924,-1.2841,-1.397,-1.5212,-1.6163,-1.6927,-1.6927,-1.7001,-1.7141,-1.7141,-1.7272,-1.7535,-1.7636,-1.7768,-1.7869,-1.796,-1.7874,-1.756,-1.7399,-1.7606,-1.8149,-1.9596,-2.0512,-2.1123,-2.2457,-2.3176,-2.3318,-2.3352,-2.3523,-2.3659,-2.3608,-2.3536,-2.3494,-2.3256,-2.3184,-2.3143,-2.2904,-2.2677,-2.2741,-2.3899,-2.4219,-2.4672,-2.6289,-2.6918,-2.7188,-2.7456,-2.7523,-2.7523,-2.7523,-2.7301,-2.7105,-2.7105,-2.687,-2.6386,-2.5524,-2.5393,-2.5288,-2.5014,-2.509,-2.5499,-2.6342,-2.6669,-2.7137,-2.8039,-2.8201,-2.8299,-2.8299,-2.8348,-2.8411,-2.8411,-2.8411,-2.8411,-2.8411,-2.8411,-2.8411,-2.8411,-2.8621,-2.909,-2.981,-3.0054,-3.0535,0.0,0.0,0.0,0.0,0.0,0.0,0.0,0.0,-0.6483,-0.6018,-0.5864,-0.5718,-0.543,-0.5365,-0.5606,-0.6134,-0.7007,-0.7916,-0.8603,-0.9311,-0.974,-0.9651,-0.9854,-0.9862,-0.9616,-0.9628,-0.9628,-0.9628,-0.9628,-0.9701,-0.9876,-1.0923,-1.2151,-1.3404,-1.4584,-1.585,-1.7228,-1.7235,-1.7355,-1.7582,-1.7582,-1.7566,-1.7654,-1.7853,-1.7999,-1.801,-1.8236,-1.8116,-1.7794,-1.753,-1.7845,-1.8603,-1.9786,-2.0232,-2.0503,-2.2687,-2.359,-2.3841,-2.412,-2.4368,-2.4478,-2.4126,-2.4002,-2.3939,-2.3567,-2.3453,-2.3432,-2.335,-2.313,-2.3192,-2.452,-2.492,-2.5325,-2.6716,-2.7266,-2.7523,-2.7523,-2.7523,-2.7523,-2.7523,-2.7523,-2.7523,-2.7523,-2.7523,-2.7183,-2.6151,-2.5981,-2.6005,-2.5998,-2.6082,-2.6475,-2.7271,-2.7535,-2.7823,-2.84,-2.8424,-2.8411,-2.8411,-2.8411,-2.8411,-2.8411,-2.8411,-2.8411,-2.8411,-2.8411,-2.8444,-2.8525,-2.892,-2.9393,-2.9968,-3.0458,-3.0957,-0.4389,-0.4545,-0.5087,-0.5625,-0.6086,-0.6395,0.0,0.0,-0.6483,-0.6018,-0.5789,-0.5596,-0.5471,-0.5339,-0.5499,-0.6389,-0.7229,-0.7834,-0.8173,-0.9133,-0.9647,-0.9189,-0.9489,-0.9604,-0.9624,-0.9628,-0.9628,-0.9628,-0.9628,-0.9701,-0.9876,-1.1155,-1.2481,-1.3755,-1.5124,-1.6318,-1.7535,-1.7535,-1.7549,-1.7582,-1.7582,-1.7674,-1.7969,-1.7969,-1.8116,-1.8325,-1.8331,-1.8116,-1.7808,-1.7772,-1.7589,-1.7692,-1.9505,-2.0232,-2.0503,-2.2687,-2.359,-2.3841,-2.412,-2.4368,-2.4444,-2.4478,-2.4467,-2.4457,-2.4405,-2.4385,-2.4312,-2.3908,-2.4073,-2.4546,-2.5712,-2.5902,-2.625,-2.7842,-2.7834,-2.7523,-2.7523,-2.7523,-2.7523,-2.7523,-2.7523,-2.7523,-2.7523,-2.7523,-2.7314,-2.6674,-2.6582,-2.6691,-2.6856,-2.7152,-2.7725,-2.8906,-2.934,-2.9403,-2.93,-2.875,-2.8411,-2.8411,-2.8411,-2.8411,-2.8411,-2.8411,-2.8411,-2.8411,-2.8411,-2.8621,-2.9044,-2.9074,-2.9556,-3.0452,-3.1156,-3.1725,-0.4543,-0.4545,-0.4932,0.0,-0.6012,-0.617,-0.6633,-0.6563,-0.6335,-0.5941,-0.5712,-0.5602,-0.5491,-0.5409,-0.5347,0.0,-0.621,-0.6926,-0.7251,-0.8188,-0.8839,-0.9234,-0.947,-0.9628,-0.9628,-0.9628,-0.9628,-0.9628,-0.9628,-0.975,-1.003,-1.063,-1.1535,-1.3026,-1.4196,-1.5429,-1.6611,-1.7259,-1.7582,-1.7582,-1.7582,-1.7694,-1.7799,-1.8115,-1.8365,-1.8564,-1.8149,-1.794,-1.7801,-1.7611,-1.7725,-1.8334,-1.9687,-2.0593,-2.1239,-2.3038,-2.3754,-2.3841,-2.4196,-2.4454,-2.454,-2.454,-2.454,-2.454,-2.454,-2.454,-2.4498,-2.464,-2.4545,-2.4914,-2.6574,-2.6533,-2.642,-2.8014,-2.7941,-2.7523,-2.7523,-2.7523,-2.7523,-2.7523,-2.7523,-2.7523,-2.7523,-2.7669,-2.7789,-2.7551,-2.7511,-2.7715,-2.825,-2.8436,-2.8886,-2.975,-3.0031,-3.0081,-2.9976,-2.975,-2.9412,-2.9027,-2.8996,-2.8827,-2.8427,-2.8411,-2.8411,-2.8411,-2.8653,-2.9124,-2.9737,-3.0274,-3.1019,-3.1924,-3.2471,-3.3128,-0.4621,0.0,0.0,-0.5389,-0.5625,-0.5783,-0.617,-0.6254,-0.6103,-0.5864,-0.5634,-0.552,-0.5411,-0.5372,-0.5157,-0.4844,-0.5473,-0.6114,-0.6566,-0.7369,-0.8186,-0.9072,-0.9287,-0.9426,-0.9426,-0.943,-0.9529,-0.9529,-0.9573,-0.9734,-1.0044,-1.0209,-1.0899,-1.2299,-1.3429,-1.4467,-1.5329,-1.6637,-1.7231,-1.6918,-1.7237,-1.7341,-1.7341,-1.786,-1.8256,-1.8535,-1.8152,-1.7904,-1.7794,-1.756,-1.7774,-1.8511,-1.9687,-2.0692,-2.1596,-2.3212,-2.3841,-2.3841,-2.4368,-2.454,-2.454,-2.454,-2.454,-2.454,-2.454,-2.454,-2.454,-2.4871,-2.5029,-2.5529,-2.7046,-2.7034,-2.6904,-2.8122,-2.7941,-2.7523,-2.7523,-2.7523,-2.7523,-2.7523,-2.7523,-2.7523,-2.7523,-2.7802,-2.8145,-2.821,-2.8457,-2.8817,-2.9546,-2.9925,-3.0327,-3.0785,-3.0744,-3.0689,-3.0689,-3.052,-3.0212,-2.9735,-2.9689,-2.9473,-2.8981,-2.8965,-2.8999,-2.918,-2.9485,-3.0084,-3.0969,-3.1649,-3.2367,-3.316,-3.371,-3.4286,0.0,0.0,-0.3919,-0.4068,-0.4613,-0.5079,-0.5306,-0.5622,-0.5864,-0.5637,-0.5479,-0.528,-0.5245,-0.5125,-0.4994,-0.4844,-0.5295,-0.5899,-0.6346,-0.7122,-0.7865,-0.8621,-0.8821,-0.8825,0.0,-0.9031,-0.9236,-0.9236,-0.9384,-0.9556,-0.9843,-1.0225,-1.1039,-1.2408,-1.328,-1.3798,-1.3914,-1.5846,-1.6225,-1.5316,-1.6225,-1.6734,-1.6734,-1.7327,-1.7633,-1.7931,-1.82,-1.8108,-1.7816,-1.7801,-1.7618,-1.7512,-1.9413,-2.0413,-2.0863,-2.3028,-2.3841,-2.3841,-2.4368,-2.454,-2.454,-2.454,-2.454,-2.454,-2.454,-2.454,-2.454,-2.454,-2.5589,-2.6758,-2.6892,-2.7539,-2.8282,-2.8378,-2.7941,-2.7523,-2.7523,-2.7523,-2.7523,-2.7523,-2.7523,-2.7523,-2.7523,-2.7802,-2.821,-2.8522,-2.9261,-2.9931,-3.0404,-3.1549,-3.2296,-3.2336,-3.1751,-3.1351,-3.1351,-3.0782,-3.0412,-3.0397,-3.0397,-3.0381,-3.0366,-3.0366,-3.0592,-3.1097,-3.1112,-3.1661,-3.2834,-3.2834,-3.3186,-3.3806,-3.4506,-3.4848,-0.3997,0.0,-0.3841,-0.3917,-0.4073,-0.4382,-0.5002,-0.5237,-0.5395,-0.5709,-0.5634,-0.5442,-0.5408,-0.521,-0.4994,-0.4844,-0.4946,-0.5369,-0.6251,-0.6844,-0.7584,-0.8613,-0.8922,0.0,0.0,0.0,0.0,-0.8928,-0.9086,-0.9358,-0.9739,-1.0012,-1.0448,-1.1048,-1.2775,-1.3294,-1.263,-1.5322,-1.6199,-1.519,-1.6199,-1.6807,-1.7007,-1.7099,-1.7302,-1.7595,-1.7661,-1.7589,-1.7494,-1.7494,-1.7428,-1.7512,-1.9422,-2.0322,-2.0863,-2.3028,-2.3927,-2.411,-2.4368,-2.454,-2.454,-2.454,-2.454,-2.454,-2.454,-2.454,-2.454,-2.4871,-2.5301,-2.5887,-2.7058,-2.7296,-2.741,-2.8218,-2.7941,-2.7523,-2.7523,-2.7523,-2.7523,-2.7523,-2.7523,-2.7523,-2.7523,-2.8,-2.883,-2.9993,-3.0418,-3.0777,-3.1248,-3.1936,-3.2398,-3.2398,-3.2198,-3.2044,-3.2044,-3.1859,-3.1536,-3.1089,-3.1059,-3.0859,-3.0443,-3.0756,-3.1076,-3.1307,-3.2008,-3.2772,-3.3762,-3.4074,-3.4619,-3.5385,-3.5642,-3.5788,-0.3997,-0.3843,-0.3763,-0.345,-0.3606,-0.3917,-0.4457,-0.4768,-0.5082,-0.5631,-0.5634,-0.5427,-0.5354,-0.5065,-0.4848,-0.4787,-0.4633,-0.4972,-0.616,-0.6572,-0.7117,-0.8243,-0.8631,-0.8733,0.0,0.0,0.0,-0.8627,-0.8932,-0.9209,-0.9421,-0.9796,-1.0099,-1.0214,-1.1964,-1.2334,-1.1182,-1.423,-1.5697,-1.54,-1.6098,-1.6498,-1.6792,-1.6877,-1.6978,-1.7266,-1.7327,-1.7326,-1.7326,-1.7326,-1.7326,-1.7512,-1.9422,-2.0322,-2.0863,-2.3028,-2.3937,-2.4206,-2.4454,-2.454,-2.454,-2.454,-2.454,-2.454,-2.454,-2.454,-2.4625,-2.5031,-2.5348,-2.5732,-2.6943,-2.7102,-2.7122,-2.7906,-2.7798,-2.7523,-2.7523,-2.7523,-2.7523,-2.7523,-2.7603,-2.7736,-2.7736,-2.8444,-2.9498,-3.1029,-3.1263,-3.1437,-3.1894,-3.2231,-3.2398,-3.2398,-3.2398,-3.2398,-3.2398,-3.2398,-3.2213,-3.1767,-3.1751,-3.1658,-3.1436,-3.1801,-3.2237,-3.2676,-3.3363,-3.4108,-3.4922,-3.5215,-3.5642,-3.6251,-3.6251,-3.6276,-0.4155,-0.3921,-0.3606,-0.2744,-0.3137,-0.3761,-0.3754,-0.4219,-0.4766,-0.5401,-0.5401,-0.5165,0.0,0.0,-0.4577,-0.4684,-0.4368,-0.4637,-0.5888,-0.6112,-0.6643,0.0,0.0,0.0,0.0,0.0,0.0,-0.8333,-0.872,-0.8895,-0.8884,-0.9572,-0.9984,-0.9964,-1.0878,-1.0883,-0.9969,-1.285,-1.4777,-1.5832,-1.5832,-1.5927,-1.6224,-1.6494,-1.6784,-1.6979,-1.7239,-1.7326,-1.7326,-1.7326,-1.7326,-1.7512,-1.9422,-2.0322,-2.0863,-2.3028,-2.3937,-2.4206,-2.4454,-2.454,-2.454,-2.454,-2.454,-2.454,-2.454,-2.454,-2.4625,-2.5031,-2.5574,-2.6109,-2.6605,-2.7114,-2.7513,-2.752,-2.7523,-2.7523,-2.7523,-2.7523,-2.7523,-2.7523,-2.7802,-2.8145,-2.821,-2.9071,-3.0237,-3.1495,-3.1724,-3.1894,-3.2342,-3.2398,-3.2398,-3.2398,-3.2398,-3.2398,-3.2398,-3.2398,-3.2398,-3.2398,-3.2453,-3.2641,-3.3198,-3.3391,-3.3953,-3.5021,-3.5191,-3.5571,-3.6225,-3.6225,-3.6251,-3.6301,-3.6301,-3.6301,-0.3921,-0.3841,-0.3686,-0.3061,-0.2904,-0.2901,-0.321,-0.3054,-0.321,-0.4462,-0.4538,-0.4538,0.0,0.0,0.0,-0.4684,-0.411,0.0,-0.5888,-0.5943,0.0,-0.7764,0.0,-0.8119,-0.8028,-0.8038,0.0,0.0,-0.8416,-0.8643,-0.8738,-0.9202,-0.9455,-0.9618,-1.0636,-1.1011,-1.0861,-1.3152,-1.4777,-1.5832,-1.5832,-1.5832,-1.5927,-1.64,-1.6683,-1.6683,-1.7145,-1.7326,-1.7326,-1.7326,-1.7326,-1.7512,-1.9422,-2.0322,-2.0863,-2.3028,-2.3937,-2.4206,-2.4454,-2.454,-2.454,-2.454,-2.454,-2.454,-2.454,-2.454,-2.4625,-2.5031,-2.5027,-2.5139,-2.637,-2.6542,-2.6521,-2.7281,-2.7523,-2.7523,-2.7523,-2.7523,-2.7523,-2.7523,-2.7802,-2.8392,-2.9198,-2.9917,-3.0644,-3.1552,-3.2007,-3.2272,-3.2398,-3.2398,-3.2398,-3.2398,-3.2398,-3.2398,-3.2398,-3.2398,-3.2523,-3.2773,-3.2773,-3.3065,-3.3614,-3.407,-3.4609,-3.5283,-3.5722,-3.6045,-3.6259,-3.6259,-3.6259,-3.6301,-3.6301,-3.6301,-0.4231,-0.3997,-0.3606,-0.2981,-0.2668,-0.2666,-0.3288,-0.3132,-0.3288,-0.4618,-0.4854,0.0,0.0,0.0,0.0,0.0,0.0,0.0,-0.5632,-0.561,-0.6031,0.0,-0.7917,0.0,-0.8024,-0.8038,-0.8069,0.0,-0.8296,-0.8457,-0.8477,-0.8841,-0.906,-0.9286,-0.9911,-1.0703,-1.1853,-1.3028,-1.4382,-1.5832,-1.5832,-1.5832,-1.5832,-1.6211,-1.6494,-1.6581,-1.6965,-1.7239,-1.7326,-1.7326,-1.7606,-1.8149,-1.9604,-2.0593,-2.132,-2.3125,-2.3927,-2.411,-2.4368,-2.454,-2.454,-2.454,-2.454,-2.454,-2.454,-2.454,-2.4584,-2.5029,-2.4919,-2.5071,-2.6351,-2.6417,-2.6496,-2.7323,-2.7523,-2.7523,-2.7523,-2.7523,-2.759,-2.7934,-2.8314,-2.9008,-3.0115,-3.0718,-3.1233,-3.1894,-3.2231,-3.2398,-3.2398,-3.2398,-3.2398,-3.2398,-3.2398,-3.2398,-3.2398,-3.2523,-3.2703,-3.2897,-3.3134,-3.3559,-3.4136,-3.4673,-3.5191,-3.5722,-3.6105,-3.6276,-3.6301,-3.6301,-3.6301,-3.6301,-3.6301,-3.6301,-0.4776,-0.4309,-0.3763,-0.2979,-0.2744,-0.2899,-0.3677,-0.383,-0.4066,-0.5246,0.0,-0.5246,-0.4857,-0.4543,-0.442,-0.4371,0.0,-0.3976,-0.5532,-0.5466,-0.5823,-0.7363,-0.7695,-0.7841,-0.7994,-0.8048,-0.8126,-0.8258,-0.8272,-0.8272,-0.8272,-0.8575,-0.8867,-0.915,-0.9306,-1.0498,-1.2635,-1.2823,-1.389,-1.5832,-1.5832,-1.5832,-1.5832,-1.6123,-1.6407,-1.6588,-1.6878,-1.716,-1.7326,-1.7326,-1.7878,-1.888,-1.9869,-2.0782,-2.1872,-2.3299,-2.3841,-2.3841,-2.4368,-2.454,-2.454,-2.454,-2.454,-2.454,-2.454,-2.454,-2.4692,-2.5027,-2.5181,-2.552,-2.636,-2.6631,-2.685,-2.739,-2.7523,-2.7523,-2.7523,-2.7523,-2.7723,-2.8522,-2.9008,-2.967,-3.0896,-3.1437,-3.1838,-3.2342,-3.2398,-3.2398,-3.2398,-3.2398,-3.2398,-3.2398,-3.2398,-3.2398,-3.2453,-3.2718,-3.2951,-3.3112,-3.3559,-3.4136,-3.4721,-3.5191,-3.5677,-3.6208,-3.6276,-3.6301,-3.6301,-3.6301,-3.6301,-3.6301,-3.6301,-3.6343,-0.4854,-0.4623,-0.4465,-0.4151,-0.3839,-0.3684,-0.4148,-0.3832,0.0,0.0,-0.446,-0.4462,-0.4859,-0.4621,-0.4577,-0.5173,0.0,0.0,0.0,0.0,-0.6065,0.0,0.0,0.0,0.0,0.0,0.0,0.0,-0.8272,-0.8272,-0.8272,-0.8575,-0.8816,-0.9183,-1.0023,-1.1175,-1.2727,-1.3607,-1.458,-1.5832,-1.5832,-1.5832,-1.5825,-1.6305,-1.6588,-1.6581,-1.7052,-1.7239,-1.7326,-1.7326,-1.7878,-1.888,-1.9869,-2.0782,-2.1872,-2.3299,-2.3841,-2.3841,-2.4368,-2.454,-2.454,-2.454,-2.454,-2.454,-2.454,-2.4786,-2.5094,-2.512,-2.543,-2.5937,-2.6457,-2.6631,-2.685,-2.739,-2.7523,-2.7523,-2.7523,-2.7523,-2.7842,-2.8994,-2.9233,-2.9794,-3.1321,-3.1682,-3.1838,-3.2342,-3.2398,-3.2398,-3.2398,-3.2398,-3.2398,-3.2398,-3.2398,-3.2523,-3.2773,-3.2843,-3.3256,-3.4,-3.4151,-3.461,-3.5526,-3.5677,-3.5898,-3.6259,-3.6301,-3.6301,-3.6301,-3.6301,-3.6301,-3.6301,-3.6301,-3.6492,-0.5786,-0.5321,-0.4932,-0.4616,-0.4304,-0.4229,-0.4616,0.0,0.0,0.0,-0.4932,-0.4854,-0.4857,0.0,0.0,0.0,0.0,0.0,0.0,0.0,0.0,0.0,0.0,0.0,0.0,0.0,-0.8029,-0.8364,-0.8238,-0.8184,-0.8269,-0.8596,-0.8814,-0.9031,-0.9715,-1.0984,-1.2727,-1.3216,-1.4286,-1.5832,-1.5832,-1.5832,-1.5832,-1.6116,-1.6305,-1.6581,-1.6864,-1.7052,-1.7326,-1.7326,-1.7878,-1.888,-1.9869,-2.0782,-2.1872,-2.3299,-2.3841,-2.3841,-2.4368,-2.454,-2.454,-2.454,-2.454,-2.454,-2.454,-2.4618,-2.4815,-2.5051,-2.557,-2.6039,-2.6544,-2.6904,-2.7188,-2.7456,-2.7523,-2.7523,-2.7523,-2.7669,-2.8118,-2.9121,-2.967,-3.0269,-3.1495,-3.1894,-3.212,-3.2398,-3.2398,-3.2398,-3.2398,-3.2398,-3.2398,-3.2398,-3.2398,-3.2523,-3.2843,-3.3187,-3.3626,-3.425,-3.4802,-3.5316,-3.5766,-3.5958,-3.6131,-3.6301,-3.6301,-3.6301,-3.6301,-3.6301,-3.6301,-3.6301,-3.6516,-3.6719,-0.6641,-0.6096,-0.5473,-0.5079,-0.4846,-0.4849,-0.5162,-0.5318,0.0,0.0,-0.5637,-0.5404,-0.4779,0.0,0.0,0.0,0.0,0.0,0.0,0.0,0.0,0.0,0.0,0.0,0.0,0.0,0.0,-0.8404,-0.8248,-0.816,-0.8319,-0.85,-0.8726,-0.8928,-0.9229,-1.0498,-1.2635,-1.2727,-1.3698,-1.5832,-1.5832,-1.5832,-1.5832,-1.5832,-1.6116,-1.6588,-1.6683,-1.6958,-1.7326,-1.7326,-1.7878,-1.888,-1.9869,-2.0782,-2.1872,-2.3299,-2.3841,-2.3841,-2.4368,-2.454,-2.4529,-2.4436,-2.4467,-2.4519,-2.4426,-2.4472,-2.4626,-2.4814,-2.5489,-2.6166,-2.6439,-2.6985,-2.7523,-2.7523,-2.7523,-2.7523,-2.7603,-2.7881,-2.8392,-2.9373,-3.0101,-3.0822,-3.1724,-3.2176,-3.2398,-3.2398,-3.2398,-3.2398,-3.2398,-3.2398,-3.2453,-3.2523,-3.2523,-3.2648,-3.2951,-3.3575,-3.4052,-3.448,-3.5316,-3.581,-3.5898,-3.6174,-3.6301,-3.6301,-3.6301,-3.6301,-3.6301,-3.6301,-3.6301,-3.6301,-3.6719,-3.6939,-0.6718,-0.6563,-0.6405,-0.5938,-0.5783,-0.5864,-0.6103,0.0,0.0,-0.5715,-0.5637,-0.5404,-0.4779,-0.501,0.0,0.0,0.0,0.0,0.0,0.0,0.0,0.0,0.0,0.0,0.0,0.0,-0.7753,-0.8265,-0.8384,-0.8429,-0.8368,-0.8144,-0.8439,-0.9133,-0.8928,-1.0096,-1.2635,-1.2727,-1.3698,-1.5832,-1.5832,-1.5832,-1.5832,-1.6028,-1.6312,-1.6588,-1.6878,-1.7066,-1.7326,-1.7326,-1.7878,-1.888,-1.9869,-2.0782,-2.1872,-2.3299,-2.3841,-2.3841,-2.4368,-2.454,-2.4478,-2.4074,-2.4209,-2.4467,-2.4064,-2.4458,-2.4875,-2.4039,-2.5159,-2.6478,-2.6066,-2.6701,-2.7523,-2.7523,-2.7523,-2.7603,-2.7947,-2.8079,-2.8573,-3.0086,-3.045,-3.0866,-3.2104,-3.2398,-3.2398,-3.2398,-3.2398,-3.2398,-3.2398,-3.2398,-3.2523,-3.2843,-3.2843,-3.2951,-3.3256,-3.3899,-3.4529,-3.5085,-3.5543,-3.5958,-3.6259,-3.6301,-3.6301,-3.6301,-3.6301,-3.6301,-3.6301,-3.6301,-3.6301,-3.6301,-3.6719,-3.7094,-0.7026,-0.6795,-0.6563,-0.6556,-0.6328,-0.618,-0.6261,0.0,-0.6183,-0.5715,-0.5637,-0.5559,-0.5323,-0.5246,-0.5318,0.0,0.0,0.0,0.0,0.0,0.0,0.0,0.0,0.0,0.0,0.0,-0.7292,-0.797,-0.8133,-0.8163,-0.8144,-0.8237,-0.8435,-0.8928,-0.9031,-1.0203,-1.2635,-1.2727,-1.3698,-1.5832,-1.5832,-1.5832,-1.5832,-1.5927,-1.6123,-1.6407,-1.6595,-1.6878,-1.7153,-1.7239,-1.7878,-1.888,-1.9869,-2.0782,-2.1872,-2.3299,-2.3841,-2.38,-2.406,-2.4146,-2.4074,-2.3608,-2.3588,-2.3691,-2.3515,-2.3811,-2.4281,-2.4182,-2.5187,-2.6202,-2.6352,-2.6918,-2.7523,-2.7523,-2.7669,-2.7881,-2.8079,-2.8638,-2.9373,-3.0343,-3.0881,-3.148,-3.2272,-3.2398,-3.2398,-3.2398,-3.2398,-3.2453,-3.2648,-3.2703,-3.2827,-3.3096,-3.3005,-3.315,-3.3848,-3.435,-3.4864,-3.5543,-3.5898,-3.6174,-3.6301,-3.6301,-3.6301,-3.6301,-3.6301,-3.6301,-3.6301,-3.6301,-3.6409,-3.6678,-3.7076,-3.7487,-0.7184,-0.6949,-0.6714,-0.6791,-0.6563,-0.6338,0.0,0.0,-0.6103,-0.5715,-0.5792,-0.5789,-0.5556,-0.5786,-0.5857,0.0,0.0,-0.6182,0.0,0.0,0.0,0.0,0.0,-0.6646,0.0,-0.7109,-0.7134,-0.7668,-0.7902,-0.8021,-0.7974,-0.8502,-0.8726,-0.8825,-0.9324,-1.0596,-1.2635,-1.3022,-1.4088,-1.5832,-1.5832,-1.5832,-1.5832,-1.5832,-1.5927,-1.6224,-1.6494,-1.6777,-1.6979,-1.7246,-1.7878,-1.888,-1.9869,-2.0712,-2.1697,-2.3113,-2.3569,-2.3408,-2.3618,-2.367,-2.3598,-2.3132,-2.2977,-2.2956,-2.2981,-2.3342,-2.3842,-2.4333,-2.5266,-2.6289,-2.6782,-2.7188,-2.7523,-2.7523,-2.7802,-2.8145,-2.8392,-2.9135,-2.9993,-3.0703,-3.1306,-3.1838,-3.2342,-3.2398,-3.2398,-3.2398,-3.2398,-3.2523,-3.2843,-3.2897,-3.3058,-3.3398,-3.3256,-3.345,-3.425,-3.4673,-3.5191,-3.5766,-3.6114,-3.6301,-3.6301,-3.6301,-3.6301,-3.6301,-3.6301,-3.6301,-3.6301,-3.6301,-3.6533,-3.69,-3.7321,-3.7826,-0.7184,-0.7022,-0.6865,-0.6637,-0.6563,-0.6563,0.0,0.0,-0.5864,-0.5637,-0.6099,-0.6328,-0.5476,-0.6479,-0.7173,-0.6318,0.0,0.0,0.0,0.0,0.0,0.0,0.0,0.0,-0.7054,-0.7417,-0.7536,-0.7387,-0.7787,-0.7974,-0.7821,-0.8928,-0.9312,-0.8825,-0.9801,-1.117,-1.2727,-1.3709,-1.4771,-1.5832,-1.5832,-1.5832,-1.5832,-1.5832,-1.5927,-1.6224,-1.6494,-1.6777,-1.6979,-1.7246,-1.7878,-1.888,-1.9869,-2.0553,-2.129,-2.268,-2.2915,-2.2615,-2.3032,-2.3194,-2.3122,-2.2656,-2.2501,-2.2496,-2.241,-2.3048,-2.3765,-2.4281,-2.5499,-2.6794,-2.7323,-2.7523,-2.7523,-2.7523,-2.7802,-2.8327,-2.9121,-2.956,-3.0176,-3.1437,-3.1682,-3.1838,-3.2342,-3.2398,-3.2398,-3.2398,-3.2398,-3.2523,-3.2843,-3.2897,-3.3096,-3.3658,-3.3694,-3.3848,-3.425,-3.4849,-3.5362,-3.5766,-3.6114,-3.6301,-3.6301,-3.6301,-3.6301,-3.6301,-3.6301,-3.6301,-3.6301,-3.6301,-3.6533,-3.69,-3.7321,-3.7964,-0.7859,-0.7249,-0.6714,-0.6637,-0.6486,-0.6412,-0.6338,0.0,-0.6714,-0.656,-0.7019,-0.7326,-0.6865,-0.7173,-0.7403,-0.7096,-0.7015,0.0,0.0,0.0,0.0,0.0,0.0,-0.6874,0.0,0.0,-0.7309,-0.7366,-0.814,-0.8528,-0.8592,-0.9592,-1.0027,-0.96,-1.0877,-1.215,-1.3511,-1.4004,-1.4777,-1.5832,-1.5832,-1.5832,-1.5832,-1.5832,-1.5832,-1.5927,-1.6218,-1.6376,-1.6366,-1.6643,-1.7319,-1.8242,-1.9121,-2.0006,-2.095,-2.2227,-2.2644,-2.2483,-2.2662,-2.2718,-2.2635,-2.217,-2.2025,-2.2147,-2.2671,-2.3036,-2.356,-2.504,-2.607,-2.685,-2.739,-2.7523,-2.7523,-2.7523,-2.8,-2.8587,-2.9184,-2.9993,-3.0837,-3.1552,-3.1951,-3.2231,-3.2382,-3.2398,-3.2398,-3.2398,-3.2594,-3.2827,-3.315,-3.3346,-3.3607,-3.3949,-3.4201,-3.4529,-3.4897,-3.5085,-3.5453,-3.6114,-3.6259,-3.6301,-3.6301,-3.6301,-3.6301,-3.6301,-3.6301,-3.6301,-3.6301,-3.6301,-3.6661,-3.7414,-3.8114,-3.8615,0.0,-0.7931,-0.7403,-0.7403,-0.733,0.0,0.0,0.0,-0.748,-0.7246,-0.7706,-0.8012,-0.7561,-0.771,-0.7863,-0.7561,-0.7173,0.0,0.0,0.0,0.0,0.0,0.0,0.0,0.0,-0.7665,-0.8055,-0.7814,-0.8767,-0.9393,-0.9426,-1.0421,-1.0865,-1.0738,-1.1778,-1.2885,-1.3761,-1.453,-1.5159,-1.5832,-1.5832,-1.5832,-1.5825,-1.5718,-1.5665,-1.5658,-1.5923,-1.595,0.0,-1.6314,-1.6981,-1.7905,-1.8768,-1.9627,-2.0596,-2.1765,-2.2171,-2.2139,-2.2179,-2.2232,-2.219,-2.1901,-2.2025,-2.2402,-2.3001,-2.3644,-2.436,-2.5569,-2.6427,-2.7053,-2.739,-2.7523,-2.7536,-2.7669,-2.8197,-2.883,-2.9608,-3.0404,-3.119,-3.1838,-3.2176,-3.2398,-3.2398,-3.2398,-3.2398,-3.2398,-3.2703,-3.3005,-3.3256,-3.3555,-3.3797,-3.405,-3.4448,-3.4835,-3.5178,-3.5362,-3.5677,-3.6259,-3.6301,-3.6301,-3.6301,-3.6301,-3.6301,-3.6301,-3.6301,-3.6367,-3.6533,-3.6843,-3.7323,-3.7893,-3.8585,-3.8939,0.0,-0.8927,-0.8699,-0.8703,-0.8699,-0.8623,0.0,0.0,0.0,0.0,-0.8394,-0.8551,-0.771,-0.8169,-0.8475,-0.7638,-0.7173,0.0,0.0,0.0,0.0,0.0,-0.7845,0.0,-0.7058,-0.8707,-0.9575,-0.8627,-0.9673,-1.0314,-1.0314,-1.1318,-1.1984,-1.1984,-1.2755,-1.3269,-1.359,-1.4967,-1.5765,-1.5765,-1.5765,-1.5765,-1.5758,-1.5491,-1.5364,-1.5351,-1.5611,-1.5658,-1.5725,-1.6161,-1.6835,-1.7746,-1.8692,-1.9406,-2.0158,-2.1312,-2.1625,-2.1502,-2.1731,-2.1807,-2.1807,-2.1807,-2.2402,-2.3075,-2.3519,-2.4731,-2.5931,-2.5931,-2.6688,-2.7523,-2.7523,-2.7523,-2.7603,-2.8013,-2.8341,-2.8958,-3.0208,-3.0777,-3.1248,-3.2216,-3.2398,-3.2398,-3.2398,-3.2398,-3.2398,-3.2398,-3.2703,-3.3005,-3.3256,-3.3555,-3.3797,-3.405,-3.4497,-3.4866,-3.5178,-3.5543,-3.5941,-3.6301,-3.6301,-3.6301,-3.6301,-3.6301,-3.6301,-3.6301,-3.6343,-3.6516,-3.6939,-3.779,-3.8245,-3.8342,-3.8707,-3.8921,-1.0732,0.0,-0.8927,-0.8703,-0.8618,-0.8461,0.0,0.0,0.0,0.0,0.0,-0.9387,-0.8546,-0.8546,-0.8475,-0.7638,-0.7173,-0.7231,0.0,0.0,0.0,0.0,-0.7929,-0.8368,-0.8105,-0.9231,-0.9836,-0.9579,-1.0497,-1.106,-1.106,-1.1984,-1.2539,-1.2539,-1.3233,-1.374,-1.4041,-1.476,-1.5164,-1.5164,-1.5164,-1.5164,-1.5164,-1.5097,-1.5064,-1.5154,-1.5356,-1.5362,-1.5308,-1.5575,-1.5777,-1.6141,-1.7689,-1.8365,-1.8771,-2.0635,-2.1296,-2.1359,-2.1655,-2.1807,-2.1883,-2.2176,-2.2628,-2.3139,-2.3998,-2.4992,-2.5931,-2.5931,-2.6688,-2.7523,-2.7523,-2.7523,-2.7603,-2.8013,-2.8341,-2.8958,-3.0208,-3.0777,-3.1248,-3.2216,-3.2398,-3.2398,-3.2398,-3.2398,-3.2398,-3.2398,-3.285,-3.3203,-3.3309,-3.3694,-3.405,-3.4101,-3.4675,-3.5131,-3.5178,-3.5543,-3.5941,-3.6301,-3.6301,-3.6301,-3.6301,-3.6301,-3.6301,-3.6301,-3.6661,-3.696,-3.7301,-3.7928,-3.8291,-3.8387,-3.8796,-3.9007,-1.126,-1.0507,-0.9906,-0.983,-0.9674,-0.9442,0.0,0.0,0.0,0.0,0.0,0.0,-0.8775,0.0,0.0,-0.7638,-0.7549,0.0,0.0,0.0,0.0,0.0,-0.9235,-0.9584,0.0,-1.0356,-1.1052,-1.0534,-1.1408,-1.1929,-1.1929,-1.2443,-1.2705,-1.2705,-1.3194,-1.3667,-1.4027,-1.4711,-1.4963,-1.4963,-1.4963,-1.4963,-1.4957,-1.4823,-1.4763,-1.475,-1.4959,-1.4974,-1.4986,-1.5333,-1.5654,-1.6147,-1.7521,-1.8318,-1.8957,-2.0566,-2.1282,-2.1359,-2.1655,-2.1807,-2.1883,-2.2478,-2.2852,-2.3213,-2.4348,-2.5288,-2.5931,-2.622,-2.6837,-2.7523,-2.7523,-2.7523,-2.7669,-2.821,-2.8638,-2.9247,-3.0464,-3.1014,-3.1552,-3.2272,-3.2398,-3.2398,-3.2398,-3.2523,-3.2648,-3.2648,-3.3134,-3.3503,-3.3503,-3.4,-3.4399,-3.4399,-3.5038,-3.5498,-3.5498,-3.581,-3.6131,-3.6301,-3.6301,-3.6301,-3.6301,-3.6402,-3.6591,-3.6799,-3.7228,-3.7578,-3.7859,-3.8373,-3.8658,-3.873,-3.8942,-3.9064,-1.1626,-1.1409,-1.1335,-1.1111,-1.0887,-1.0663,0.0,0.0,0.0,0.0,0.0,0.0,0.0,0.0,0.0,0.0,0.0,0.0,0.0,0.0,0.0,-0.9836,-1.0712,0.0,-1.0188,-1.166,-1.2357,-1.158,-1.2272,-1.2705,-1.2705,-1.2705,-1.2705,-1.2705,-1.2966,-1.3335,-1.3741,-1.4432,-1.483,-1.483,-1.483,-1.483,-1.4823,-1.4569,-1.4456,-1.4442,-1.4599,-1.4734,-1.4734,-1.5173,-1.5899,-1.678,-1.7674,-1.8638,-1.9687,-2.0731,-2.1282,-2.1512,-2.1731,-2.1807,-2.1949,-2.2777,-2.3001,-2.3287,-2.4719,-2.5499,-2.6,-2.6645,-2.7121,-2.7523,-2.7523,-2.7536,-2.7736,-2.8457,-2.9008,-2.967,-3.0777,-3.1379,-3.1838,-3.2287,-3.2398,-3.2398,-3.2453,-3.2718,-3.2897,-3.2951,-3.3398,-3.3694,-3.3797,-3.43,-3.4739,-3.4787,-3.5379,-3.5827,-3.5827,-3.6131,-3.6301,-3.6301,-3.6301,-3.6301,-3.6343,-3.6626,-3.697,-3.7431,-3.7808,-3.8129,-3.8468,-3.8826,-3.9045,-3.9101,-3.9101,-3.9101,-1.3171,-1.2879,-1.2305,-1.1111,-1.0594,-1.0293,0.0,0.0,0.0,0.0,0.0,0.0,0.0,0.0,0.0,0.0,0.0,0.0,0.0,0.0,-1.0626,-1.0009,0.0,-1.1235,-1.1063,-1.21,-1.2619,-1.2534,-1.2619,-1.2705,-1.2705,-1.2705,-1.2705,-1.2705,-1.2966,-1.3247,-1.3455,-1.3762,-1.4045,-1.4222,-1.4222,-1.4222,-1.4222,-1.4175,-1.4155,-1.4148,-1.451,-1.4734,-1.4734,-1.5173,-1.5899,-1.678,-1.7674,-1.8567,-1.946,-2.0586,-2.1051,-2.1282,-2.1655,-2.1807,-2.1949,-2.2777,-2.3001,-2.3361,-2.5217,-2.5861,-2.6139,-2.7108,-2.7469,-2.7523,-2.7523,-2.7736,-2.8079,-2.8522,-2.9198,-2.9993,-3.0851,-3.1379,-3.1838,-3.2287,-3.2398,-3.2523,-3.2773,-3.2843,-3.3005,-3.3203,-3.3503,-3.3797,-3.4151,-3.4497,-3.4835,-3.5085,-3.5543,-3.5827,-3.5827,-3.6131,-3.6301,-3.6301,-3.6301,-3.6402,-3.6643,-3.6856,-3.717,-3.765,-3.808,-3.8455,-3.8743,-3.896,-3.9101,-3.9101,-3.9101,-3.9101,-1.36,-1.3105,-1.2599,-1.1929,-1.126,0.0,0.0,0.0,0.0,0.0,0.0,0.0,0.0,0.0,0.0,0.0,0.0,-1.0822,-1.1449,-1.1428,-1.1322,0.0,0.0,-1.21,-1.21,-1.2443,-1.2705,-1.2705,-1.2705,-1.2705,-1.2705,-1.2705,-1.2705,-1.2705,-1.279,-1.2966,-1.3222,-1.3483,-1.3737,-1.4088,-1.4088,-1.4088,-1.4088,-1.4088,-1.4088,-1.4088,-1.4405,-1.4566,-1.4734,-1.5082,-1.6064,-1.7432,-1.7836,-1.8807,-2.0089,-2.0809,-2.1282,-2.1578,-2.1731,-2.1959,-2.2252,-2.2777,-2.315,-2.3655,-2.5358,-2.5931,-2.6139,-2.7188,-2.7523,-2.7536,-2.7736,-2.7947,-2.8276,-2.9085,-2.9747,-3.0404,-3.1204,-3.1724,-3.212,-3.2342,-3.2398,-3.2453,-3.2594,-3.2881,-3.315,-3.3309,-3.3642,-3.405,-3.4448,-3.4771,-3.5085,-3.5498,-3.5854,-3.6088,-3.6088,-3.6216,-3.6343,-3.6502,-3.6502,-3.6731,-3.7241,-3.7356,-3.7667,-3.8267,-3.8523,-3.8737,-3.896,-3.9045,-3.9101,-3.9101,-3.9101,-3.9101,-1.4186,-1.3542,-1.3032,-1.2886,0.0,0.0,0.0,0.0,0.0,0.0,0.0,0.0,0.0,0.0,0.0,0.0,-1.1226,-1.1172,-1.2899,-1.2272,-1.1929,-1.2613,-1.2705,-1.2705,-1.2705,-1.2705,-1.2705,-1.2705,-1.2705,-1.2705,-1.2705,-1.2705,-1.2705,-1.2705,-1.2705,-1.279,-1.3137,-1.3307,-1.3568,-1.3997,-1.4088,-1.4088,-1.4088,-1.4088,-1.4088,-1.4088,-1.4321,-1.4482,-1.4734,-1.4999,-1.6221,-1.7997,-1.7997,-1.9125,-2.0722,-2.1051,-2.1436,-2.1731,-2.1807,-2.2035,-2.2327,-2.2852,-2.3224,-2.3728,-2.5429,-2.5931,-2.6139,-2.7188,-2.7603,-2.7736,-2.8013,-2.821,-2.8522,-2.9449,-3.0176,-3.0763,-3.1379,-3.2007,-3.2398,-3.2398,-3.2398,-3.2398,-3.2523,-3.2973,-3.3309,-3.3398,-3.3899,-3.4399,-3.4787,-3.5131,-3.5498,-3.5871,-3.6131,-3.6301,-3.6301,-3.6301,-3.6444,-3.6766,-3.6742,-3.6987,-3.7667,-3.7774,-3.8101,-3.8792,-3.8851,-3.895,-3.9101,-3.9101,-3.9101,-3.9101,-3.9101,-3.9101,-1.5655,-1.5078,-1.4346,-1.3753,0.0,0.0,0.0,0.0,0.0,0.0,0.0,0.0,0.0,0.0,0.0,0.0,-1.2781,-1.2889,-1.3099,0.0,-1.2619,-1.2705,-1.2705,-1.2705,-1.2705,-1.2705,-1.2705,-1.2705,-1.2705,-1.2705,-1.2705,-1.2705,-1.2705,-1.2705,-1.2705,-1.279,-1.3137,-1.3307,-1.3476,-1.3737,-1.3997,-1.4088,-1.4088,-1.4088,-1.4088,-1.4088,-1.4321,-1.4482,-1.4734,-1.4999,-1.6221,-1.7997,-1.7997,-1.9204,-2.0906,-2.1128,-2.1359,-2.1578,-2.1731,-2.1807,-2.1959,-2.2777,-2.3001,-2.3434,-2.5288,-2.5931,-2.6139,-2.7188,-2.7736,-2.8079,-2.8079,-2.8522,-2.9035,-2.9162,-3.0054,-3.097,-3.1029,-3.1766,-3.2398,-3.2398,-3.2398,-3.2523,-3.2843,-3.3096,-3.3398,-3.3642,-3.425,-3.4787,-3.5131,-3.5498,-3.5915,-3.6216,-3.6301,-3.6301,-3.6301,-3.6301,-3.6509,-3.6948,-3.6806,-3.6987,-3.7667,-3.7931,-3.83,-3.8792,-3.896,-3.9073,-3.9101,-3.9101,-3.9101,-3.9101,-3.9101,-3.9101,-1.5497,-1.4999,-1.4497,-1.4049,0.0,0.0,0.0,0.0,0.0,0.0,0.0,0.0,0.0,0.0,0.0,-1.3233,-1.3241,-1.3246,-1.3275,-1.3052,-1.2875,-1.2705,-1.2705,-1.2705,-1.2705,-1.2705,-1.2705,-1.2705,-1.2705,-1.2705,-1.2705,-1.2705,-1.2705,-1.2705,-1.2705,-1.279,-1.2875,-1.3052,-1.3307,-1.3483,-1.3913,-1.4088,-1.4088,-1.4088,-1.4088,-1.4088,-1.4166,-1.4405,-1.4734,-1.4824,-1.6131,-1.8078,-1.9195,-2.0245,-2.1138,-2.1205,-2.1436,-2.1731,-2.1807,-2.2101,-2.2628,-2.2927,-2.357,-2.4432,-2.5569,-2.6151,-2.6564,-2.7323,-2.7934,-2.8406,-2.8406,-2.8716,-2.9275,-3.0054,-3.0673,-3.1146,-3.1766,-3.216,-3.2398,-3.2398,-3.2398,-3.2523,-3.2843,-3.3096,-3.3398,-3.3658,-3.425,-3.4835,-3.5178,-3.5543,-3.5915,-3.6259,-3.6301,-3.636,-3.6544,-3.6544,-3.6811,-3.7411,-3.7261,-3.7431,-3.8119,-3.8382,-3.8664,-3.896,-3.9073,-3.9101,-3.9101,-3.9101,-3.9101,-3.9101,-3.9101,-3.9192,-1.5133,-1.4705,-1.4425,0.0,0.0,0.0,0.0,0.0,0.0,0.0,0.0,0.0,0.0,0.0,0.0,0.0,-1.3474,-1.3432,-1.3366,-1.3228,-1.2966,-1.2705,-1.2705,-1.2705,-1.2705,-1.2705,-1.2705,-1.2705,-1.2705,-1.2705,-1.2705,-1.2705,-1.2705,-1.2705,-1.2705,-1.2705,-1.2705,-1.2966,-1.3228,-1.3398,-1.3828,-1.3997,-1.4088,-1.4088,-1.4088,-1.4088,-1.4166,-1.4573,-1.5144,-1.5235,-1.6453,-1.8567,-2.0001,-2.0886,-2.1205,-2.1205,-2.1425,-2.1807,-2.1807,-2.2252,-2.2852,-2.2927,-2.379,-2.4933,-2.5652,-2.6289,-2.685,-2.7523,-2.8131,-2.8587,-2.8716,-2.9035,-2.9526,-3.0553,-3.0911,-3.1204,-3.2007,-3.2287,-3.2453,-3.2523,-3.2578,-3.2648,-3.2989,-3.3256,-3.3503,-3.3642,-3.4382,-3.4961,-3.5178,-3.5633,-3.6045,-3.6301,-3.6402,-3.6502,-3.6684,-3.6846,-3.7164,-3.7667,-3.7703,-3.7964,-3.851,-3.8713,-3.8892,-3.9101,-3.9101,-3.9101,-3.9101,-3.9101,-3.9101,-3.9101,-3.921,-3.9324,-1.4721,-1.4353,0.0,0.0,0.0,0.0,0.0,0.0,0.0,0.0,0.0,0.0,0.0,0.0,0.0,-1.3566,-1.3638,-1.3652,-1.3398,-1.3228,-1.2966,-1.2705,-1.2705,-1.2705,-1.2705,-1.2705,-1.2705,-1.2705,-1.2699,-1.2699,-1.2699,-1.2699,-1.2699,-1.2699,-1.2699,-1.2699,-1.2693,-1.296,-1.3215,-1.3385,-1.3639,-1.3822,-1.4088,-1.4088,-1.4088,-1.4088,-1.4321,-1.5054,-1.6041,-1.6304,-1.7521,-1.9381,-2.0245,-2.0886,-2.1205,-2.1205,-2.1425,-2.1807,-2.1807,-2.2101,-2.2478,-2.2852,-2.3632,-2.4624,-2.5569,-2.6289,-2.6918,-2.7815,-2.8341,-2.8651,-2.9035,-2.9352,-2.9727,-3.019,-3.0673,-3.1146,-3.161,-3.2064,-3.2523,-3.2843,-3.2897,-3.3005,-3.3256,-3.3503,-3.3694,-3.3694,-3.4561,-3.5224,-3.5224,-3.5854,-3.6301,-3.6301,-3.6544,-3.6702,-3.6702,-3.7147,-3.7504,-3.7703,-3.8147,-3.8517,-3.8792,-3.8822,-3.8892,-3.9101,-3.9101,-3.9101,-3.9101,-3.9101,-3.9101,-3.9129,-3.9376,-3.9483,-1.5145,-1.4598,0.0,0.0,0.0,0.0,0.0,0.0,0.0,0.0,0.0,0.0,0.0,0.0,0.0,-1.3921,-1.3944,-1.3913,-1.3652,-1.3483,-1.3307,-1.3222,-1.3052,-1.2966,-1.2966,-1.2966,-1.2881,-1.2705,-1.2536,-1.2433,-1.2433,-1.2252,-1.2155,-1.2155,-1.2155,-1.2394,-1.2943,-1.3192,-1.344,-1.3601,-1.3842,-1.3995,-1.4088,-1.4088,-1.4419,-1.4985,-1.5068,-1.5794,-1.7009,-1.8006,-1.8816,-1.9381,-2.0245,-2.0886,-2.1205,-2.1205,-2.1425,-2.1807,-2.1807,-2.2252,-2.2852,-2.2927,-2.4143,-2.5499,-2.5791,-2.6564,-2.7403,-2.7947,-2.8341,-2.8651,-2.9035,-2.9352,-2.9789,-3.0613,-3.0911,-3.1204,-3.1992,-3.2287,-3.2523,-3.2843,-3.2897,-3.3058,-3.3503,-3.3658,-3.3745,-3.3949,-3.4658,-3.5407,-3.5898,-3.6156,-3.6343,-3.6544,-3.6643,-3.6806,-3.7122,-3.7411,-3.7792,-3.8186,-3.8491,-3.8725,-3.8792,-3.895,-3.9045,-3.9101,-3.9101,-3.9101,-3.9101,-3.9101,-3.9192,-3.9401,-3.9445,-3.9687,-1.4762,0.0,0.0,0.0,0.0,0.0,0.0,0.0,0.0,0.0,0.0,0.0,-1.3768,-1.3821,0.0,-1.4055,-1.4088,-1.3997,-1.3737,-1.3568,-1.3483,-1.3398,-1.3313,-1.3222,-1.3222,-1.3137,-1.3008,-1.2728,-1.2486,-1.227,-1.2161,-1.2005,-1.192,-1.192,-1.2313,-1.2698,-1.3245,-1.371,-1.4109,-1.4272,-1.4428,-1.4561,-1.4689,-1.437,-1.4607,-1.5484,-1.5885,-1.6677,-1.7845,-1.8976,-1.9634,-1.9854,-2.0401,-2.0886,-2.1205,-2.1205,-2.1425,-2.1807,-2.1959,-2.2617,-2.3338,-2.3497,-2.4779,-2.622,-2.622,-2.6837,-2.759,-2.8131,-2.8471,-2.8716,-2.9162,-2.9602,-3.0083,-3.0851,-3.1029,-3.1263,-3.2231,-3.2523,-3.2703,-3.2989,-3.315,-3.3346,-3.3797,-3.3848,-3.3949,-3.43,-3.4944,-3.5677,-3.636,-3.6444,-3.6544,-3.6806,-3.6886,-3.7044,-3.7259,-3.7703,-3.8119,-3.8382,-3.8725,-3.8921,-3.8921,-3.9045,-3.9101,-3.9101,-3.9101,-3.9101,-3.9101,-3.9101,-3.9245,-3.9513,-3.9595,-3.9863,0.0,0.0,0.0,0.0,0.0,0.0,0.0,0.0,0.0,0.0,0.0,0.0,-1.4119,-1.4088,-1.4088,-1.4088,-1.4088,-1.3997,-1.3737,-1.3737,-1.3652,-1.3483,-1.3483,-1.3398,-1.3398,-1.3228,-1.3024,-1.2756,-1.2459,-1.2161,-1.1902,-1.1866,-1.1848,-1.1927,-1.2857,-1.3406,-1.3556,-1.4403,-1.4942,-1.5265,-1.5265,-1.5333,-1.5478,-1.4764,-1.4872,-1.5718,-1.6791,-1.769,-1.8488,-1.9345,-1.9955,-2.0459,-2.0566,-2.0827,-2.1155,-2.1195,-2.1512,-2.1883,-2.2252,-2.3043,-2.3891,-2.4264,-2.5417,-2.6714,-2.6714,-2.7121,-2.7723,-2.8392,-2.8587,-2.878,-2.9477,-2.996,-3.0433,-3.097,-3.1087,-3.1306,-3.2231,-3.2648,-3.3005,-3.3256,-3.3503,-3.3797,-3.405,-3.4151,-3.43,-3.4739,-3.5379,-3.6045,-3.6602,-3.6702,-3.6806,-3.7027,-3.7182,-3.7297,-3.7372,-3.8018,-3.8415,-3.8415,-3.8855,-3.9101,-3.9101,-3.9101,-3.9101,-3.9101,-3.9101,-3.9101,-3.9129,-3.9137,-3.9287,-3.9552,-3.9819,-4.0082,0.0,0.0,0.0,0.0,0.0,0.0,0.0,0.0,0.0,0.0,0.0,-1.4092,-1.4075,-1.4088,-1.4088,-1.4088,-1.4088,-1.4088,-1.3997,-1.3828,-1.3737,-1.3913,-1.3737,-1.3652,-1.3652,-1.3568,-1.3361,-1.2756,-1.2457,-1.2056,-1.163,-1.1407,-1.1652,-1.2397,-1.2478,-1.3297,-1.4775,-1.4993,-1.5202,-1.5411,-1.5563,-1.5715,-1.5732,-1.5396,-1.5795,-1.68,-1.7859,-1.8517,-1.8908,-1.9213,-1.9482,-1.96,-2.0062,-2.0446,-2.0818,-2.1227,-2.1578,-2.1883,-2.2252,-2.3043,-2.3891,-2.4264,-2.5417,-2.6714,-2.6714,-2.7268,-2.8079,-2.8457,-2.878,-2.9162,-2.996,-3.019,-3.0493,-3.1321,-3.1552,-3.1724,-3.2287,-3.2648,-3.3005,-3.3256,-3.3503,-3.3797,-3.405,-3.4349,-3.4771,-3.5453,-3.5854,-3.6216,-3.6643,-3.6846,-3.7027,-3.722,-3.7259,-3.7447,-3.781,-3.8186,-3.8496,-3.8683,-3.896,-3.9101,-3.9101,-3.9101,-3.9101,-3.9101,-3.9101,-3.9137,-3.9245,-3.9345,-3.9595,-3.9982,-4.0194,-4.0422,0.0,0.0,0.0,0.0,0.0,0.0,0.0,0.0,0.0,0.0,-1.4469,-1.4328,-1.4243,-1.4166,-1.4088,-1.4088,-1.4088,-1.4088,-1.4088,-1.3997,-1.3913,-1.4088,-1.3997,-1.3913,-1.3913,-1.3697,-1.3335,-1.2806,-1.2368,-1.1852,-1.1493,-1.1708,-1.2057,-1.2565,-1.331,-1.425,-1.533,-1.5692,-1.5974,-1.6184,-1.6263,-1.6333,-1.6342,-1.6237,-1.6491,-1.7008,-1.7729,-1.8218,-1.8552,-1.8778,-1.9039,-1.9307,-1.9752,-2.0082,-2.0343,-2.0703,-2.1066,-2.1551,-2.2136,-2.3212,-2.4313,-2.4909,-2.5988,-2.7053,-2.7053,-2.7536,-2.8145,-2.8522,-2.8844,-2.9289,-3.0068,-3.0493,-3.0837,-3.1709,-3.1879,-3.2048,-3.2523,-3.2973,-3.3293,-3.345,-3.371,-3.4,-3.4349,-3.4866,-3.5362,-3.5854,-3.6216,-3.6527,-3.6926,-3.7066,-3.722,-3.741,-3.754,-3.7739,-3.7984,-3.835,-3.8652,-3.8792,-3.8989,-3.9101,-3.9101,-3.9165,-3.9183,-3.9101,-3.9165,-3.9219,-3.9298,-3.9439,-3.9709,-4.0101,-4.0211,-4.0434,0.0,0.0,0.0,0.0,0.0,0.0,0.0,0.0,0.0,0.0,-1.4873,-1.465,-1.4482,-1.4237,-1.4166,-1.4088,-1.4088,-1.4088,-1.4088,-1.4088,-1.4088,-1.4088,-1.4088,-1.4068,-1.4015,-1.3622,-1.3176,-1.2844,-1.235,-1.2012,-1.1719,-1.2425,-1.2924,-1.3077,-1.4466,-1.5338,-1.5754,-1.6315,-1.6682,-1.6908,-1.6908,-1.6908,-1.6908,-1.6908,-1.6908,-1.6968,-1.7176,-1.7571,-1.8043,-1.8264,-1.8618,-1.9082,-1.9387,-1.9633,-1.9858,-2.0186,-2.0669,-2.1355,-2.221,-2.3486,-2.4885,-2.5632,-2.6612,-2.7523,-2.7523,-2.7802,-2.821,-2.8522,-2.8908,-2.9401,-3.019,-3.0718,-3.1248,-3.2033,-3.2312,-3.2492,-3.2881,-3.3346,-3.3694,-3.3694,-3.3949,-3.4349,-3.4771,-3.5407,-3.5941,-3.6224,-3.6568,-3.6926,-3.7259,-3.7334,-3.741,-3.7577,-3.7845,-3.8018,-3.8052,-3.8528,-3.8803,-3.8833,-3.9017,-3.911,-3.911,-3.9272,-3.9272,-3.9165,-3.9272,-3.935,-3.9376,-3.9513,-3.9775,-4.0137,-4.0191,-4.0415,0.0,0.0,0.0,0.0,0.0,0.0,0.0,0.0,0.0,0.0,-1.4807,-1.465,-1.4482,-1.4398,-1.4321,-1.4166,-1.4088,-1.4088,-1.4088,-1.4088,-1.4088,-1.4088,-1.4088,-1.3988,-1.3728,-1.3585,-1.3253,-1.2563,-1.3064,-1.3194,-1.2732,-1.3433,-1.4227,-1.51,-1.5196,-1.57,-1.6691,-1.6612,-1.6682,-1.6908,-1.6908,-1.6908,-1.6908,-1.6908,-1.6978,-1.7166,-1.7392,-1.7558,-1.7793,-1.7949,-1.8135,-1.8213,-1.8874,-1.9163,-1.9424,-2.0607,-2.128,-2.1765,-2.2776,-2.4054,-2.5246,-2.5674,-2.6563,-2.7523,-2.7523,-2.7987,-2.8522,-2.8587,-2.9035,-2.9727,-3.0673,-3.1116,-3.1622,-3.2539,-3.3134,-3.3435,-3.3293,-3.3503,-3.3694,-3.3694,-3.4201,-3.4754,-3.5295,-3.5759,-3.6241,-3.6811,-3.7066,-3.722,-3.7297,-3.7447,-3.7594,-3.7594,-3.7845,-3.8086,-3.8318,-3.8621,-3.8862,-3.9045,-3.9192,-3.9272,-3.9272,-3.9383,-3.9458,-3.9452,-3.9458,-3.9532,-3.9647,-3.9903,-4.0119,-4.0281,-4.0579,-4.0746,0.0,0.0,0.0,0.0,0.0,0.0,0.0,0.0,0.0,-1.464,-1.4627,-1.4667,-1.4761,-1.4566,-1.4398,-1.4237,-1.4166,-1.4088,-1.4088,-1.4088,-1.4088,-1.4088,-1.3941,-1.3788,-1.3572,-1.334,-1.3189,-1.3293,-1.3322,-1.3447,-1.3665,-1.445,-1.5021,-1.5463,-1.5824,-1.6263,-1.6908,-1.6682,-1.6682,-1.6908,-1.6908,-1.6908,-1.6908,-1.6908,-1.7038,-1.7235,-1.7392,-1.7588,-1.7774,-1.8317,-1.8327,-1.8095,-1.8965,-1.9365,-1.9521,-2.0307,-2.1096,-2.1879,-2.2643,-2.3646,-2.4703,-2.5199,-2.591,-2.6569,-2.6749,-2.7193,-2.7631,-2.7755,-2.8368,-2.9085,-2.9781,-3.0488,-3.1263,-3.2304,-3.3024,-3.3555,-3.371,-3.3848,-3.3899,-3.3899,-3.448,-3.5038,-3.5283,-3.5941,-3.6568,-3.693,-3.7182,-3.7334,-3.7447,-3.7558,-3.7649,-3.7828,-3.8052,-3.8318,-3.859,-3.8902,-3.9129,-3.9192,-3.935,-3.9427,-3.9427,-3.9551,-3.9623,-3.9623,-3.9623,-3.9675,-3.9813,-4.0003,-4.0211,-4.0415,-4.0559,-4.07,0.0,0.0,0.0,0.0,0.0,0.0,0.0,0.0,-1.4487,0.0,-1.4562,-1.484,-1.4931,-1.4592,-1.4248,-1.4166,-1.4096,-1.4027,-1.3937,-1.3937,-1.3937,-1.4027,-1.3749,-1.3581,-1.3735,-1.3311,-1.3381,-1.4037,-1.3953,-1.4099,-1.4665,-1.5463,-1.5824,-1.5824,-1.6394,-1.6751,-1.6908,-1.6751,-1.6751,-1.6908,-1.7107,-1.7107,-1.6908,-1.7235,-1.7442,-1.7569,-1.7725,-1.7852,-1.8037,-1.89,-1.8988,-1.8596,-1.9462,-1.9846,-1.989,-2.0409,-2.116,-2.2075,-2.2639,-2.3487,-2.4416,-2.4836,-2.5444,-2.5936,-2.6246,-2.66,-2.695,-2.7308,-2.785,-2.8553,-2.9208,-3.0003,-3.0953,-3.21,-3.2815,-3.3399,-3.3968,-3.4101,-3.4101,-3.4101,-3.4738,-3.5299,-3.5345,-3.6216,-3.6926,-3.7126,-3.7297,-3.7447,-3.7594,-3.7649,-3.7792,-3.7984,-3.8285,-3.859,-3.8833,-3.9129,-3.9324,-3.935,-3.9477,-3.9532,-3.9532,-3.967,-3.9762,-3.9788,-3.9788,-3.9854,-3.9962,-4.012,-4.03,-4.0511,-4.0559,-4.0654,0.0,0.0,0.0,0.0,0.0,0.0,0.0,0.0,0.0,-1.4298,-1.4843,-1.5374,-1.4665,-1.4273,-1.4023,-1.3622,-1.3708,-1.3787,-1.355,-1.355,-1.3622,-1.3787,-1.3471,-1.3505,-1.4101,-1.396,-1.403,-1.4513,-1.5267,-1.5692,-1.5692,-1.6403,-1.683,-1.683,-1.683,-1.6908,-1.6908,-1.6908,-1.6908,-1.6908,-1.7638,-1.7569,-1.6978,-1.8307,-1.871,-1.8432,-1.8442,-1.8566,-1.8834,-1.9704,-2.0031,-2.0031,-2.0204,-2.0398,-2.0655,-2.1491,-2.2137,-2.2641,-2.3343,-2.4159,-2.4953,-2.5014,-2.5551,-2.6294,-2.6294,-2.6708,-2.7248,-2.772,-2.814,-2.8652,-2.975,-3.0278,-3.0876,-3.2262,-3.2835,-3.3274,-3.3955,-3.4101,-3.4101,-3.4101,-3.4847,-3.5565,-3.5803,-3.6638,-3.7334,-3.7558,-3.7594,-3.7594,-3.7577,-3.7828,-3.7984,-3.7984,-3.8446,-3.8833,-3.8989,-3.9192,-3.935,-3.9483,-3.9623,-3.9693,-3.9693,-3.9826,-3.9956,-4.0081,-4.0081,-4.0081,-4.0101,-4.0351,-4.0496,-4.0492,-4.07,-4.079,0.0,0.0,0.0,0.0,0.0,0.0,0.0,0.0,-1.5728,-1.5161,-1.5049,-1.4909,-1.463,-1.431,-1.4059,-1.3895,-1.3817,-1.3738,-1.3738,-1.366,-1.3738,-1.3817,-1.3487,-1.332,-1.3431,-1.3755,-1.4164,-1.4537,-1.5401,-1.6114,-1.6482,-1.6769,-1.6908,-1.6908,-1.6908,-1.6908,-1.6908,-1.6908,-1.6908,-1.6908,-1.7638,-1.7891,-1.7745,-1.8767,-1.9233,-1.9344,-1.9803,-1.9879,-1.9694,-2.042,-2.0549,-2.0279,-2.091,-2.1239,-2.1491,-2.1865,-2.2494,-2.3125,-2.3509,-2.3888,-2.4307,-2.4367,-2.478,-2.5149,-2.541,-2.596,-2.6567,-2.6914,-2.7603,-2.8284,-2.8708,-2.9515,-3.0633,-3.2201,-3.319,-3.3908,-3.4399,-3.43,-3.4234,-3.4577,-3.5111,-3.5637,-3.6165,-3.6816,-3.7334,-3.741,-3.7521,-3.7649,-3.781,-3.7949,-3.8119,-3.8496,-3.8755,-3.8989,-3.9165,-3.9427,-3.9575,-3.9623,-3.9739,-3.9826,-3.9826,-3.9958,-4.006,-4.0101,-4.0266,-4.0351,-4.0351,-4.0446,-4.0574,-4.07,-4.0778,-4.079,0.0,0.0,0.0,0.0,0.0,0.0,0.0,0.0,-1.6306,-1.5816,-1.5313,-1.4887,-1.4673,-1.4193,-1.3899,-1.3823,-1.3739,-1.3669,-1.3586,-1.3586,-1.3586,-1.3662,-1.3622,-1.3635,-1.3844,-1.4374,-1.4966,-1.5534,-1.6184,-1.6612,-1.6968,-1.7047,-1.7116,-1.7116,-1.7047,-1.7107,-1.7304,-1.7373,-1.751,-1.7706,-1.8499,-1.8813,-1.867,-1.9694,-2.015,-2.0193,-2.0921,-2.0933,-2.0484,-2.1198,-2.1262,-2.1049,-2.169,-2.2075,-2.2261,-2.2372,-2.2871,-2.345,-2.3569,-2.376,-2.4008,-2.4157,-2.4421,-2.4751,-2.5203,-2.5742,-2.6336,-2.6826,-2.7479,-2.8174,-2.8383,-2.9579,-3.1007,-3.2111,-3.3437,-3.4464,-3.4754,-3.461,-3.4529,-3.5065,-3.5593,-3.6028,-3.644,-3.7013,-3.741,-3.741,-3.7577,-3.7792,-3.7984,-3.8201,-3.846,-3.8833,-3.9045,-3.9245,-3.9427,-3.9599,-3.9717,-3.9762,-3.9848,-3.9933,-3.9977,-4.006,-4.0139,-4.023,-4.0399,-4.0526,-4.0607,-4.0607,-4.0668,-4.079,-4.079,-4.079,0.0,0.0,0.0,0.0,0.0,0.0,-1.7079,0.0,-1.7588,-1.6097,-1.5745,-1.5463,-1.4816,-1.4049,-1.3492,-1.3273,-1.3419,-1.3419,-1.3273,-1.32,-1.3346,-1.3492,-1.384,-1.4394,-1.5392,-1.6026,-1.6664,-1.7401,-1.747,-1.7392,-1.7235,-1.7392,-1.747,-1.747,-1.7314,-1.7569,-1.8182,-1.8442,-1.8767,-1.9299,-2.0204,-2.0257,-1.9596,-2.1019,-2.1411,-2.0985,-2.1651,-2.16,-2.1198,-2.1925,-2.2309,-2.242,-2.2616,-2.28,-2.2909,-2.3078,-2.3318,-2.3628,-2.3628,-2.3806,-2.4171,-2.4408,-2.4765,-2.5174,-2.5906,-2.6336,-2.6721,-2.7575,-2.7959,-2.8271,-2.8936,-3.0542,-3.1996,-3.1996,-3.3541,-3.5035,-3.5035,-3.5065,-3.5157,-3.5459,-3.6197,-3.6706,-3.6706,-3.7226,-3.7577,-3.7577,-3.781,-3.7984,-3.8018,-3.8585,-3.8989,-3.9017,-3.9324,-3.9575,-3.9693,-3.9717,-3.9762,-3.9889,-3.9911,-3.9956,-4.0101,-4.0101,-4.023,-4.0477,-4.0511,-4.0607,-4.079,-4.079,-4.079,-4.079,-4.079,-4.079,-1.8271,0.0,0.0,0.0,0.0,0.0,-1.7725,-1.7872,-1.7872,-1.7442,-1.6455,-1.5816,-1.6158,-1.5171,-1.4466,-1.4895,-1.4122,-1.3499,-1.3419,-1.3905,-1.4258,-1.4258,-1.4824,-1.5321,-1.5463,-1.6237,-1.6724,-1.6664,-1.7226,-1.7588,-1.7461,-1.747,-1.747,-1.747,-1.792,-1.824,-1.8442,-1.8957,-1.9278,-1.9475,-2.0257,-2.059,-2.0526,-2.1463,-2.1862,-2.1862,-2.2061,-2.2061,-2.1925,-2.2123,-2.2371,-2.2616,-2.2678,-2.286,-2.3078,-2.3271,-2.345,-2.3628,-2.376,-2.3936,-2.4229,-2.4794,-2.5189,-2.5577,-2.6322,-2.6967,-2.7473,-2.774,-2.8301,-2.8967,-2.9531,-3.0836,-3.2136,-3.2545,-3.3848,-3.5203,-3.589,-3.613,-3.6281,-3.6364,-3.6528,-3.6825,-3.7281,-3.7503,-3.7577,-3.7577,-3.7703,-3.7915,-3.8252,-3.8566,-3.8894,-3.9192,-3.9458,-3.967,-3.9693,-3.9804,-3.9867,-3.9889,-3.9979,-4.0041,-4.0101,-4.0283,-4.0415,-4.0511,-4.0635,-4.0746,-4.079,-4.079,-4.079,-4.079,-4.079,-4.079,0.0,0.0,0.0,0.0,0.0,0.0,-1.8008,-1.8008,-1.8008,-1.8008,-1.701,-1.6376,-1.6793,-1.5877,-1.5171,-1.5604,-1.4974,-1.441,-1.441,-1.4752,-1.5029,-1.5029,-1.5737,-1.6167,-1.6088,-1.6872,-1.7295,-1.7019,-1.7501,-1.7794,-1.7735,-1.7608,-1.7539,-1.7676,-1.8317,-1.8767,-1.9044,-1.9814,-2.0268,-2.0526,-2.0996,-2.1325,-2.1451,-2.1862,-2.2061,-2.2197,-2.2469,-2.258,-2.258,-2.2944,-2.3065,-2.3078,-2.3125,-2.3471,-2.3989,-2.4118,-2.4292,-2.4452,-2.4593,-2.4708,-2.4921,-2.5522,-2.5837,-2.6108,-2.6916,-2.7458,-2.784,-2.8122,-2.8685,-2.9414,-3.0125,-3.1199,-3.2294,-3.3117,-3.441,-3.5654,-3.6357,-3.6821,-3.7055,-3.6956,-3.7017,-3.7188,-3.754,-3.7577,-3.7577,-3.7577,-3.781,-3.8101,-3.8428,-3.8818,-3.9154,-3.9452,-3.9647,-3.9781,-3.9781,-3.9867,-3.9914,-3.9977,-4.006,-4.0158,-4.0266,-4.0415,-4.0526,-4.0621,-4.0746,-4.079,-4.079,-4.079,-4.079,-4.079,-4.0808,-4.0994,0.0,0.0,0.0,0.0,-1.8008,0.0,-1.8008,-1.8008,-1.8008,-1.8008,-1.7432,-1.6941,-1.701,-1.6376,-1.5886,-1.5948,-1.5956,-1.5956,-1.5745,-1.5816,-1.5807,-1.5807,-1.6515,-1.7001,-1.7001,-1.7647,-1.8008,-1.8008,-1.8076,-1.8076,-1.8076,-1.7803,-1.7872,-1.8134,-1.8777,-1.9365,-1.9966,-2.0805,-2.1463,-2.1937,-2.2123,-2.2197,-2.2197,-2.2197,-2.2247,-2.2359,-2.2859,-2.3195,-2.3314,-2.4047,-2.4105,-2.3695,-2.3859,-2.4425,-2.5175,-2.5231,-2.5398,-2.5618,-2.5618,-2.5728,-2.5892,-2.639,-2.6563,-2.6774,-2.7625,-2.789,-2.8024,-2.8637,-2.9152,-2.9736,-3.0642,-3.1599,-3.2577,-3.3706,-3.5111,-3.6291,-3.6724,-3.7226,-3.7558,-3.7372,-3.7484,-3.7577,-3.7577,-3.7613,-3.7649,-3.7649,-3.8086,-3.8491,-3.8628,-3.9154,-3.9532,-3.9693,-3.9826,-3.9889,-3.9889,-3.9889,-3.9956,-4.0081,-4.012,-4.023,-4.0496,-4.0526,-4.0621,-4.079,-4.09,-4.0938,-4.0938,-4.0861,-4.0861,-4.0938,-4.0939,-4.1419,0.0,0.0,0.0,0.0,-1.8008,0.0,-1.8008,-1.8008,-1.8008,-1.8008,-1.7432,-1.7079,-1.7657,-1.7295,-1.7079,-1.7706,-1.7774,-1.7285,-1.5886,-1.6237,-1.6655,-1.6655,-1.7295,-1.7794,-1.7794,-1.8066,-1.8269,-1.8269,-1.8347,-1.8414,-1.8414,-1.8721,-1.9044,-1.9309,-2.0344,-2.0933,-2.1071,-2.1776,-2.2173,-2.2123,-2.2185,-2.2197,-2.2197,-2.2197,-2.2531,-2.3088,-2.3195,-2.3657,-2.4239,-2.4526,-2.4483,-2.4337,-2.4469,-2.4811,-2.5231,-2.5342,-2.5453,-2.5618,-2.5728,-2.5823,-2.6079,-2.6745,-2.7056,-2.7312,-2.8024,-2.8381,-2.8637,-2.9198,-2.9425,-2.9736,-3.0642,-3.1839,-3.3067,-3.4321,-3.5621,-3.6724,-3.7319,-3.754,-3.7594,-3.7558,-3.7577,-3.7577,-3.7577,-3.7792,-3.7915,-3.7915,-3.8346,-3.8718,-3.8884,-3.9253,-3.9532,-3.9693,-3.9826,-3.9889,-3.9889,-3.9889,-3.9956,-4.0081,-4.0194,-4.0334,-4.0477,-4.0654,-4.0759,-4.079,-4.149,-4.1842,-4.1842,-4.1137,-4.1156,-4.1842,-4.1854,-4.2335,0.0,0.0,0.0,-1.8008,-1.8008,0.0,0.0,-1.8008,-1.8008,-1.8008,-1.7784,-1.7706,-1.8066,-1.7988,-1.792,-1.8337,-1.8414,-1.8056,-1.7217,-1.7285,-1.751,-1.7569,-1.7862,-1.8076,-1.8212,-1.8269,-1.8337,-1.8405,-1.8482,-1.8674,-1.9065,-1.9309,-1.9628,-2.0074,-2.0985,-2.1502,-2.1502,-2.2223,-2.2494,-2.2445,-2.2445,-2.2445,-2.2432,-2.2775,-2.3113,-2.3505,-2.4066,-2.4584,-2.4993,-2.5508,-2.5687,-2.5646,-2.5439,-2.5769,-2.6283,-2.6336,-2.6496,-2.6602,-2.6759,-2.6864,-2.7004,-2.7494,-2.7695,-2.7845,-2.8414,-2.8795,-2.9152,-2.9425,-2.998,-3.0701,-3.1463,-3.2752,-3.4083,-3.5324,-3.6186,-3.6939,-3.7485,-3.7577,-3.7577,-3.7577,-3.7774,-3.7827,-3.7649,-3.7862,-3.8083,-3.8083,-3.8579,-3.899,-3.9127,-3.9414,-3.9647,-3.9781,-3.9867,-3.9889,-3.9889,-3.9956,-4.006,-4.0194,-4.0334,-4.0481,-4.0635,-4.0746,-4.1009,-4.1451,-4.1914,-4.2159,-4.2159,-4.1277,-4.1529,-4.2801,-4.2827,-4.3097,0.0,0.0,0.0,0.0,-1.8008,-1.8008,0.0,0.0,0.0,-1.8076,0.0,0.0,0.0,0.0,0.0,-1.8549,0.0,0.0,0.0,-1.8279,0.0,-1.8337,-1.8212,-1.8212,-1.8482,-1.8472,-1.8539,-1.8684,-1.8741,-1.9131,-1.9824,-1.9955,-2.0268,-2.0962,-2.1616,-2.1939,-2.1939,-2.2469,-2.2739,-2.2739,-2.286,-2.2848,-2.2909,-2.3518,-2.3859,-2.4034,-2.5007,-2.5522,-2.5742,-2.6553,-2.6884,-2.6884,-2.6457,-2.6788,-2.7401,-2.7401,-2.7488,-2.7625,-2.774,-2.784,-2.789,-2.8137,-2.8235,-2.8365,-2.87,-2.9106,-2.9515,-2.9633,-3.0549,-3.1682,-3.2464,-3.3708,-3.5094,-3.6201,-3.6741,-3.715,-3.754,-3.7613,-3.7613,-3.7613,-3.7948,-3.8132,-3.7756,-3.8099,-3.8405,-3.8405,-3.8915,-3.9331,-3.9352,-3.9585,-3.9781,-3.9889,-3.9889,-3.9911,-3.9954,-4.004,-4.0177,-4.0334,-4.0431,-4.0588,-4.079,-4.0803,-4.1141,-4.1856,-4.2102,-4.2218,-4.2226,-4.1687,-4.2059,-4.3266,-4.3317,-4.345,0.0,0.0,0.0,0.0,-1.8008,-1.8008,-1.8008,0.0,-1.8076,-1.8212,0.0,0.0,0.0,0.0,0.0,0.0,0.0,0.0,-1.8741,-1.8607,-1.8482,-1.8482,-1.8482,-1.8482,-1.8482,-1.8921,-1.9253,-1.9473,-1.9726,-2.0161,-2.0719,-2.1175,-2.1667,-2.2347,-2.2944,-2.321,-2.321,-2.3078,-2.2957,-2.2848,-2.3305,-2.3518,-2.3518,-2.4137,-2.4754,-2.5398,-2.5508,-2.6028,-2.6832,-2.6951,-2.7107,-2.7299,-2.7115,-2.7233,-2.7401,-2.7401,-2.7488,-2.7625,-2.774,-2.7905,-2.8005,-2.8137,-2.8414,-2.8685,-2.8982,-2.9259,-2.9605,-3.0097,-3.0836,-3.1752,-3.2908,-3.4223,-3.5469,-3.6434,-3.7094,-3.754,-3.7577,-3.7649,-3.7703,-3.7703,-3.7998,-3.8277,-3.8147,-3.8651,-3.9091,-3.9091,-3.9389,-3.9647,-3.9651,-3.9762,-3.9889,-3.9889,-3.9889,-3.9935,-4.008,-4.0081,-4.0194,-4.0446,-4.0477,-4.0588,-4.079,-4.0812,-4.0867,-4.1034,-4.1857,-4.2284,-4.2292,-4.2963,-4.3002,-4.2434,-4.2436,-4.2898,0.0,0.0,0.0,0.0,-1.8269,-1.8008,-1.8008,-1.8076,-1.8212,-1.8269,0.0,0.0,0.0,0.0,0.0,0.0,-1.8998,-1.8998,0.0,0.0,-1.9008,-1.8674,0.0,0.0,-1.8988,-1.9253,-1.9528,-1.9605,-1.9911,-2.0484,-2.1428,-2.169,-2.2187,-2.3173,-2.3378,-2.3509,-2.3509,-2.345,-2.339,-2.333,-2.3884,-2.4105,-2.415,-2.5106,-2.5714,-2.6014,-2.6404,-2.6736,-2.7144,-2.7196,-2.7299,-2.7401,-2.7423,-2.7488,-2.7539,-2.7539,-2.7575,-2.774,-2.7855,-2.8005,-2.8152,-2.8414,-2.87,-2.8982,-2.9259,-2.9633,-3.0011,-3.0267,-3.1541,-3.2991,-3.3502,-3.503,-3.657,-3.6964,-3.7337,-3.7577,-3.7577,-3.7792,-3.7998,-3.7998,-3.8462,-3.8859,-3.883,-3.9063,-3.9268,-3.9268,-3.958,-3.9826,-3.9826,-3.9867,-3.9889,-3.9889,-3.9981,-4.0101,-4.0138,-4.0348,-4.0501,-4.0604,-4.0687,-4.0765,-4.0856,-4.1383,-4.1684,-4.171,-4.213,-4.2368,-4.2364,-4.2212,-4.1966,-4.1633,-4.2633,-4.3047,-2.0291,0.0,0.0,-1.9309,-1.8921,-1.8529,-1.8395,-1.8462,-1.8529,-1.8472,-1.8607,0.0,0.0,0.0,0.0,0.0,0.0,-1.9131,0.0,-1.9473,0.0,-1.9075,-1.9198,0.0,0.0,-1.9846,-2.0053,-1.9868,-2.0302,-2.1049,-2.2063,-2.2063,-2.2616,-2.3688,-2.3747,-2.3747,-2.3747,-2.3688,-2.3747,-2.3897,-2.4452,-2.4851,-2.5007,-2.6068,-2.6563,-2.6563,-2.7011,-2.7233,-2.7284,-2.735,-2.7401,-2.7437,-2.7575,-2.7625,-2.7625,-2.7625,-2.774,-2.784,-2.8005,-2.8152,-2.8284,-2.859,-2.8873,-2.9167,-2.9515,-2.9968,-3.0335,-3.0502,-3.2188,-3.3928,-3.4086,-3.5717,-3.7297,-3.7372,-3.7484,-3.7613,-3.7739,-3.7998,-3.8277,-3.8355,-3.8906,-3.9352,-3.9352,-3.9421,-3.947,-3.947,-3.9698,-3.9911,-3.9933,-3.9956,-3.9979,-4.0,-4.0175,-4.0296,-4.0329,-4.0571,-4.0734,-4.0757,-4.0859,-4.0917,-4.0926,-4.1579,-4.196,-4.1967,-4.2017,-4.2045,-4.2031,-4.1406,-4.109,-4.1128,-4.2397,-4.2646,0.0,-2.0549,-2.0031,-2.0031,-2.0031,-1.9901,-1.9365,-1.9243,-1.9177,-1.8875,-1.8808,-1.8875,-1.9065,0.0,0.0,0.0,0.0,0.0,0.0,0.0,0.0,-1.9605,-1.9857,0.0,0.0,-2.0816,-2.1135,0.0,-2.1376,-2.2063,-2.2531,-2.2592,-2.304,-2.4054,-2.4054,-2.4054,-2.4054,-2.3949,-2.4157,-2.4681,-2.5119,-2.5673,-2.6283,-2.6893,-2.7181,-2.7181,-2.7181,-2.7284,-2.7401,-2.7401,-2.7488,-2.7575,-2.7625,-2.7625,-2.7625,-2.774,-2.779,-2.784,-2.8088,-2.8299,-2.8444,-2.8653,-2.8873,-2.9213,-2.981,-3.014,-3.0418,-3.1083,-3.2525,-3.4024,-3.4524,-3.5962,-3.7334,-3.754,-3.7594,-3.7703,-3.8099,-3.8245,-3.8418,-3.881,-3.9216,-3.9483,-3.9483,-3.9693,-3.9889,-3.9889,-3.9889,-3.9933,-3.9996,-4.012,-4.0211,-4.0283,-4.0408,-4.0538,-4.068,-4.0692,-4.0757,-4.0898,-4.0907,-4.0926,-4.0988,-4.1026,-4.1067,-4.1148,-4.1138,-4.1131,-4.1131,-4.1112,-4.1107,-4.1091,-4.1169,-4.1169,-2.1198,-2.0613,-2.0096,-2.0096,-1.9835,-1.9497,-1.9365,-1.9803,-1.9998,-1.8998,-1.9264,-1.9528,-1.9198,0.0,0.0,0.0,0.0,0.0,0.0,0.0,-2.1239,-2.1123,0.0,0.0,0.0,0.0,0.0,0.0,-2.1753,0.0,-2.3065,-2.3138,-2.3437,-2.4054,-2.4112,-2.4112,-2.4112,-2.4447,-2.4721,-2.4935,-2.5797,-2.6336,-2.6563,-2.7203,-2.7473,-2.7473,-2.7473,-2.7473,-2.7524,-2.7524,-2.7575,-2.7625,-2.7625,-2.7625,-2.774,-2.779,-2.7855,-2.7955,-2.825,-2.8348,-2.8493,-2.912,-2.9377,-2.9556,-3.0293,-3.0707,-3.1044,-3.1393,-3.2547,-3.384,-3.4693,-3.5811,-3.6898,-3.7702,-3.7931,-3.8065,-3.8392,-3.8722,-3.8998,-3.9125,-3.9489,-3.9758,-3.9758,-3.9889,-3.9954,-3.9911,-3.9933,-3.9998,-4.012,-4.0212,-4.0315,-4.0423,-4.0591,-4.0718,-4.0759,-4.0878,-4.0968,-4.103,-4.103,-4.1039,-4.1061,-4.1076,-4.1078,-4.1099,-4.1092,-4.1093,-4.1092,-4.1105,-4.1097,-4.1108,-4.1108,-4.1108,-2.1262,-2.0613,-2.0096,-2.0096,-1.9835,-1.9639,-1.9759,-2.0074,-2.0139,-1.9386,-1.9518,-1.9584,-1.9198,0.0,0.0,0.0,0.0,0.0,0.0,-2.1717,-2.2237,-2.2187,0.0,0.0,0.0,0.0,0.0,0.0,0.0,0.0,0.0,-2.3628,-2.3852,-2.4203,-2.4332,-2.439,-2.439,-2.4935,-2.5314,-2.5536,-2.639,-2.6878,-2.71,-2.7458,-2.7625,-2.7625,-2.7625,-2.7625,-2.7625,-2.7625,-2.7625,-2.7625,-2.7795,-2.781,-2.779,-2.784,-2.8088,-2.8462,-2.8795,-2.892,-2.9028,-2.9629,-2.9892,-3.0064,-3.0747,-3.1162,-3.147,-3.1711,-3.2667,-3.3812,-3.4748,-3.5758,-3.6787,-3.7835,-3.8198,-3.8436,-3.8799,-3.909,-3.9352,-3.9494,-3.9739,-3.9911,-3.9933,-3.9975,-3.9975,-3.9933,-4.0039,-4.0158,-4.0266,-4.0396,-4.0511,-4.0636,-4.081,-4.0915,-4.0915,-4.1038,-4.111,-4.111,-4.1103,-4.1106,-4.1094,-4.1094,-4.1105,-4.1092,-4.1092,-4.1107,-4.1107,-4.1097,-4.1104,-4.1097,-4.1097,-4.1094]}]]